[[{"header":{"parameterUnit":"m.s-1","parameterCategory":1,"la1":31.0,"la2":29.5877,"lo1":-88.7671,"lo2":-86.6584,"dy":0.0162,"dx":0.0185,"nx":115,"ny":88,"refTime":"2023-09-06T06:00:00:Z","depth":0,"parameterNumber":2,"parameterNumberName":"U-component_of_WINDS"},"data":[0.0,0.0,0.0,0.0,0.0,0.0,0.0,0.0,0.0,0.0,0.0,0.0,0.0,0.0,0.0,0.0,0.0,0.0,0.0,0.0,0.0,0.0,0.0,0.0,0.0,0.0,0.0,0.0,0.0,0.0,0.0,0.0,0.0,0.0,0.0,0.0,0.0,0.0,0.0,0.0,0.0,0.0,0.0,0.0,0.0,0.0,0.0,0.0,0.0,0.0,0.0,0.0,0.0,0.0,0.0,0.0,0.0,0.0,0.0,0.0,0.0,0.0,0.0,0.0,0.0,0.0,0.0,0.0,0.0,0.0,0.0,0.0,0.0,0.0,0.0,0.0,0.0,0.0,0.0,0.0,0.0,0.0,0.0,0.0,0.0,0.0,0.0,0.0,0.0,0.0,0.0,0.0,0.0,0.0,0.0,0.0,0.0,0.0,0.0,0.0,0.0,0.0,0.0,0.0,0.0,0.0,0.0,0.0,0.0,0.0,0.0,0.0,0.0,0.0,0.0,0.0,0.0,0.0,0.0,0.0,0.0,0.0,0.0,0.0,0.0,0.0,0.0,0.0,0.0,0.0,0.0,0.0,0.0,0.0,0.0,0.0,0.0,0.0,0.0,0.0,0.0,0.0,0.0,0.0,0.0,0.0,0.0,0.0,0.0,0.0,0.0,0.0,0.0,0.0,0.0,0.0,0.0,0.0,0.0,0.0,0.0,0.0,0.0,0.0,0.0,0.0,0.0,0.0,0.0,0.0,0.0,0.0,0.0,0.0,0.0,0.0,0.0,0.0,0.0,0.0,0.0,0.0,0.0,0.0,0.0,0.0,0.0,0.0,0.0,0.0,0.0,0.0,0.0,0.0,0.0,0.0,0.0,0.0,0.0,0.0,0.0,0.0,0.0,0.0,0.0,0.0,0.0,0.0,0.0,0.0,0.0,0.0,0.0,0.0,0.0,0.0,0.0,0.0,0.0,0.0,0.0,0.0,0.0,0.0,0.0,0.0,0.0,0.0,0.0,0.0,0.0,0.0,0.0,0.0,0.0,0.0,0.0,0.0,0.0,0.0,0.0,0.0,0.0,0.0,0.0,0.0,0.0,0.0,0.0,0.0,0.0,0.0,0.0,0.0,0.0,0.0,0.0,0.0,0.0,0.0,0.0,0.0,0.0,0.0,0.0,0.0,0.0,0.0,0.0,0.0,0.0,0.0,0.0,0.0,0.0,0.0,0.0,0.0,0.0,0.0,0.0,0.0,0.0,0.0,0.0,0.0,0.0,0.0,0.0,0.0,0.0,0.0,0.0,0.0,0.0,0.0,0.0,0.0,0.0,0.0,0.0,0.0,0.0,0.0,0.0,0.0,0.0,0.0,0.0,0.0,0.0,0.0,0.0,0.0,0.0,0.0,0.0,0.0,0.0,0.0,0.0,0.0,0.0,0.0,0.0,0.0,0.0,0.0,0.0,0.0,0.0,0.0,0.0,0.0,0.0,0.0,0.0,0.0,0.0,0.0,0.0,0.0,0.0,0.0,0.0,0.0,0.0,0.0,0.0,0.0,0.0,0.0,0.0,0.0,0.0,0.0,0.0,0.0,0.0,0.0,0.0,0.0,0.0,0.0,0.0,0.0,0.0,0.0,0.0,0.0,0.0,0.0,0.0,0.0,0.0,0.0,0.0,0.0,0.0,0.0,0.0,0.0,0.0,0.0,0.0,0.0,0.0,0.0,0.0,0.0,0.0,0.0,0.0,0.0,0.0,0.0,0.0,0.0,0.0,0.0,0.0,0.0,0.0,0.0,0.0,0.0,0.0,0.0,0.0,0.0,0.0,0.0,0.0,0.0,0.0,0.0,0.0,0.0,0.0,0.0,0.0,0.0,0.0,0.0,0.0,0.0,0.0,0.0,0.0,0.0,0.0,0.0,0.0,0.0,0.0,0.0,0.0,0.0,0.0,0.0,0.0,0.0,0.0,0.0,0.0,0.0,0.0,0.0,0.0,0.0,0.0,0.0,0.0,0.0,0.0,0.0,0.0,0.0,0.0,0.0,0.0,0.0,0.0,0.0,0.0,0.0,0.0,0.0,0.0,0.0,0.0,0.0,0.0,0.0,0.0,0.0,0.0,0.0,0.0,0.0,0.0,0.0,0.0,0.0,0.0,0.0,0.0,0.0,0.0,0.0,0.0,0.0,0.0,0.0,0.0,0.0,0.0,0.0,0.0,0.0,0.0,0.0,0.0,0.0,0.0,0.0,0.0,0.0,0.0,0.0,0.0,0.0,0.0,0.0,0.0,0.0,0.0,0.0,0.0,0.0,0.0,0.0,0.0,0.0,0.0,0.0,0.0,0.0,0.0,0.0,0.0,0.0,0.0,0.0,0.0,0.0,0.0,0.0,0.0,0.0,0.0,0.0,0.0,0.0,0.0,0.0,0.0,0.0,0.0,0.0,0.0,0.0,0.0,0.0,0.0,0.0,0.0,0.0,0.0,0.0,0.0,0.0,0.0,0.0,0.0,0.0,0.0,0.0,0.0,0.0,0.0,0.0,0.0,0.0,0.0,0.0,0.0,0.0,0.0,0.0,0.0,0.0,0.0,0.0,0.0,0.0,0.0,0.0,0.0,0.0,0.0,0.0,0.0,0.0,0.0,0.0,0.0,0.0,0.0,0.0,0.0,0.0,0.0,0.0,0.0,0.0,0.0,0.0,0.0,0.0,0.0,0.0,0.0,0.0,0.0,0.0,0.0,0.0,0.0,0.0,0.0,0.0,0.0,0.0,0.0,0.0,0.0,0.0,0.0,0.0,0.0,0.0,0.0,0.0,0.0,0.0,0.0,0.0,0.0,0.0,0.0,0.0,0.0,0.0,0.0,0.0,0.0,0.0,0.0,0.0,0.0,0.0,0.0,0.0,0.0,0.0,0.0,0.0,0.0,0.0,0.0,0.0,0.0,0.0,0.0,0.0,0.0,0.0,0.0,0.0,0.0,0.0,0.0,0.0,0.0,0.0,0.0,0.0,0.0,0.0,0.0,0.0,0.0,0.0,0.0,0.0,0.0,0.0,0.0,0.0,0.0,0.0,0.0,0.0,0.0,0.0,0.0,0.0,0.0,0.0,0.0,0.0,0.0,0.0,0.0,0.0,0.0,0.0,0.0,0.0,0.0,0.0,0.0,0.0,0.0,0.0,0.0,0.0,0.0,0.0,0.0,0.0,0.0,0.0,0.0,0.0,0.0,0.0,0.0,0.0,0.0,0.0,0.0,0.0,0.0,0.0,0.0,0.0,0.0,0.0,0.0,0.0,0.0,0.0,0.0,0.0,0.0,0.0,0.0,0.0,0.0,0.0,0.0,0.0,0.0,0.0,0.0,0.0,0.0,0.0,0.0,0.0,0.0,0.0,0.0,0.0,0.0,0.0,0.0,0.0,0.0,0.0,0.0,0.0,0.0,0.0,0.0,0.0,0.0,0.0,0.0,0.0,0.0,0.0,0.0,0.0,0.0,0.0,0.0,0.0,0.0,0.0,0.0,0.0,0.0,0.0,0.0,0.0,0.0,0.0,0.0,0.0,0.0,0.0,0.0,0.0,0.0,0.0,0.0,0.0,0.0,0.0,0.0,0.0,0.0,0.0,0.0,0.0,0.0,0.0,0.0,0.0,0.0,0.0,0.0,0.0,0.0,0.0,0.0,0.0,0.0,0.0,0.0,0.0,0.0,0.0,0.0,0.0,0.0,0.0,0.0,0.0,0.0,0.0,0.0,0.0,0.0,0.0,0.0,0.0,0.0,0.0,0.0,0.0,0.0,0.0,0.0,0.0,0.0,0.0,0.0,0.0,0.0,0.0,0.0,0.0,0.0,0.0,0.0,0.0,0.0,0.0,0.0,0.0,0.0,0.0,0.0,0.0,0.0,0.0,0.0,0.0,0.0,0.0,0.0,0.0,0.0,0.0,0.0,0.0,0.0,0.0,0.0,0.0,0.0,0.0,0.0,0.0,0.0,0.0,0.0,0.0,0.0,0.0,0.0,0.0,0.0,0.0,0.0,0.0,0.0,0.0,0.0,0.0,0.0,0.0,0.0,0.0,0.0,0.0,0.0,0.0,0.0,0.0,0.0,0.0,0.0,0.0,0.0,0.0,0.0,0.0,0.0,0.0,0.0,0.0,0.0,0.0,0.0,0.0,0.0,0.0,0.0,0.0,0.0,0.0,0.0,0.0,0.0,0.0,0.0,0.0,0.0,0.0,0.0,0.0,0.0,0.0,0.0,0.0,0.0,0.0,0.0,0.0,0.0,0.0,1.7637,0.0,0.0,0.0,0.0,0.0,0.0,0.0,0.0,0.0,0.0,0.0,0.0,0.0,0.0,0.0,0.0,0.0,0.0,0.0,0.0,0.0,0.0,0.0,0.0,0.0,0.0,0.0,0.0,0.0,0.0,0.0,0.0,0.0,0.0,0.0,0.0,0.0,0.0,0.0,0.0,0.0,0.0,0.0,0.0,0.0,0.0,0.0,0.0,0.0,0.0,0.0,0.0,0.0,0.0,0.0,0.0,0.0,0.0,0.0,0.0,0.0,0.0,0.0,0.0,0.0,0.0,0.0,0.0,0.0,0.0,0.0,0.0,0.0,0.0,0.0,0.0,0.0,0.0,0.0,0.0,0.0,0.0,0.0,0.0,0.0,0.0,0.0,0.0,0.0,0.0,0.0,0.0,0.0,0.0,0.0,0.0,0.0,0.0,0.0,0.0,0.0,0.0,0.0,0.0,0.0,0.0,0.0,0.0,0.0,0.0,1.8429,1.7983,1.837,1.8405,1.7969,0.0,0.0,0.0,0.0,0.0,0.0,0.0,0.0,0.0,0.0,0.0,0.0,0.0,0.0,0.0,0.0,0.0,0.0,0.0,0.0,0.0,0.0,0.0,0.0,0.0,0.0,0.0,0.0,0.0,0.0,0.0,0.0,0.0,0.0,0.0,0.0,0.0,0.0,0.0,0.0,0.0,0.0,0.0,0.0,0.0,0.0,0.0,0.0,0.0,0.0,0.0,0.0,0.0,0.0,0.0,0.0,0.0,0.0,0.0,0.0,0.0,0.0,0.0,0.0,0.0,0.0,0.0,0.0,0.0,0.0,0.0,0.0,0.0,0.0,0.0,0.0,0.0,0.0,0.0,0.0,0.0,0.0,0.0,0.0,0.0,0.0,0.0,0.0,0.0,0.0,0.0,0.0,0.0,0.0,0.0,0.0,0.0,0.0,0.0,0.0,0.0,0.0,0.0,0.0,0.0,0.0,0.0,0.0,0.0,0.0,0.0,0.0,1.909,1.9029,1.8214,0.0,0.0,0.0,0.0,0.0,0.0,0.0,0.0,0.0,0.0,0.0,0.0,0.0,0.0,0.0,0.0,0.0,0.0,0.0,0.0,0.0,0.0,0.0,0.0,0.0,0.0,0.0,0.0,0.0,0.0,0.0,0.0,0.0,0.0,0.0,0.0,0.0,0.0,0.0,0.0,0.0,0.0,0.0,0.0,0.0,0.0,0.0,0.0,0.0,0.0,0.0,0.0,0.0,0.0,0.0,0.0,0.0,0.0,0.0,0.0,0.0,0.0,0.0,0.0,0.0,0.0,0.0,0.0,0.0,0.0,0.0,0.0,0.0,0.0,0.0,0.0,0.0,0.0,0.0,0.0,0.0,0.0,0.0,0.0,0.0,0.0,0.0,0.0,0.0,0.0,0.0,0.0,0.0,0.0,0.0,0.0,0.0,0.0,0.0,0.0,0.0,0.0,0.0,0.0,0.0,0.0,0.0,0.0,0.0,0.0,2.0427,2.0369,2.0346,0.0,1.9072,0.0,0.0,0.0,0.0,0.0,0.0,0.0,0.0,0.0,0.0,0.0,0.0,0.0,0.0,0.0,0.0,0.0,0.0,0.0,0.0,0.0,0.0,0.0,0.0,0.0,0.0,0.0,0.0,0.0,0.0,0.0,0.0,0.0,0.0,0.0,0.0,0.0,0.0,0.0,0.0,0.0,0.0,0.0,0.0,0.0,0.0,0.0,0.0,0.0,0.0,0.0,0.0,0.0,0.0,0.0,0.0,0.0,0.0,0.0,0.0,0.0,0.0,0.0,0.0,0.0,0.0,0.0,0.0,0.0,0.0,0.0,0.0,0.0,0.0,0.0,0.0,0.0,0.0,0.0,0.0,0.0,0.0,0.0,0.0,0.0,0.0,0.0,0.0,0.0,0.0,0.0,0.0,0.0,0.0,0.0,0.0,0.0,0.0,0.0,0.0,0.0,0.0,0.0,0.0,0.0,0.0,0.0,0.0,0.0,0.0,2.0408,2.0427,2.0389,2.0207,0.0,0.0,0.0,0.0,0.0,0.0,0.0,0.0,0.0,0.0,0.0,0.0,0.0,0.0,0.0,0.0,0.0,0.0,0.0,0.0,0.0,0.0,0.0,0.0,0.0,0.0,0.0,0.0,0.0,0.0,0.0,0.0,0.0,0.0,0.0,0.0,0.0,0.0,0.0,0.0,0.0,0.0,0.0,0.0,0.0,0.0,0.0,0.0,0.0,0.0,0.0,0.0,0.0,0.0,0.0,0.0,0.0,0.0,0.0,0.0,0.0,0.0,0.0,0.0,0.0,0.0,0.0,0.0,0.0,0.0,0.0,0.0,0.0,0.0,0.0,0.0,0.0,0.0,0.0,0.0,0.0,0.0,0.0,0.0,0.0,0.0,0.0,0.0,0.0,0.0,0.0,0.0,0.0,0.0,0.0,0.0,0.0,0.0,0.0,0.0,0.0,0.0,0.0,0.0,0.0,0.0,0.0,0.0,0.0,0.0,2.0366,2.0331,2.0292,2.0292,2.0292,2.0292,0.0,0.0,0.0,0.0,0.0,0.0,0.0,0.0,0.0,0.0,0.0,0.0,0.0,0.0,0.0,0.0,0.0,0.0,0.0,0.0,0.0,0.0,0.0,0.0,0.0,0.0,0.0,0.0,0.0,0.0,0.0,0.0,0.0,0.0,0.0,0.0,0.0,0.0,0.0,0.0,0.0,0.0,0.0,0.0,0.0,0.0,0.0,0.0,0.0,0.0,0.0,0.0,0.0,0.0,0.0,0.0,0.0,0.0,0.0,0.0,0.0,0.0,0.0,0.0,0.0,0.0,0.0,0.0,0.0,0.0,0.0,0.0,0.0,0.0,0.0,0.0,0.0,0.0,0.0,0.0,0.0,0.0,0.0,0.0,0.0,0.0,0.0,0.0,0.0,0.0,0.0,0.0,0.0,0.0,0.0,0.0,0.0,0.0,0.0,0.0,0.0,0.0,0.0,0.0,0.0,0.0,0.0,0.0,2.0385,2.0396,2.035,2.0292,2.0292,2.0292,0.0,0.0,0.0,0.0,0.0,0.0,0.0,0.0,0.0,0.0,0.0,0.0,0.0,0.0,0.0,0.0,0.0,0.0,0.0,0.0,0.0,0.0,0.0,0.0,0.0,0.0,0.0,0.0,0.0,0.0,0.0,0.0,0.0,0.0,0.0,0.0,0.0,0.0,0.0,0.0,0.0,0.0,0.0,0.0,0.0,0.0,0.0,0.0,0.0,0.0,0.0,0.0,0.0,0.0,0.0,0.0,0.0,0.0,0.0,0.0,0.0,0.0,0.0,0.0,0.0,0.0,0.0,0.0,0.0,0.0,0.0,0.0,0.0,0.0,0.0,0.0,0.0,0.0,0.0,0.0,0.0,0.0,0.0,0.0,0.0,0.0,0.0,0.0,0.0,0.0,0.0,0.0,0.0,0.0,0.0,0.0,0.0,0.0,0.0,0.0,0.0,0.0,0.0,0.0,0.0,0.0,0.0,0.0,0.0,2.035,2.0331,2.0331,2.0292,2.0292,2.0292,0.0,0.0,0.0,0.0,0.0,0.0,0.0,0.0,0.0,0.0,0.0,0.0,0.0,0.0,0.0,0.0,0.0,0.0,0.0,0.0,0.0,0.0,0.0,0.0,0.0,0.0,0.0,0.0,0.0,0.0,0.0,0.0,0.0,0.0,0.0,0.0,0.0,0.0,0.0,0.0,0.0,0.0,0.0,0.0,0.0,0.0,0.0,0.0,0.0,0.0,0.0,0.0,0.0,0.0,0.0,0.0,0.0,0.0,0.0,0.0,0.0,0.0,0.0,0.0,0.0,0.0,0.0,0.0,0.0,0.0,0.0,0.0,0.0,0.0,0.0,0.0,0.0,0.0,0.0,0.0,0.0,0.0,0.0,0.0,0.0,0.0,0.0,0.0,0.0,0.0,0.0,0.0,0.0,0.0,0.0,0.0,0.0,0.0,0.0,0.0,0.0,0.0,0.0,0.0,0.0,0.0,0.0,0.0,0.0,2.1128,0.0,2.1155,2.1128,2.1136,2.102,0.0,0.0,0.0,0.0,0.0,0.0,0.0,0.0,0.0,0.0,0.0,0.0,0.0,0.0,0.0,0.0,0.0,0.0,0.0,0.0,0.0,0.0,0.0,0.0,0.0,0.0,0.0,0.0,0.0,0.0,0.0,0.0,0.0,0.0,0.0,0.0,0.0,0.0,0.0,0.0,0.0,0.0,0.0,0.0,0.0,0.0,0.0,0.0,0.0,0.0,0.0,0.0,0.0,0.0,0.0,0.0,0.0,0.0,0.0,0.0,0.0,0.0,0.0,0.0,0.0,0.0,0.0,0.0,0.0,0.0,0.0,0.0,0.0,0.0,0.0,0.0,0.0,0.0,0.0,0.0,0.0,0.0,0.0,0.0,0.0,0.0,0.0,0.0,0.0,0.0,0.0,0.0,0.0,0.0,0.0,0.0,0.0,0.0,0.0,0.0,0.0,0.0,0.0,0.0,0.0,0.0,0.0,0.0,2.2062,2.2838,2.2917,2.284,2.2885,2.2813,2.2439,0.0,0.0,0.0,0.0,0.0,0.0,0.0,0.0,0.0,0.0,0.0,0.0,0.0,0.0,0.0,0.0,0.0,0.0,0.0,0.0,0.0,0.0,0.0,0.0,0.0,0.0,0.0,0.0,0.0,0.0,0.0,0.0,0.0,0.0,0.0,0.0,0.0,0.0,0.0,0.0,0.0,0.0,0.0,0.0,0.0,0.0,0.0,0.0,0.0,0.0,0.0,0.0,0.0,0.0,0.0,0.0,0.0,0.0,0.0,0.0,0.0,0.0,0.0,0.0,0.0,0.0,0.0,0.0,0.0,0.0,0.0,0.0,0.0,0.0,0.0,0.0,0.0,0.0,0.0,0.0,0.0,0.0,0.0,0.0,0.0,0.0,0.0,0.0,0.0,0.0,0.0,0.0,0.0,0.0,0.0,0.0,0.0,0.0,0.0,0.0,0.0,0.0,0.0,0.0,0.0,0.0,0.0,0.0,0.0,2.2993,2.2984,2.2982,2.2901,2.289,2.2747,0.0,0.0,0.0,0.0,0.0,0.0,0.0,0.0,0.0,0.0,0.0,0.0,0.0,0.0,0.0,0.0,0.0,0.0,0.0,0.0,0.0,0.0,0.0,0.0,0.0,0.0,0.0,0.0,0.0,0.0,0.0,0.0,0.0,0.0,0.0,0.0,0.0,0.0,0.0,0.0,0.0,0.0,0.0,0.0,0.0,0.0,0.0,0.0,0.0,0.0,0.0,0.0,0.0,0.0,0.0,0.0,0.0,0.0,0.0,0.0,0.0,0.0,0.0,0.0,0.0,0.0,0.0,0.0,0.0,0.0,0.0,0.0,0.0,0.0,0.0,0.0,0.0,0.0,0.0,0.0,0.0,0.0,0.0,0.0,0.0,0.0,0.0,0.0,0.0,0.0,0.0,0.0,0.0,0.0,0.0,0.0,0.0,0.0,0.0,0.0,0.0,0.0,0.0,0.0,0.0,0.0,0.0,0.0,0.0,2.4487,2.4451,2.4411,2.4324,2.4315,2.4011,2.3321,0.0,0.0,0.0,0.0,0.0,0.0,0.0,0.0,0.0,0.0,0.0,0.0,0.0,0.0,0.0,0.0,0.0,0.0,0.0,0.0,0.0,0.0,0.0,0.0,0.0,0.0,0.0,0.0,0.0,0.0,0.0,0.0,0.0,0.0,0.0,0.0,0.0,0.0,0.0,0.0,0.0,0.0,0.0,0.0,0.0,0.0,0.0,0.0,0.0,0.0,0.0,0.0,0.0,0.0,0.0,0.0,0.0,0.0,0.0,0.0,0.0,0.0,0.0,0.0,0.0,0.0,0.0,0.0,0.0,0.0,0.0,0.0,0.0,0.0,0.0,0.0,0.0,0.0,0.0,0.0,0.0,0.0,0.0,0.0,0.0,0.0,0.0,0.0,0.0,0.0,0.0,0.0,0.0,0.0,0.0,0.0,0.0,0.0,0.0,0.0,0.0,0.0,0.0,0.0,0.0,0.0,0.0,0.0,2.6864,2.6969,2.6929,2.6734,2.6679,2.5938,0.0,0.0,0.0,0.0,0.0,0.0,0.0,0.0,0.0,0.0,0.0,0.0,0.0,0.0,0.0,0.0,0.0,0.0,0.0,0.0,0.0,0.0,0.0,0.0,0.0,0.0,0.0,0.0,0.0,0.0,0.0,0.0,0.0,0.0,0.0,0.0,0.0,0.0,0.0,0.0,0.0,0.0,0.0,0.0,0.0,0.0,0.0,0.0,0.0,0.0,0.0,0.0,0.0,0.0,0.0,0.0,0.0,0.0,0.0,0.0,0.0,0.0,0.0,0.0,0.0,0.0,0.0,0.0,0.0,0.0,0.0,0.0,0.0,0.0,0.0,0.0,0.0,0.0,0.0,0.0,0.0,0.0,0.0,0.0,0.0,0.0,0.0,0.0,0.0,0.0,0.0,0.0,0.0,0.0,0.0,0.0,0.0,0.0,0.0,0.0,0.0,0.0,0.0,0.0,0.0,0.0,0.0,0.0,0.0,2.7682,2.8272,2.8295,2.7676,2.7035,2.6468,0.0,0.0,0.0,0.0,0.0,0.0,0.0,0.0,0.0,0.0,0.0,0.0,0.0,0.0,0.0,0.0,0.0,0.0,0.0,0.0,0.0,0.0,0.0,0.0,0.0,0.0,0.0,0.0,0.0,0.0,0.0,0.0,0.0,0.0,0.0,0.0,0.0,0.0,0.0,0.0,0.0,0.0,0.0,0.0,0.0,0.0,0.0,0.0,0.0,0.0,0.0,0.0,0.0,0.0,0.0,0.0,0.0,0.0,0.0,0.0,0.0,0.0,0.0,0.0,0.0,0.0,0.0,0.0,0.0,0.0,0.0,0.0,0.0,0.0,0.0,0.0,0.0,0.0,0.0,0.0,0.0,0.0,0.0,0.0,0.0,0.0,0.0,0.0,0.0,0.0,0.0,0.0,0.0,0.0,0.0,0.0,0.0,0.0,0.0,0.0,0.0,0.0,0.0,0.0,0.0,0.0,0.0,0.0,2.7508,2.7945,2.9118,2.9483,2.9002,2.7841,2.7014,0.0,0.0,0.0,0.0,0.0,0.0,0.0,0.0,0.0,0.0,0.0,0.0,0.0,0.0,0.0,0.0,0.0,0.0,0.0,0.0,0.0,0.0,0.0,0.0,0.0,0.0,0.0,0.0,0.0,0.0,0.0,0.0,0.0,0.0,0.0,0.0,0.0,0.0,0.0,0.0,0.0,0.0,0.0,0.0,0.0,0.0,0.0,0.0,0.0,0.0,0.0,0.0,0.0,0.0,0.0,0.0,0.0,0.0,0.0,0.0,0.0,0.0,0.0,0.0,0.0,0.0,0.0,0.0,0.0,0.0,0.0,0.0,0.0,0.0,0.0,0.0,0.0,0.0,0.0,0.0,0.0,0.0,0.0,0.0,0.0,0.0,0.0,0.0,0.0,0.0,0.0,0.0,0.0,0.0,0.0,0.0,0.0,0.0,0.0,0.0,0.0,0.0,0.0,0.0,0.0,0.0,0.0,0.0,2.8005,2.8025,2.9583,3.0398,3.034,2.8775,2.7535,0.0,0.0,0.0,0.0,0.0,0.0,0.0,0.0,0.0,0.0,0.0,0.0,0.0,0.0,0.0,0.0,0.0,0.0,0.0,0.0,0.0,0.0,0.0,0.0,0.0,0.0,0.0,0.0,0.0,0.0,0.0,0.0,0.0,0.0,0.0,0.0,0.0,0.0,0.0,0.0,0.0,0.0,0.0,0.0,0.0,0.0,0.0,0.0,0.0,0.0,0.0,0.0,0.0,0.0,0.0,0.0,0.0,0.0,0.0,0.0,0.0,0.0,0.0,0.0,0.0,0.0,0.0,0.0,0.0,0.0,0.0,0.0,0.0,0.0,0.0,0.0,0.0,0.0,0.0,0.0,0.0,0.0,0.0,0.0,0.0,0.0,0.0,0.0,0.0,0.0,0.0,0.0,0.0,0.0,0.0,0.0,0.0,0.0,0.0,0.0,0.0,0.0,0.0,0.0,0.0,0.0,0.0,0.0,2.8228,2.8832,2.9871,3.0398,3.0398,2.8775,2.7823,0.0,0.0,0.0,0.0,0.0,0.0,0.0,0.0,0.0,0.0,0.0,0.0,0.0,0.0,0.0,0.0,0.0,0.0,0.0,0.0,0.0,0.0,0.0,0.0,0.0,0.0,0.0,0.0,0.0,0.0,0.0,0.0,0.0,0.0,0.0,0.0,0.0,0.0,0.0,0.0,0.0,0.0,0.0,0.0,0.0,0.0,0.0,0.0,2.1523,0.0,0.0,0.0,0.0,0.0,0.0,0.0,0.0,0.0,0.0,0.0,0.0,0.0,0.0,0.0,0.0,0.0,0.0,0.0,0.0,0.0,0.0,0.0,0.0,0.0,0.0,0.0,0.0,0.0,0.0,0.0,0.0,0.0,0.0,0.0,0.0,0.0,0.0,0.0,0.0,0.0,0.0,0.0,0.0,0.0,0.0,0.0,0.0,0.0,0.0,0.0,0.0,0.0,0.0,0.0,0.0,0.0,0.0,0.0,2.8483,2.966,3.0167,3.059,3.0917,2.9344,2.8276,0.0,0.0,0.0,0.0,0.0,0.0,0.0,0.0,0.0,0.0,0.0,0.0,0.0,0.0,0.0,0.0,0.0,0.0,0.0,0.0,0.0,0.0,0.0,0.0,0.0,0.0,0.0,0.0,0.0,0.0,0.0,0.0,0.0,0.0,0.0,0.0,0.0,0.0,0.0,0.0,0.0,0.0,0.0,0.0,0.0,0.0,0.0,0.0,0.0,0.0,0.0,0.0,0.0,0.0,0.0,0.0,0.0,0.0,0.0,0.0,0.0,0.0,0.0,0.0,0.0,0.0,0.0,0.0,0.0,0.0,0.0,0.0,0.0,0.0,0.0,0.0,0.0,0.0,0.0,0.0,0.0,0.0,0.0,0.0,0.0,0.0,0.0,0.0,0.0,0.0,0.0,0.0,0.0,0.0,0.0,0.0,0.0,0.0,0.0,0.0,0.0,0.0,0.0,0.0,0.0,0.0,0.0,2.7835,2.9044,3.0513,3.0737,3.1102,3.166,3.0136,2.8856,2.7918,0.0,0.0,0.0,0.0,0.0,0.0,0.0,0.0,0.0,0.0,0.0,0.0,0.0,0.0,0.0,0.0,0.0,0.0,0.0,0.0,0.0,0.0,0.0,0.0,0.0,0.0,0.0,0.0,0.0,0.0,0.0,0.0,0.0,0.0,0.0,0.0,0.0,0.0,2.0781,2.0703,0.0,0.0,0.0,0.0,0.0,0.0,0.0,0.0,2.1758,0.0,0.0,0.0,0.0,0.0,0.0,0.0,0.0,0.0,0.0,0.0,0.0,0.0,0.0,0.0,0.0,0.0,0.0,0.0,0.0,0.0,0.0,0.0,0.0,0.0,0.0,0.0,0.0,0.0,0.0,0.0,0.0,0.0,0.0,0.0,0.0,0.0,0.0,0.0,0.0,0.0,0.0,0.0,0.0,0.0,0.0,0.0,0.0,0.0,0.0,0.0,0.0,0.0,0.0,0.0,0.0,2.8679,2.9555,3.0484,3.1468,3.216,3.2237,3.1698,3.0725,2.9452,2.7977,0.0,0.0,0.0,0.0,0.0,0.0,0.0,0.0,0.0,0.0,0.0,0.0,0.0,0.0,0.0,0.0,0.0,0.0,0.0,0.0,0.0,0.0,0.0,0.0,0.0,0.0,0.0,0.0,0.0,0.0,0.0,0.0,0.0,0.0,0.0,0.0,0.0,0.0,0.0,2.1074,2.0918,0.0,0.0,0.0,0.0,0.0,0.0,0.0,0.0,2.4082,0.0,0.0,0.0,0.0,0.0,0.0,0.0,0.0,0.0,0.0,0.0,0.0,0.0,0.0,0.0,0.0,0.0,0.0,0.0,0.0,0.0,0.0,0.0,0.0,0.0,0.0,0.0,0.0,0.0,0.0,0.0,0.0,0.0,0.0,0.0,0.0,0.0,0.0,0.0,0.0,0.0,0.0,0.0,0.0,0.0,0.0,0.0,0.0,0.0,0.0,0.0,0.0,0.0,0.0,0.0,2.9737,3.0643,3.17,3.2929,3.2949,3.2929,3.2968,3.1749,3.0479,0.0,0.0,0.0,0.0,0.0,0.0,0.0,0.0,0.0,0.0,0.0,0.0,0.0,0.0,0.0,0.0,0.0,0.0,0.0,0.0,0.0,0.0,0.0,0.0,0.0,0.0,0.0,0.0,0.0,0.0,0.0,0.0,0.0,0.0,0.0,0.0,0.0,0.0,0.0,0.0,2.2187,2.2363,2.3691,0.0,0.0,0.0,0.0,0.0,0.0,2.4668,2.4551,0.0,0.0,0.0,0.0,0.0,0.0,0.0,0.0,0.0,0.0,0.0,0.0,0.0,0.0,0.0,0.0,0.0,0.0,0.0,0.0,0.0,0.0,0.0,0.0,0.0,0.0,0.0,0.0,0.0,0.0,0.0,0.0,0.0,0.0,0.0,0.0,0.0,0.0,0.0,0.0,0.0,0.0,0.0,0.0,0.0,0.0,0.0,0.0,0.0,0.0,0.0,0.0,0.0,0.0,0.0,3.0648,3.1693,3.2846,3.4103,3.3699,3.368,3.4141,3.2576,3.128,0.0,0.0,0.0,0.0,0.0,0.0,0.0,0.0,0.0,0.0,0.0,0.0,0.0,0.0,0.0,0.0,0.0,0.0,0.0,0.0,0.0,0.0,0.0,0.0,0.0,0.0,0.0,0.0,0.0,0.0,0.0,0.0,0.0,0.0,0.0,0.0,0.0,0.0,0.0,0.0,0.0,2.3926,2.5469,2.4961,0.0,0.0,0.0,0.0,2.5176,2.5332,0.0,0.0,0.0,0.0,0.0,0.0,0.0,0.0,0.0,0.0,0.0,0.0,0.0,0.0,0.0,0.0,0.0,0.0,0.0,0.0,0.0,0.0,0.0,0.0,0.0,0.0,0.0,0.0,0.0,0.0,0.0,0.0,0.0,0.0,0.0,0.0,0.0,0.0,0.0,0.0,0.0,0.0,0.0,0.0,0.0,0.0,0.0,0.0,0.0,0.0,0.0,0.0,0.0,0.0,0.0,0.0,3.1564,3.3115,3.4019,3.4218,3.4872,3.4891,3.4199,3.2564,3.1296,0.0,0.0,0.0,0.0,0.0,0.0,0.0,0.0,0.0,0.0,0.0,0.0,0.0,0.0,0.0,0.0,0.0,0.0,0.0,0.0,0.0,0.0,0.0,0.0,0.0,0.0,0.0,0.0,0.0,0.0,0.0,0.0,0.0,0.0,0.0,0.0,0.0,0.0,0.0,0.0,0.0,2.4609,2.5566,2.4941,2.4687,0.0,0.0,2.6953,2.7734,2.8496,0.0,0.0,0.0,0.0,0.0,0.0,0.0,0.0,0.0,0.0,0.0,0.0,0.0,0.0,0.0,0.0,0.0,0.0,0.0,0.0,0.0,0.0,0.0,0.0,0.0,0.0,0.0,0.0,0.0,0.0,0.0,0.0,0.0,0.0,0.0,0.0,0.0,0.0,0.0,0.0,0.0,0.0,0.0,0.0,0.0,0.0,0.0,0.0,0.0,0.0,0.0,0.0,0.0,0.0,0.0,3.2006,3.2429,3.407,3.4936,3.4949,3.5315,3.5334,3.4949,3.3275,3.2199,0.0,0.0,0.0,0.0,0.0,0.0,0.0,0.0,0.0,0.0,0.0,0.0,0.0,0.0,0.0,0.0,0.0,0.0,0.0,0.0,0.0,0.0,0.0,0.0,0.0,0.0,0.0,0.0,0.0,0.0,0.0,0.0,0.0,0.0,0.0,0.0,0.0,0.0,0.0,0.0,0.0,0.0,2.7051,2.6836,0.0,0.0,0.0,2.7715,2.7578,0.0,0.0,0.0,0.0,0.0,0.0,0.0,0.0,0.0,0.0,0.0,0.0,0.0,0.0,0.0,0.0,0.0,0.0,0.0,0.0,0.0,0.0,0.0,0.0,0.0,0.0,0.0,0.0,0.0,0.0,0.0,0.0,0.0,0.0,0.0,0.0,0.0,0.0,0.0,0.0,0.0,0.0,0.0,0.0,0.0,0.0,0.0,0.0,0.0,0.0,0.0,0.0,0.0,0.0,0.0,0.0,0.0,3.2929,3.4622,3.5507,3.5507,3.5507,3.5507,3.5468,3.4032,0.0,0.0,0.0,0.0,0.0,0.0,0.0,0.0,0.0,0.0,0.0,0.0,0.0,0.0,0.0,0.0,0.0,0.0,0.0,0.0,0.0,0.0,0.0,0.0,0.0,0.0,0.0,2.1738,0.0,0.0,0.0,0.0,0.0,0.0,0.0,0.0,0.0,0.0,0.0,0.0,0.0,0.0,2.7559,2.8223,2.8281,2.8379,0.0,0.0,2.8144,2.7734,2.8926,2.9316,0.0,0.0,0.0,0.0,0.0,0.0,0.0,0.0,0.0,0.0,0.0,0.0,0.0,0.0,0.0,0.0,0.0,0.0,0.0,0.0,0.0,0.0,0.0,0.0,0.0,0.0,0.0,0.0,0.0,0.0,0.0,0.0,0.0,0.0,0.0,0.0,0.0,0.0,0.0,0.0,0.0,0.0,0.0,0.0,0.0,0.0,0.0,0.0,0.0,0.0,0.0,0.0,0.0,0.0,3.2891,3.2949,3.4622,3.5507,3.5507,3.5507,3.5507,3.5488,3.4603,3.3718,0.0,0.0,0.0,0.0,0.0,0.0,0.0,0.0,0.0,0.0,0.0,0.0,0.0,0.0,0.0,0.0,0.0,0.0,0.0,0.0,0.0,0.0,0.0,0.0,0.0,0.0,0.0,0.0,0.0,0.0,0.0,0.0,0.0,0.0,0.0,0.0,0.0,0.0,0.0,0.0,0.0,2.8242,2.8281,2.8281,2.8594,0.0,2.8828,2.8555,2.9297,3.0195,3.0234,2.8496,0.0,0.0,0.0,0.0,0.0,0.0,0.0,0.0,0.0,0.0,0.0,0.0,0.0,0.0,0.0,0.0,0.0,0.0,0.0,0.0,0.0,0.0,0.0,0.0,0.0,0.0,0.0,0.0,0.0,0.0,0.0,0.0,0.0,0.0,0.0,0.0,0.0,0.0,0.0,0.0,0.0,0.0,0.0,0.0,0.0,0.0,0.0,0.0,0.0,0.0,0.0,0.0,0.0,3.2891,3.2929,3.4622,3.5507,3.5507,3.5507,3.5507,3.5507,3.4661,3.3782,0.0,0.0,0.0,0.0,0.0,0.0,0.0,0.0,0.0,0.0,0.0,0.0,0.0,0.0,0.0,0.0,0.0,0.0,0.0,0.0,0.0,0.0,0.0,0.0,0.0,0.0,0.0,0.0,2.582,2.5996,2.5996,0.0,0.0,0.0,0.0,0.0,0.0,0.0,0.0,0.0,0.0,2.8496,2.9023,2.9101,0.0,0.0,2.9316,2.9023,2.8809,2.9531,2.9512,2.7793,2.75,0.0,0.0,0.0,0.0,0.0,0.0,0.0,0.0,0.0,0.0,0.0,0.0,0.0,0.0,0.0,0.0,0.0,0.0,0.0,0.0,0.0,0.0,0.0,0.0,0.0,0.0,0.0,0.0,0.0,0.0,0.0,0.0,0.0,0.0,0.0,0.0,0.0,0.0,0.0,0.0,0.0,0.0,0.0,0.0,0.0,0.0,0.0,0.0,0.0,0.0,0.0,0.0,3.2891,3.291,3.4622,3.5507,3.5507,3.5507,3.5507,3.5488,3.4911,3.4172,0.0,0.0,0.0,0.0,0.0,0.0,0.0,0.0,0.0,0.0,0.0,0.0,0.0,0.0,0.0,0.0,0.0,0.0,0.0,0.0,0.0,0.0,0.0,0.0,0.0,0.0,0.0,0.0,2.6836,2.7012,2.7012,0.0,0.0,0.0,0.0,0.0,0.0,0.0,0.0,0.0,0.0,2.8809,2.916,2.9434,2.9512,2.9258,2.9434,2.9394,2.8769,2.9434,2.9568,2.831,0.0,0.0,0.0,0.0,0.0,0.0,0.0,0.0,0.0,0.0,0.0,0.0,0.0,0.0,0.0,0.0,0.0,0.0,0.0,0.0,0.0,0.0,0.0,0.0,0.0,0.0,0.0,2.7901,0.0,0.0,2.7794,0.0,0.0,0.0,0.0,0.0,0.0,0.0,0.0,0.0,0.0,0.0,0.0,0.0,0.0,0.0,0.0,0.0,0.0,0.0,0.0,0.0,0.0,3.2904,3.2929,3.4622,3.5507,3.5507,3.5507,3.5507,3.5507,3.5468,3.5051,3.4178,0.0,0.0,0.0,0.0,0.0,0.0,0.0,0.0,0.0,0.0,0.0,0.0,0.0,0.0,0.0,0.0,0.0,0.0,0.0,0.0,0.0,0.0,0.0,0.0,0.0,0.0,2.5859,2.6504,2.6992,0.0,0.0,0.0,0.0,0.0,0.0,0.0,0.0,0.0,2.7012,2.8476,2.9238,2.8496,2.9062,2.9336,2.8555,2.9121,2.9609,2.957,3.0273,3.0827,0.0,0.0,0.0,0.0,0.0,0.0,0.0,0.0,0.0,0.0,0.0,0.0,0.0,0.0,0.0,0.0,0.0,0.0,0.0,0.0,0.0,0.0,0.0,0.0,0.0,0.0,0.0,3.0102,2.9583,0.0,0.0,0.0,0.0,0.0,0.0,0.0,0.0,0.0,0.0,0.0,3.2102,3.2122,0.0,0.0,0.0,0.0,0.0,0.0,0.0,0.0,0.0,0.0,0.0,0.0,3.2904,3.2987,3.4622,3.5507,3.5507,3.5507,3.5507,3.5507,3.5507,3.5089,3.4205,0.0,0.0,0.0,0.0,0.0,0.0,0.0,0.0,0.0,0.0,0.0,0.0,0.0,0.0,0.0,0.0,0.0,0.0,0.0,0.0,0.0,0.0,0.0,0.0,0.0,2.6875,0.0,0.0,0.0,0.0,0.0,0.0,0.0,0.0,0.0,0.0,2.6816,2.7207,2.7793,2.7871,2.8184,2.9043,2.9414,2.9902,0.0,0.0,0.0,0.0,0.0,0.0,0.0,0.0,0.0,0.0,0.0,0.0,0.0,0.0,2.8601,2.8116,2.8494,2.8879,2.8839,0.0,0.0,0.0,0.0,0.0,0.0,0.0,0.0,0.0,0.0,0.0,0.0,0.0,0.0,3.1641,3.091,3.116,0.0,0.0,0.0,0.0,0.0,0.0,0.0,0.0,3.2756,3.3141,3.3353,3.3353,3.3353,0.0,3.3045,3.2372,0.0,0.0,0.0,0.0,0.0,0.0,0.0,0.0,3.2904,3.2987,3.4622,3.5507,3.5507,3.5507,3.5507,3.5507,3.5507,3.5238,3.4661,3.3819,3.3108,0.0,0.0,0.0,0.0,0.0,0.0,0.0,0.0,0.0,0.0,0.0,0.0,0.0,0.0,0.0,0.0,0.0,0.0,0.0,0.0,0.0,0.0,0.0,2.7129,0.0,0.0,0.0,0.0,0.0,0.0,0.0,0.0,0.0,2.7031,2.7285,2.7773,2.8633,2.8535,2.8672,2.9492,0.0,0.0,0.0,0.0,0.0,0.0,0.0,3.0373,2.9998,3.0186,3.0535,3.0981,3.1202,3.1352,3.1371,0.0,0.0,2.9944,3.0139,3.0521,3.0465,3.0471,3.0466,3.0421,3.0394,3.0394,0.0,0.0,0.0,0.0,3.1718,0.0,0.0,0.0,3.2949,3.2506,0.0,3.2583,0.0,0.0,0.0,0.0,3.18,3.2487,0.0,0.0,3.4603,3.5007,3.4276,3.4237,3.4237,3.4199,3.341,3.3006,3.2987,3.2987,0.0,0.0,0.0,0.0,0.0,0.0,3.2904,3.3006,3.4641,3.5507,3.5507,3.5507,3.5507,3.5507,3.5507,3.5507,3.5468,3.4691,3.423,3.418,3.266,0.0,0.0,0.0,0.0,0.0,0.0,0.0,0.0,0.0,0.0,0.0,0.0,0.0,0.0,0.0,0.0,0.0,0.0,0.0,0.0,2.7031,0.0,0.0,0.0,0.0,0.0,0.0,0.0,0.0,0.0,2.8086,2.7344,2.7851,2.8652,2.9473,0.0,0.0,0.0,0.0,3.1269,2.8926,2.9902,3.0723,2.9961,3.1168,3.2422,3.3043,0.0,0.0,3.4268,3.3551,3.3006,3.3075,3.3665,3.3448,3.1052,3.0765,3.0745,3.0701,3.0809,3.0611,3.059,3.0912,3.0823,3.4705,0.0,0.0,0.0,0.0,3.2564,3.3045,3.3814,3.3833,3.368,3.3506,3.3718,0.0,0.0,0.0,0.0,0.0,0.0,3.3237,3.3846,3.4353,3.4776,3.5122,3.5141,3.5122,3.5122,3.4891,3.4757,3.4757,3.4757,3.3718,3.1725,0.0,0.0,0.0,0.0,3.3192,3.3853,3.493,3.5507,3.5507,3.5507,3.5507,3.5507,3.5507,3.5507,3.5488,3.5262,3.4839,3.4218,3.3737,0.0,0.0,0.0,0.0,0.0,0.0,0.0,0.0,0.0,0.0,0.0,0.0,0.0,0.0,0.0,0.0,0.0,0.0,0.0,2.7012,2.7559,2.7539,0.0,0.0,0.0,0.0,0.0,0.0,0.0,0.0,0.0,2.9824,2.9453,2.9297,0.0,0.0,2.918,2.9551,3.0566,3.1426,3.1875,3.2363,0.0,3.3184,3.3141,3.3111,3.3255,3.3865,3.4327,3.4236,3.4518,3.4762,3.4768,3.496,3.4859,3.4243,3.4038,3.3986,3.4032,3.4032,3.4051,3.4032,3.4032,3.3999,3.8041,3.6684,3.5172,3.4414,3.4261,3.4351,3.4891,3.5699,3.5718,3.5507,3.5218,3.5545,3.5045,3.393,3.3923,0.0,0.0,0.0,3.487,3.5718,3.5699,3.5988,3.6469,3.6507,3.6488,3.6507,3.6507,3.6507,3.6507,3.6142,3.5218,3.368,0.0,3.1987,3.2199,3.2987,3.3673,3.4199,3.5064,3.5507,3.5507,3.5507,3.5507,3.5507,3.5507,3.5507,3.5507,3.5507,3.5257,3.4737,3.4391,3.3737,0.0,0.0,0.0,0.0,0.0,0.0,0.0,0.0,0.0,0.0,0.0,2.7812,2.7285,0.0,0.0,0.0,2.8555,2.8535,2.8535,2.8711,0.0,0.0,0.0,0.0,0.0,0.0,0.0,2.9336,3.0547,3.1426,3.1406,3.123,3.1113,3.1113,3.0644,3.0508,3.1035,0.0,3.2656,3.332,3.3379,3.3574,3.4101,3.4036,3.3992,3.4221,3.4538,3.4757,3.4749,3.5166,3.5488,3.5507,3.5507,3.5507,3.5507,3.5507,3.5507,3.5507,3.5507,3.5507,3.5507,3.5507,3.5507,4.1332,4.0516,3.6996,3.5959,3.6593,3.6834,3.7386,3.818,3.8185,3.7704,3.6988,3.7738,3.7199,3.5718,3.5714,0.0,3.6813,3.6815,3.7209,3.8007,3.8007,3.8007,3.7988,3.7988,3.8007,3.7988,3.8007,3.8007,3.795,3.7199,3.6757,3.667,3.5155,3.3962,3.3192,3.3904,3.4334,3.441,3.5199,3.5603,3.5603,3.5532,3.5507,3.5507,3.5507,3.5507,3.5507,3.5507,3.5507,3.5468,3.4737,3.4276,3.416,0.0,0.0,0.0,0.0,0.0,0.0,0.0,0.0,0.0,0.0,0.0,0.0,0.0,0.0,0.0,3.0918,0.0,3.1016,3.0293,0.0,0.0,0.0,3.0039,3.0918,3.1055,3.1094,3.1113,0.0,0.0,3.2402,3.3047,3.3516,3.3594,3.3496,3.3379,3.3379,3.4062,3.4394,3.3652,3.3574,3.3613,3.3887,3.4363,3.4958,3.5451,3.5605,3.5463,3.5449,3.5488,3.5507,3.5507,3.5507,3.5507,3.5507,3.5507,3.5507,3.5507,3.5507,3.5507,3.5507,3.5507,3.5507,4.1724,4.0979,4.0288,3.9657,3.9108,3.8909,3.9261,3.9858,3.9637,3.9214,3.87,3.8911,3.8392,3.7411,3.7392,3.7502,3.7709,3.7685,3.7805,3.8001,3.7993,3.8007,3.8007,3.8007,3.8007,3.8007,3.8007,3.8007,3.7988,3.7796,3.7358,3.669,3.6301,3.5699,3.493,3.5084,3.5507,3.6103,3.6315,3.643,3.6392,3.5834,3.5507,3.5507,3.5507,3.5507,3.5507,3.5507,3.5507,3.5507,3.5301,3.4911,3.4218,3.3199,0.0,0.0,0.0,0.0,0.0,0.0,0.0,0.0,0.0,2.9316,2.8672,0.0,2.9687,0.0,3.1094,3.1894,3.1894,3.1699,0.0,0.0,3.0703,3.0937,3.1777,3.2441,3.2812,3.2812,3.3555,3.4101,3.4101,3.4277,3.4648,3.5254,3.4238,3.3379,3.3418,3.4141,3.4629,3.4473,3.4922,3.5371,3.5332,3.5482,3.5593,3.5706,3.563,3.5565,3.5507,3.5507,3.5507,3.5507,3.5507,3.5507,3.5507,3.5507,3.5507,3.5507,3.5507,3.5507,3.5507,3.5507,3.5507,4.3112,4.2708,4.2496,4.2187,4.175,4.1108,4.1148,4.1627,4.1452,4.1221,4.0969,4.0989,4.0719,4.0277,4.0258,4.0273,4.0269,4.0277,4.0265,4.0284,4.0281,4.0258,4.0258,4.0258,4.0065,3.97,3.9681,3.9508,3.9104,3.9123,3.8873,3.8396,3.8411,3.7969,3.7175,3.6084,3.5738,3.618,3.6526,3.6892,3.7238,3.6469,3.5872,3.5526,3.5128,3.4743,3.4353,3.4353,3.4334,3.4353,3.4353,3.4122,3.3641,3.2814,3.2179,0.0,0.0,0.0,0.0,0.0,0.0,0.0,0.0,0.0,0.0,0.0,3.1289,3.1309,3.2519,3.3144,3.2773,3.2734,3.2695,3.2598,3.2578,3.293,3.3809,3.4297,3.4551,3.4551,3.498,3.5273,3.5293,3.5273,3.543,3.5937,3.5176,3.4551,3.459,3.5,3.5273,3.5312,3.5684,3.6007,3.5953,3.5879,3.5767,3.5682,3.5603,3.5545,3.5507,3.5507,3.5507,3.5507,3.5507,3.5507,3.5507,3.5507,3.5507,3.5507,3.5507,3.5507,3.5507,3.5507,3.5507,4.4871,4.48,4.4103,4.3933,4.4065,4.3226,4.306,4.3361,4.3288,4.3284,4.3239,4.3143,4.3085,4.3085,4.3082,4.3096,4.3092,4.3102,4.3088,4.3088,4.3085,4.3085,4.3085,4.3085,4.2701,4.1989,4.197,4.1585,4.087,4.085,4.0758,4.0677,4.0546,4.01,3.923,3.7002,3.5801,3.5834,3.6526,3.7257,3.795,3.7046,3.6161,3.5353,3.4595,3.3788,3.2949,3.2904,3.2891,3.2891,3.2891,3.2929,3.3045,3.2295,3.1948,0.0,3.1311,0.0,0.0,0.0,0.0,0.0,0.0,0.0,0.0,3.3379,3.3457,3.3555,3.4258,3.4434,3.3789,3.373,3.4043,3.4766,3.4863,3.5176,3.5898,3.6016,3.6016,3.6016,3.6016,3.6016,3.5976,3.6016,3.6016,3.5996,3.5937,3.584,3.5957,3.5937,3.5918,3.6007,3.5972,3.5927,3.5899,3.5776,3.566,3.5599,3.5545,3.5507,3.5507,3.5507,3.5507,3.5507,3.5507,3.5507,3.5507,3.5507,3.5507,3.5507,3.5507,3.5507,3.5507,3.5507,3.5507,4.5663,4.5663,4.5499,4.525,4.4948,4.4752,4.47,4.4703,4.4421,4.4238,4.4028,4.3374,4.3085,4.3085,4.3085,4.3102,4.3102,4.3085,4.3107,4.3092,4.3088,4.3085,4.3085,4.3085,4.3008,4.2854,4.2874,4.2777,4.2604,4.2604,4.2255,4.154,4.085,4.0104,3.9281,0.0,0.0,0.0,3.768,3.7834,3.795,3.6507,3.5315,3.4468,3.4289,0.0,3.2949,3.2909,3.2909,3.2891,3.2891,0.0,0.0,0.0,0.0,0.0,0.0,0.0,0.0,0.0,0.0,0.0,3.3242,3.3242,3.3379,3.3379,3.3691,3.4375,3.4609,3.4922,3.5449,3.5508,3.5566,3.5742,3.5742,3.582,3.5996,3.6016,3.6016,3.6016,3.6016,3.6016,3.6016,3.6016,3.6016,3.6016,3.6016,3.6016,3.6016,3.6015,3.5985,3.5927,3.583,3.5791,3.5881,3.5746,3.563,3.5603,3.5545,3.5507,3.5507,3.5507,3.5507,3.5507,3.5507,3.5507,3.5507,3.5507,3.5507,3.5507,3.5507,3.5507,3.5507,3.5507,3.5507,4.6489,4.6452,4.6049,4.5771,0.0,4.5552,4.5388,4.5127,4.4749,4.4649,4.4672,4.4437,4.4335,4.4335,4.4335,4.4335,4.4335,4.4335,4.4355,4.4339,4.4318,4.4335,4.4335,4.4316,4.4105,4.3701,4.3682,4.3489,4.3104,4.3085,4.2874,4.2428,4.2005,4.1585,4.1165,4.03,3.9469,3.8642,3.8657,3.8849,3.9161,3.8007,3.6757,3.5488,3.5046,0.0,0.0,0.0,0.0,0.0,0.0,0.0,0.0,3.3141,0.0,3.3712,3.3389,3.3387,3.3938,3.3988,3.418,3.4648,3.4668,3.4492,3.4101,3.4434,3.4863,3.5293,3.5332,3.5527,3.5937,3.6016,3.6016,3.6016,3.6016,3.6016,3.6016,3.6016,3.6016,3.6016,3.6016,3.6016,3.6016,3.6016,3.6016,3.6016,3.6016,3.6007,3.6002,3.5958,3.5925,3.5809,3.5737,3.5704,3.574,3.568,3.5584,3.5565,3.5526,3.5507,3.5507,3.5507,3.5507,3.5507,3.5507,3.5507,3.5507,3.5507,3.5507,3.5507,3.5507,3.5507,3.5507,3.5507,3.5507,4.7333,4.7278,4.6617,4.625,4.6104,4.6104,4.5803,4.5281,4.4805,0.0,0.0,4.54,4.5531,4.5586,4.5586,4.5586,4.5586,4.5586,4.5586,4.5586,4.5586,4.5586,4.5586,4.5586,4.522,4.4547,4.4528,4.4182,4.3547,4.3547,4.3528,4.3528,4.3393,4.3239,4.3047,4.2374,4.1274,3.9796,3.9465,3.9619,4.0239,3.9488,3.8315,3.6738,3.5913,3.4758,3.3199,3.2974,3.2897,3.291,3.2891,3.2968,3.3122,3.3141,3.3295,3.3596,3.3674,3.4038,3.4863,3.4941,3.5234,3.5957,3.6016,3.5703,3.498,3.5586,3.6016,3.6016,3.6016,3.6016,3.6016,3.6016,3.6016,3.6016,3.6016,3.6016,3.6016,3.6016,3.6016,3.6016,3.5996,3.5976,3.5996,3.5957,3.5955,3.5937,3.5937,3.5935,3.591,3.5881,3.5815,3.5726,3.5676,3.5641,3.5605,3.5603,3.5565,3.5507,3.5507,3.5507,3.5507,3.5507,3.5507,3.5507,3.5507,3.5507,3.5507,3.5507,3.5507,3.5507,3.5507,3.5507,3.5507,3.5507,3.5507,4.8141,4.8122,4.8012,4.7572,4.6948,4.6948,4.6507,4.575,4.4955,4.48,4.5096,4.5159,4.5322,4.5586,4.5586,4.5586,4.5586,4.5586,4.5586,4.5586,4.5586,4.5586,4.5586,4.5586,4.5528,4.5432,4.5413,4.5355,4.5259,4.522,4.524,4.5124,4.4509,4.3797,4.3143,4.298,4.2422,4.145,4.0031,3.9358,3.945,3.8623,3.7719,3.6738,3.5949,3.5045,3.4045,3.3319,3.2903,3.2891,3.2897,3.3218,3.3968,3.4077,3.4468,3.5276,3.5464,3.56,3.5801,3.582,3.5859,3.5976,3.6016,3.5937,3.584,3.5918,3.6016,3.6016,3.6016,3.6016,3.6016,3.6016,3.6016,3.6016,3.6016,3.6016,3.6016,3.6016,3.5996,3.6016,3.5942,3.5913,3.5899,3.5826,3.5763,3.5742,3.5781,3.5725,3.5706,3.5681,3.5726,3.5699,3.5592,3.5547,3.5578,3.5545,3.5526,3.5507,3.5507,3.5507,3.5507,3.5507,3.5507,3.5507,3.5507,3.5507,3.5507,3.5507,3.5507,3.5507,3.5507,3.5507,3.5507,3.5507,3.5507,4.8324,4.8324,4.8324,4.8104,4.7737,4.7297,4.6911,4.6489,4.5656,4.523,4.5187,4.5369,4.5426,4.5341,4.5322,4.5419,4.5586,4.5586,4.5586,4.5586,4.5586,4.5586,4.5586,4.5586,4.5586,4.5586,4.5586,4.5586,4.5586,4.5586,4.5586,4.5566,4.5182,4.4586,4.3816,4.3737,4.3121,4.1835,4.1027,4.0427,3.995,3.9565,3.895,3.8142,3.7743,3.6935,3.5608,3.5185,3.4768,3.4326,3.4301,3.4487,3.4872,3.4968,3.5213,3.5669,3.5823,3.5922,3.5995,3.6016,3.6016,3.6016,3.6016,3.6016,3.6016,3.6016,3.6016,3.6016,3.6016,3.6016,3.6016,3.6016,3.6016,3.6016,3.5976,3.5957,3.5976,3.5957,3.5957,3.5976,3.5943,3.5886,3.5905,3.5782,3.5698,3.5706,3.5714,3.5674,3.5621,3.5611,3.5622,3.5584,3.5545,3.5526,3.5545,3.5526,3.5507,3.5507,3.5507,3.5507,3.5507,3.5507,3.5507,3.5507,3.5507,3.5507,3.5507,3.5507,3.5507,3.5507,3.5507,3.5507,3.5507,3.5507,3.5507,4.8324,4.8324,4.8324,4.8324,4.8251,4.7645,4.737,4.7315,4.6691,4.6118,4.5714,4.5873,4.5802,4.5513,4.5346,4.5451,4.5703,4.5551,4.5513,4.5586,4.5586,4.5586,4.5586,4.5586,4.5586,4.5586,4.5586,4.5586,4.5586,4.5586,4.5586,4.5586,4.5586,4.524,4.4624,4.4587,4.3838,4.245,4.2194,4.1559,4.0546,4.0489,4.0181,3.9623,3.9377,3.867,3.7363,3.6906,3.6419,3.5815,3.5603,3.5507,3.5526,3.5603,3.5662,3.5736,3.5854,3.5947,3.5996,3.6016,3.6016,3.6016,3.6016,3.6016,3.6016,3.6016,3.6016,3.6016,3.6016,3.6016,3.6016,3.6016,3.6016,3.5996,3.5957,3.5937,3.5976,3.5929,3.5918,3.5935,3.589,3.5834,3.5815,3.5718,3.5649,3.5643,3.5661,3.5641,3.5584,3.5565,3.5545,3.5526,3.5507,3.5507,3.5507,3.5507,3.5507,3.5507,3.5507,3.5507,3.5507,3.5507,3.5507,3.5507,3.5507,3.5507,3.5507,3.5507,3.5507,3.5507,3.5507,3.5507,3.5507,3.5507,3.5507,4.8324,4.8324,4.8324,4.8324,4.8306,4.8214,4.8159,4.8159,4.8104,4.7627,4.6893,4.6535,4.6555,4.6684,4.6032,4.5917,4.6146,4.5475,4.5321,4.5587,4.5586,4.5586,4.5586,4.5586,4.5586,4.5586,4.5586,4.5586,4.5586,4.5586,4.5586,4.5586,4.5586,4.5547,4.5451,4.5451,4.4989,4.4066,4.3346,4.2171,4.062,4.0489,4.0466,4.0408,3.9685,3.9227,3.8939,3.7541,3.667,3.6535,3.5911,3.5545,3.5603,3.5661,3.5751,3.5875,3.5936,3.5995,3.6016,3.6016,3.6016,3.6016,3.6016,3.6016,3.6016,3.6016,3.6016,3.6016,3.6016,3.6016,3.6016,3.6016,3.5996,3.5996,3.5957,3.5965,3.5892,3.59,3.5869,3.5736,3.5695,3.5622,3.5641,3.5584,3.5526,3.5526,3.5526,3.5545,3.5526,3.5526,3.5507,3.5507,3.5507,3.5507,3.5507,3.5507,3.5507,3.5507,3.5507,3.5507,3.5507,3.5507,3.5507,3.5507,3.5507,3.5507,3.5507,3.5507,3.5507,3.5507,3.5507,3.5507,3.5507,3.5507,3.5507,4.8324,4.8324,4.8324,4.8324,4.8324,4.8324,4.8324,4.8324,4.8324,4.8122,4.781,4.761,4.7207,4.6607,4.63,4.6364,4.6637,4.5859,4.5575,4.5703,4.5451,4.5302,4.5322,4.5513,4.5586,4.5586,4.5586,4.5586,4.5586,4.5586,4.5586,4.5586,4.5586,4.5586,4.5586,4.5586,4.5163,4.4316,4.3987,4.2986,4.1412,4.0758,4.0489,4.0469,4.0181,3.9762,3.9304,3.8589,3.8003,3.7492,3.6752,3.6353,3.6348,3.6021,3.5853,3.5894,3.5977,3.6016,3.6016,3.6016,3.6016,3.6016,3.6016,3.6016,3.6016,3.6016,3.6016,3.6016,3.6016,3.6016,3.5976,3.5948,3.5943,3.5918,3.584,3.5759,3.5791,3.5738,3.5708,3.5701,3.5637,3.5622,3.5603,3.5545,3.5507,3.5507,3.5507,3.5507,3.5507,3.5507,3.5507,3.5507,3.5507,3.5507,3.5507,3.5507,3.5507,3.5507,3.5507,3.5507,3.5507,3.5507,3.5507,3.5507,3.5507,3.5507,3.5507,3.5507,3.5507,3.5507,3.5507,3.5507,3.5507,3.5507,3.5507,4.8324,4.8324,4.8324,4.8324,4.8324,4.8324,4.8324,4.8324,4.8324,4.8324,4.8324,4.8324,4.7776,4.6953,4.6709,4.6824,4.7068,4.6346,4.6045,4.6092,4.578,4.5559,4.5478,4.5667,4.5743,4.5624,4.5586,4.5586,4.5586,4.5586,4.5586,4.5586,4.5586,4.5586,4.5586,4.5586,4.5297,4.4701,4.4453,4.3607,4.2258,4.1316,4.0739,4.0527,4.0489,4.0219,3.9665,3.9419,3.9027,3.8397,3.7656,3.7156,3.692,3.6496,3.6158,3.5951,3.5974,3.6016,3.6016,3.6016,3.6016,3.6016,3.6016,3.6016,3.6016,3.6016,3.6016,3.6016,3.5982,3.5976,3.5954,3.5935,3.5901,3.5856,3.572,3.5645,3.5682,3.5622,3.5622,3.5641,3.5597,3.5565,3.5584,3.5526,3.5507,3.5507,3.5507,3.5507,3.5507,3.5507,3.5507,3.5507,3.5507,3.5507,3.5507,3.5507,3.5507,3.5507,3.5507,3.5507,3.5507,3.5507,3.5507,3.5507,3.5507,3.5507,3.5507,3.5507,3.5507,3.5507,3.5507,3.5507,3.5507,3.5507,3.5507,4.8324,4.8324,4.8324,4.8324,4.8324,4.8324,4.8324,4.8324,4.8324,4.8324,4.8324,4.8324,4.8251,4.8087,4.7408,4.7297,4.7519,4.678,4.6572,4.6866,4.6859,4.6644,4.6272,4.626,4.6028,4.574,4.5605,4.5586,4.5586,4.5586,4.5586,4.5586,4.5586,4.5586,4.5586,4.5586,4.5566,4.5393,4.4761,4.3915,4.3047,4.22,4.1354,4.0642,4.0508,4.045,4.0354,3.9723,3.9285,3.9227,3.8546,3.7824,3.7159,3.7095,3.6755,3.6118,3.5996,3.6016,3.6016,3.6016,3.6016,3.6016,3.6016,3.6016,3.6016,3.6016,3.5996,3.6016,3.5931,3.592,3.589,3.587,3.5823,3.5714,3.5714,3.5637,3.5597,3.5603,3.5565,3.5526,3.5526,3.5507,3.5526,3.5507,3.5507,3.5507,3.5507,3.5507,3.5507,3.5507,3.5507,3.5507,3.5507,3.5507,3.5507,3.5507,3.5507,3.5507,3.5507,3.5507,3.5507,3.5507,3.5507,3.5507,3.5507,3.5507,3.5507,3.5507,3.5507,3.5507,3.5507,3.5507,3.5507,3.5507,3.5507,4.8324,4.8324,4.8324,4.8324,4.8324,4.8324,4.8324,4.8324,4.8324,4.8324,4.8324,4.8324,4.8324,4.8288,4.8012,4.7957,4.7994,4.7224,4.6911,4.7059,4.6999,4.6917,4.6771,4.6708,4.6609,4.6376,4.5855,4.5586,4.5586,4.5586,4.5586,4.5586,4.5586,4.5586,4.5586,4.5586,4.5586,4.5566,4.5259,4.472,4.3855,4.3047,4.222,4.1354,4.0777,4.0489,4.0489,4.0219,4.0104,4.02,3.9508,3.8992,3.8675,3.7786,3.6875,3.6113,3.6016,3.6016,3.6016,3.6016,3.6016,3.6016,3.6016,3.6016,3.6016,3.5996,3.5979,3.5931,3.5905,3.5863,3.5736,3.5712,3.568,3.5641,3.5584,3.5565,3.5545,3.5545,3.5526,3.5507,3.5507,3.5507,3.5507,3.5507,3.5507,3.5507,3.5507,3.5507,3.5507,3.5507,3.5507,3.5507,3.5507,3.5507,3.5507,3.5507,3.5507,3.5507,3.5507,3.5507,3.5507,3.5507,3.5507,3.5507,3.5507,3.5507,3.5507,3.5507,3.5507,3.5507,3.5507,3.5507,3.5507,3.5507,3.5507,4.8324,4.8324,4.8324,4.8324,4.8324,4.8324,4.8324,4.8324,4.8324,4.8324,4.8324,4.8324,4.8324,4.8324,4.8324,4.8379,4.8436,4.7905,4.7756,4.7861,4.7845,4.7729,4.7593,4.7532,4.7281,4.6818,4.6009,4.5586,4.5586,4.5586,4.5586,4.5586,4.5586,4.5586,4.5586,4.5586,4.5586,4.5586,4.5586,4.5163,4.4316,4.3508,4.2681,4.1835,4.095,4.0489,4.0489,4.0527,4.062,4.0639,4.0277,3.9973,3.9648,3.8476,3.7324,3.6562,3.6426,3.6289,3.6055,3.6016,3.6016,3.6016,3.6016,3.6016,3.6016,3.5996,3.5947,3.5912,3.5834,3.5738,3.5641,3.5584,3.5565,3.5565,3.5526,3.5507,3.5507,3.5507,3.5507,3.5507,3.5507,3.5507,3.5507,3.5507,3.5507,3.5507,3.5507,3.5507,3.5507,3.5507,3.5507,3.5507,3.5507,3.5507,3.5507,3.5507,3.5507,3.5507,3.5507,3.5507,3.5507,3.5507,3.5507,3.5507,3.5507,3.5507,3.5507,3.5507,3.5507,3.5507,3.5507,3.5507,3.5507,3.5507,3.5507,4.8324,4.8324,4.8324,4.8324,4.8324,4.8324,4.8324,4.8324,4.8324,4.8324,4.8324,4.8324,4.8324,4.8324,4.8382,4.8528,4.8844,4.8872,4.8984,4.9229,4.9344,4.9132,4.8767,4.869,4.7965,4.6876,4.6009,4.5605,4.5586,4.5586,4.5586,4.5586,4.5586,4.5586,4.5586,4.5586,4.5586,4.5586,4.5586,4.5182,4.4316,4.3547,4.2739,4.1912,4.1008,4.0508,4.0508,4.0639,4.0696,4.0735,4.085,4.0615,3.9902,3.9062,3.8203,3.748,3.7305,3.6894,3.625,3.6152,3.6152,3.6152,3.6094,3.6152,3.6191,3.618,3.617,3.6169,3.6007,3.5776,3.5815,3.5815,3.568,3.5507,3.5507,3.5507,3.5507,3.5507,3.5507,3.5507,3.5507,3.5507,3.5507,3.5507,3.5507,3.5507,3.5507,3.5507,3.5507,3.5507,3.5507,3.5507,3.5507,3.5507,3.5507,3.5507,3.5507,3.5507,3.5507,3.5507,3.5507,3.5507,3.5507,3.5507,3.5507,3.5507,3.5507,3.5507,3.5507,3.5507,3.5507,3.5507,3.5507,3.5507,3.5507,4.8324,4.8324,4.8324,4.8324,4.8324,4.8324,4.8324,4.8324,4.8324,4.8324,4.8324,4.8324,4.8324,4.8364,4.8568,4.8937,4.9343,4.9596,4.9657,4.9591,4.9815,4.986,4.9659,4.9343,4.8414,4.6972,4.6028,4.5586,4.5586,4.5586,4.5586,4.5586,4.5586,4.5586,4.5586,4.5586,4.5586,4.5586,4.5586,4.5432,4.5066,4.3816,4.2951,4.2585,4.1354,4.0639,4.0658,4.0677,4.0735,4.077,4.0908,4.0682,4.0019,3.9648,3.9101,3.832,3.8184,3.8125,3.7793,3.7207,3.6894,3.6894,3.6875,3.6875,3.6973,3.7316,3.7516,3.7522,3.743,3.7315,3.7257,3.7238,3.6719,3.5622,3.5507,3.5584,3.5565,3.5545,3.5507,3.5507,3.5507,3.5507,3.5507,3.5507,3.5507,3.5507,3.5507,3.5507,3.5507,3.5507,3.5507,3.5507,3.5507,3.5507,3.5507,3.5507,3.5507,3.5507,3.5507,3.5507,3.5507,3.5507,3.5507,3.5507,3.5507,3.5507,3.5507,3.5507,3.5507,3.5507,3.5507,3.5507,3.5507,3.5507,3.5507,4.8324,4.8324,4.8324,4.8324,4.8324,4.8324,4.8324,4.8324,4.8324,4.8324,4.8324,4.8324,4.8324,4.8402,4.8728,4.9123,4.953,4.9909,5.0065,4.997,5.0174,5.0336,5.0144,4.9335,4.8452,4.7317,4.6163,4.5586,4.5586,4.5586,4.5586,4.5586,4.5586,4.5586,4.5586,4.5586,4.5586,4.5586,4.5586,4.5586,4.5316,4.4259,4.3393,4.297,4.1854,4.1065,4.0771,4.0766,4.0808,4.0886,4.1005,4.0818,4.043,4.0371,4.0,3.9297,3.9062,3.8945,3.8594,3.8047,3.7773,3.7773,3.7773,3.7773,3.7851,3.8247,3.8345,3.8286,3.8166,3.8104,3.7988,3.7969,3.7488,3.6603,3.6483,3.629,3.6078,3.593,3.5757,3.5641,3.5507,3.5507,3.5507,3.5507,3.5507,3.5507,3.5507,3.5507,3.5507,3.5507,3.5507,3.5507,3.5507,3.5507,3.5507,3.5507,3.5507,3.5507,3.5507,3.5507,3.5507,3.5507,3.5507,3.5507,3.5507,3.5507,3.5507,3.5507,3.5507,3.5507,3.5507,3.5507,3.5507,3.5507,3.5507,4.8324,4.8324,4.8324,4.8324,4.8324,4.8324,4.8324,4.8324,4.8324,4.8324,4.8324,4.8324,4.8344,4.8421,4.8813,4.9214,4.9541,5.0006,5.0339,5.0528,5.0644,5.0624,5.0432,4.901,4.8163,4.7778,4.6374,4.5624,4.5586,4.5586,4.5586,4.5586,4.5586,4.5586,4.5586,4.5586,4.5586,4.5586,4.5586,4.5586,4.5547,4.4701,4.3874,4.3124,4.2332,4.1542,4.0893,4.0905,4.1005,4.1027,4.1113,4.1152,4.1152,4.1191,4.0723,4.0019,3.998,3.9609,3.8984,3.8769,3.8652,3.8652,3.8672,3.8672,3.8691,3.8773,3.8832,3.873,3.858,3.843,3.8354,3.8334,3.8257,3.8161,3.7868,3.7439,3.6901,3.6699,3.6315,3.5795,3.5584,3.5507,3.5507,3.5507,3.5507,3.5507,3.5507,3.5507,3.5507,3.5507,3.5507,3.5507,3.5507,3.5507,3.5507,3.5507,3.5507,3.5507,3.5507,3.5507,3.5507,3.5507,3.5507,3.5507,3.5507,3.5507,3.5507,3.5507,3.5507,3.5507,3.5507,3.5507,3.5493,3.5493,3.5479,4.8324,4.8324,4.8324,4.8324,4.8324,4.8324,4.8324,4.8324,4.8324,4.8324,4.8306,4.8324,4.8495,4.876,4.9171,4.9548,4.9929,5.034,5.0584,5.0683,5.0683,5.0683,5.0356,4.8933,4.8105,4.7855,4.6432,4.5586,4.5586,4.5586,4.5586,4.5586,4.5586,4.5586,4.5586,4.5586,4.5586,4.5586,4.5586,4.5586,4.547,4.4778,4.3951,4.3201,4.2486,4.1735,4.1023,4.1057,4.1143,4.1152,4.1191,4.1191,4.1191,4.1191,4.1074,4.0859,4.0801,4.0762,4.041,3.9883,3.959,3.957,3.9551,3.9551,3.959,3.9946,4.011,4.0119,3.9998,3.9815,3.9815,3.9758,3.9758,3.9681,3.8834,3.8016,3.7651,3.707,3.6584,3.6386,3.5872,3.5622,3.5507,3.5507,3.5507,3.5507,3.5507,3.5507,3.5507,3.5507,3.5507,3.5507,3.5507,3.5507,3.5507,3.5507,3.5507,3.5507,3.5507,3.5507,3.5507,3.5507,3.5507,3.5507,3.5507,3.5507,3.5507,3.5507,3.5507,3.5507,3.5468,3.5435,3.5474,3.5479,3.5436,4.8324,4.8324,4.8324,4.8324,4.8324,4.8324,4.8324,4.8324,4.8324,4.8402,4.8495,4.855,4.8797,4.9171,4.9561,4.9872,5.0137,5.0508,5.0683,5.0683,5.0683,5.0683,5.026,4.8933,4.8105,4.7913,4.6394,4.5682,4.5586,4.5586,4.5586,4.5586,4.5586,4.5586,4.5586,4.5586,4.5586,4.5586,4.5586,4.5605,4.5622,4.5201,4.4318,4.353,4.2852,4.2271,4.1314,4.115,4.1191,4.1191,4.1191,4.1191,4.1191,4.1191,4.1191,4.1191,4.1191,4.1191,4.1113,4.0703,4.0469,4.0449,4.0449,4.0449,4.0488,4.0753,4.0884,4.073,4.0646,4.0558,4.0508,4.0489,4.0489,4.0315,3.9608,3.8904,3.8616,3.8146,3.745,3.6867,3.6309,3.5834,3.557,3.5507,3.5507,3.5507,3.5507,3.5507,3.5507,3.5507,3.5507,3.5507,3.5507,3.5507,3.5507,3.5507,3.5507,3.5507,3.5446,3.5446,3.5468,3.5468,3.5507,3.5507,3.5507,3.5507,3.5507,3.5507,3.5507,3.5488,3.5416,3.5355,3.533,3.5295,3.5278,4.8324,4.8324,4.8324,4.8344,4.8364,4.8288,4.8402,4.8421,4.8439,4.8604,4.8897,4.8945,4.9202,4.9561,4.9898,5.0139,5.0201,5.0555,5.0663,5.0683,5.0683,5.0644,5.0202,4.8856,4.8163,4.7836,4.6413,4.572,4.5586,4.5586,4.5586,4.5586,4.5586,4.5586,4.5586,4.5586,4.5586,4.5586,4.5624,4.5699,4.5772,4.5613,4.4877,4.3607,4.2994,4.2364,4.1484,4.1191,4.1191,4.1191,4.1191,4.1191,4.1191,4.1191,4.1191,4.1191,4.1191,4.1191,4.1191,4.1133,4.1133,4.1094,4.1113,4.1191,4.1074,4.0996,4.0893,4.0791,4.0716,4.062,4.0508,4.0489,4.0489,4.0469,4.0392,4.0104,3.9608,3.9354,3.8638,3.7112,3.6815,3.6315,3.5795,3.5507,3.5507,3.5507,3.5507,3.5507,3.5507,3.5507,3.5507,3.5507,3.5507,3.5507,3.5507,3.5507,3.5507,3.5474,3.5383,3.5364,3.5378,3.5397,3.5468,3.5507,3.5507,3.5507,3.5493,3.5493,3.5432,3.5326,3.5205,3.5127,3.5049,3.4969,3.494,4.8324,4.8324,4.8324,4.8495,4.8692,4.8458,4.8676,4.9171,4.8897,4.8996,4.9295,4.9386,4.9608,4.9993,5.0092,5.0264,5.0511,5.0642,5.0683,5.0683,5.0683,5.026,4.9644,4.8529,4.8125,4.7644,4.6374,4.5624,4.5586,4.5586,4.5586,4.5586,4.5586,4.5586,4.5586,4.5586,4.5586,4.5605,4.5699,4.5776,4.5825,4.5827,4.5144,4.364,4.244,4.166,4.1348,4.1191,4.1191,4.1191,4.1191,4.1191,4.1191,4.1191,4.1191,4.1191,4.1191,4.1191,4.1191,4.1191,4.1191,4.1191,4.1191,4.1152,4.1035,4.0941,4.0831,4.0728,4.0639,4.0546,4.0508,4.0489,4.0489,4.0489,4.0489,4.0431,4.0181,3.9681,3.8888,3.7969,3.7142,3.6397,3.5661,3.5512,3.5493,3.5507,3.5507,3.5507,3.5507,3.5507,3.5507,3.5507,3.5507,3.5507,3.5507,3.5507,3.5507,3.5446,3.5335,3.5259,3.5286,3.5254,3.5281,3.5383,3.5507,3.546,3.5326,3.5261,3.5162,3.5083,3.4988,3.4849,3.4733,3.4661,3.4565,4.8421,4.8586,4.8577,4.8814,4.9121,4.8963,4.9108,4.9416,4.9295,4.9416,4.97,4.9773,5.0019,5.0377,5.038,5.0504,5.0663,5.0683,5.0683,5.0587,5.0317,4.9837,4.9221,4.8202,4.7509,4.7317,4.624,4.5643,4.5586,4.5586,4.5586,4.5586,4.5586,4.5586,4.5586,4.5586,4.5661,4.5699,4.5757,4.5834,4.5924,4.595,4.523,4.3656,4.2129,4.1191,4.1191,4.1191,4.1191,4.1191,4.1191,4.1191,4.1191,4.1191,4.1191,4.1191,4.1191,4.1191,4.1191,4.1191,4.1191,4.1191,4.1191,4.1113,4.0996,4.0883,4.0776,4.0699,4.06,4.0489,4.0489,4.0489,4.0489,4.0489,4.0489,4.0489,4.0412,4.0085,3.9546,3.87,3.7892,3.7065,3.6411,3.5872,3.5512,3.5507,3.5507,3.5507,3.5507,3.5507,3.5507,3.5507,3.5507,3.5507,3.5507,3.5507,3.5507,3.5412,3.5289,3.5192,3.5157,3.5116,3.5069,3.5141,3.5196,3.5108,3.4988,3.4944,3.4907,3.4851,3.4737,3.4559,3.442,3.4321,3.4215,4.8513,4.8807,4.8859,4.9155,4.9466,4.9475,4.9561,4.9719,4.9636,4.9827,5.0135,5.0183,5.0377,5.0624,5.0663,5.0683,5.0683,5.0664,5.0644,5.0279,4.9798,4.924,4.8625,4.7644,4.6855,4.6644,4.597,4.5624,4.5586,4.5586,4.5586,4.5586,4.5586,4.5605,4.5624,4.5624,4.5699,4.5796,4.5853,4.593,4.5976,4.5911,4.4993,4.3398,4.2051,4.123,4.1191,4.1191,4.1191,4.1191,4.1191,4.1191,4.1191,4.1191,4.1191,4.1191,4.1191,4.1191,4.1191,4.1191,4.1191,4.1191,4.1191,4.1113,4.0976,4.0869,4.0756,4.0654,4.0566,4.0489,4.0489,4.0489,4.0489,4.0489,4.0489,4.0489,4.0489,4.0489,4.0027,3.9319,3.8569,3.7834,3.6892,3.6161,3.5815,3.5526,3.5507,3.5488,3.5468,3.5474,3.5474,3.5488,3.5507,3.5507,3.5507,3.5335,3.535,3.5262,3.5149,3.4977,3.4896,3.4661,3.4591,3.4768,3.479,3.4736,3.4698,3.4649,3.4642,3.4588,3.4445,3.4204,3.4074,3.3954,3.3902,4.8326,4.844,4.877,4.9134,4.9476,4.9504,4.9898,5.0399,5.0116,5.0225,5.0544,5.0604,5.0604,5.0683,5.0683,5.0683,5.0606,5.0529,5.024,4.9702,4.924,4.8721,4.7586,4.7067,4.6471,4.5932,4.5624,4.5605,4.5586,4.5586,4.5586,4.5586,4.5586,4.5642,4.5738,4.5776,4.5791,4.5888,4.5973,4.6078,4.6013,4.5393,4.4414,4.2851,4.1719,4.1269,4.1191,4.1191,4.1191,4.1191,4.1191,4.1191,4.1191,4.1191,4.1191,4.1191,4.1191,4.1191,4.1191,4.1191,4.1191,4.1191,4.1191,4.1074,4.0927,4.0814,4.0712,4.06,4.0527,4.0489,4.0489,4.0489,4.0489,4.0489,4.0489,4.0489,4.0489,4.0431,4.0239,3.9569,3.9069,3.8507,3.745,3.6507,3.6007,3.5622,3.5397,3.5359,3.5301,3.5364,3.5393,3.5441,3.5507,3.5507,3.5507,3.527,3.5136,3.5005,3.4831,3.4555,3.437,3.4113,3.4079,3.4338,3.4545,3.4568,3.4521,3.4418,3.4325,3.4279,3.4068,3.3865,3.3876,3.3868,3.3787,4.8878,4.9227,4.9428,4.9768,5.0078,5.0135,5.0336,5.0624,5.0504,5.0504,5.0644,5.0683,5.0683,5.0683,5.0683,5.0491,5.0106,5.0029,4.951,4.8855,4.8259,4.7798,4.6817,4.649,4.6028,4.5682,4.5586,4.5586,4.5586,4.5586,4.5586,4.5586,4.5586,4.5661,4.5767,4.5805,4.5881,4.5982,4.6072,4.6133,4.6016,4.5039,4.3633,4.2578,4.166,4.125,4.1191,4.1191,4.1191,4.1191,4.1191,4.1191,4.1191,4.1191,4.1191,4.1191,4.1191,4.1191,4.1191,4.1191,4.1191,4.1191,4.1152,4.1016,4.0873,4.077,4.0677,4.0546,4.0489,4.0489,4.0489,4.0489,4.0489,4.0489,4.0489,4.0489,4.0489,4.0489,4.0223,3.9823,3.9415,3.8742,3.7777,3.693,3.6252,3.5776,3.5397,3.524,3.5139,3.5162,3.5198,3.5174,3.5193,3.5193,3.5174,3.5051,3.4887,3.4755,3.4564,3.4264,3.4102,3.3942,3.3907,3.405,3.4205,3.4338,3.422,3.4053,3.4016,3.3972,3.385,3.3725,3.3788,3.3788,3.3634,4.9396,4.9987,5.0073,5.0182,5.0314,5.0413,5.0298,5.0221,5.0125,5.0067,5.0183,5.0125,5.0087,5.0144,5.0029,4.974,4.9125,4.9144,4.8644,4.7912,4.7336,4.6894,4.6451,4.6047,4.5605,4.5624,4.5661,4.5624,4.5605,4.5642,4.5624,4.5661,4.5661,4.5738,4.5863,4.5896,4.5988,4.6085,4.6133,4.6133,4.5469,4.4453,4.3164,4.2266,4.1543,4.1191,4.1191,4.1191,4.1191,4.1191,4.1191,4.1191,4.1191,4.1191,4.1191,4.1191,4.1191,4.1191,4.1152,4.1152,4.1113,4.1074,4.1016,4.091,4.0803,4.0696,4.062,4.0527,4.0489,4.0489,4.0489,4.0489,4.0489,4.0489,4.0489,4.0489,4.0489,4.0492,4.043,4.0085,3.9714,3.9068,3.8191,3.7238,3.6526,3.5736,3.534,3.4983,3.4905,3.4842,3.4858,3.4812,3.4808,3.4793,3.4772,3.4715,3.4601,3.4528,3.4336,3.4067,3.3987,3.3907,3.3917,3.389,3.3907,3.3997,3.3825,3.3689,3.3642,3.3613,3.3569,3.3468,3.332,3.3273,3.3179,4.9494,4.958,4.9947,4.969,4.914,4.9392,4.9125,4.8529,4.8548,4.8394,4.8644,4.8509,4.8567,4.8586,4.8567,4.8414,4.8279,4.8221,4.7817,4.7066,4.6817,4.6432,4.5893,4.5701,4.5624,4.5661,4.5738,4.5699,4.5676,4.5714,4.5776,4.5776,4.5811,4.5911,4.6005,4.6028,4.6127,4.6253,4.6269,4.5586,4.4355,4.3848,4.2871,4.1777,4.1289,4.1191,4.1191,4.1191,4.1191,4.1191,4.1191,4.1191,4.1191,4.1191,4.1191,4.1191,4.1191,4.1133,4.1053,4.1052,4.1007,4.0935,4.0859,4.0789,4.0708,4.062,4.0527,4.0508,4.0489,4.0489,4.0489,4.0489,4.0489,4.0489,4.0489,4.0489,4.0489,4.0392,4.0344,4.0176,3.9756,3.9337,3.8709,3.7702,3.6752,3.5976,3.5287,3.4952,3.4636,3.455,3.4519,3.447,3.4461,3.4454,3.4431,3.4371,3.4342,3.4282,3.4106,3.3921,3.3879,3.3862,3.3781,3.3781,3.3753,3.3652,3.3512,3.3404,3.3322,3.3206,3.3124,3.2883,3.266,3.2678,3.2798,4.87,4.8713,4.8913,4.8741,4.8449,4.8606,4.8452,4.8163,4.8105,4.8105,4.8105,4.8105,4.8105,4.8029,4.8105,4.7837,4.7511,4.7414,4.6951,4.6354,4.62,4.6028,4.5834,4.5719,4.5719,4.5772,4.5811,4.5838,4.5815,4.5819,4.5853,4.5849,4.5887,4.5965,4.6101,4.6102,4.6182,4.625,4.6172,4.541,4.418,4.3574,4.2891,4.1308,4.1211,4.1191,4.1191,4.1191,4.1191,4.1191,4.1191,4.1191,4.1191,4.1191,4.1172,4.1074,4.1074,4.1048,4.1007,4.0983,4.0897,4.0834,4.0761,4.0708,4.062,4.0546,4.0489,4.0489,4.0489,4.0489,4.0489,4.0489,4.0489,4.0489,4.0469,4.0469,4.0419,4.0286,4.0177,3.9992,3.9783,3.9335,3.8924,3.8279,3.7129,3.5968,3.5318,3.4896,3.4467,3.4113,3.409,3.4105,3.4124,3.4109,3.406,3.4012,3.4055,3.4018,3.4018,3.386,3.3834,3.3798,3.3679,3.3541,3.3421,3.3306,3.3166,3.3113,3.3051,3.2844,3.2648,3.2441,3.2284,3.2438,3.2509,4.7682,4.7528,4.7931,4.8008,4.7798,4.7798,4.7644,4.7471,4.7413,4.7432,4.7471,4.7413,4.7432,4.7471,4.7336,4.7048,4.6645,4.6624,4.6259,4.5836,4.568,4.5776,4.5808,4.5825,4.5838,4.5905,4.5926,4.5963,4.5979,4.5993,4.6007,4.5945,4.6037,4.6084,4.6127,4.6166,4.6211,4.6269,4.6016,4.5117,4.3945,4.3437,4.2519,4.1641,4.1191,4.1191,4.1191,4.1191,4.1191,4.1191,4.1191,4.1191,4.1191,4.1152,4.1101,4.1029,4.0988,4.094,4.0904,4.0887,4.0831,4.0754,4.0696,4.062,4.0527,4.0489,4.0489,4.0489,4.0489,4.0489,4.0489,4.0489,4.0489,4.0469,4.0412,4.0412,4.0345,4.0119,3.9876,3.9608,3.9421,3.9219,3.888,3.8607,3.7611,3.6115,3.5355,3.4869,3.4402,3.3862,3.386,3.3928,3.3913,3.3907,3.3897,3.3842,3.3834,3.3762,3.3762,3.377,3.3752,3.3615,3.3488,3.3321,3.3094,3.2813,3.2565,3.268,3.2756,3.2441,3.2161,3.2091,3.2073,3.2195,3.2161,4.6509,4.5893,4.7432,4.7625,4.699,4.699,4.6528,4.6009,4.5874,4.5913,4.6028,4.5874,4.6009,4.5932,4.6105,4.6047,4.5913,4.5892,4.588,4.5899,4.5892,4.5888,4.5915,4.591,4.5929,4.5959,4.6048,4.6085,4.6105,4.6176,4.6147,4.6124,4.6157,4.6256,4.6269,4.625,4.6152,4.6016,4.5605,4.4726,4.3672,4.2949,4.2129,4.1465,4.1191,4.1191,4.1191,4.1191,4.1191,4.1191,4.1191,4.1172,4.1152,4.1107,4.1029,4.0949,4.087,4.0812,4.0773,4.0754,4.0677,4.0566,4.0527,4.0527,4.0508,4.0489,4.0489,4.0489,4.0489,4.0489,4.0489,4.0489,4.0489,4.045,4.0364,4.0248,4.01,3.9793,3.9557,3.9268,3.9076,3.895,3.8865,3.8637,3.8072,3.6638,3.5342,3.4815,3.4265,3.3825,3.3825,3.3834,3.3788,3.378,3.3807,3.3743,3.3643,3.3625,3.3625,3.3643,3.3615,3.3458,3.317,3.2923,3.2672,3.2317,3.2004,3.2069,3.2029,3.1837,3.1716,3.1681,3.1608,3.1623,3.1582,4.5893,4.5663,4.6297,4.6374,4.6105,4.6105,4.5913,4.5624,4.5586,4.5661,4.5719,4.5719,4.5757,4.5776,4.5776,4.5815,4.5866,4.5874,4.5889,4.5881,4.5891,4.5949,4.5984,4.604,4.6072,4.6133,4.6211,4.6232,4.623,4.6274,4.6266,4.6264,4.6269,4.6289,4.6289,4.6191,4.5996,4.5547,4.5078,4.4355,4.3066,4.2637,4.2012,4.1289,4.1191,4.1191,4.1191,4.1191,4.1191,4.1191,4.1191,4.1152,4.1096,4.1016,4.0939,4.085,4.0754,4.0696,4.0639,4.0658,4.0639,4.0527,4.0489,4.0489,4.0489,4.0489,4.0489,4.0489,4.0489,4.0489,4.0489,4.0489,4.0489,4.0431,4.0312,4.0138,3.9857,3.9538,3.9327,3.9106,3.8921,3.8792,3.8762,3.8683,3.8034,3.7186,3.5909,3.4733,3.4119,3.3689,3.3679,3.3569,3.3476,3.3532,3.356,3.3496,3.3431,3.3423,3.3432,3.3328,3.3252,3.2985,3.2719,3.2474,3.2249,3.1915,3.1645,3.1496,3.1414,3.1428,3.1372,3.1312,3.1213,3.119,3.119,4.5624,4.5661,4.568,4.5661,4.5586,4.5586,4.5624,4.5661,4.568,4.5738,4.5832,4.5819,4.5838,4.5892,4.5892,4.5918,4.5954,4.5976,4.6001,4.6026,4.6055,4.6083,4.613,4.6171,4.6191,4.6289,4.6289,4.6279,4.6279,4.63,4.6289,4.6289,4.6289,4.6289,4.623,4.5957,4.5605,4.5137,4.4297,4.3808,4.248,4.2109,4.1855,4.125,4.1211,4.1172,4.1133,4.1113,4.1074,4.1055,4.1035,4.1035,4.0973,4.0906,4.0847,4.0754,4.0658,4.0585,4.0546,4.0546,4.06,4.0508,4.0489,4.0489,4.0489,4.0489,4.0489,4.0489,4.0489,4.0489,4.0489,4.0489,4.0412,4.0335,4.0031,3.9828,3.9564,3.9259,3.9118,3.8946,3.8823,3.8719,3.8719,3.8634,3.7882,3.7064,3.5826,3.4659,3.3762,3.3478,3.3388,3.3256,3.3057,3.3196,3.3314,3.313,3.2949,3.2974,3.2962,3.2872,3.2734,3.247,3.2267,3.21,3.1846,3.1537,3.1405,3.1325,3.128,3.123,3.119,3.119,3.119,3.119,3.119,4.568,4.5796,4.5755,4.5659,4.547,4.5586,4.568,4.5776,4.5808,4.5849,4.5905,4.5899,4.593,4.5939,4.5968,4.6014,4.6071,4.6076,4.6134,4.62,4.6211,4.6269,4.6269,4.6269,4.625,4.6289,4.6289,4.6289,4.6289,4.6289,4.6289,4.623,4.6172,4.6094,4.6172,4.543,4.5039,4.4746,4.3301,4.2695,4.2187,4.168,4.1367,4.125,4.1172,4.1133,4.1074,4.1016,4.0959,4.0897,4.0887,4.0858,4.0829,4.0775,4.0731,4.0696,4.0566,4.0508,4.0489,4.0489,4.0489,4.0489,4.0489,4.0489,4.0489,4.0489,4.0489,4.0489,4.0457,4.0473,4.0489,4.0434,4.0268,4.0095,3.9791,3.9565,3.9285,3.9068,3.8897,3.883,3.8775,3.8707,3.8707,3.8493,3.7741,3.6808,3.5689,3.4626,3.3746,3.325,3.3229,3.2916,3.2713,3.2745,3.2791,3.2648,3.2521,3.2499,3.2481,3.2393,3.2232,3.2017,3.186,3.1759,3.1589,3.1359,3.1261,3.1207,3.1055,3.0918,3.1151,3.119,3.119,3.1061,3.0914,4.549,4.5064,4.5073,4.4722,4.4355,4.5355,4.5834,4.5866,4.5872,4.591,4.6018,4.6032,4.6085,4.6147,4.6152,4.6172,4.6211,4.6228,4.6284,4.6289,4.6289,4.6289,4.6289,4.6289,4.6289,4.6289,4.6289,4.6289,4.6289,4.6211,4.6269,4.623,4.5566,4.5449,4.5195,4.459,4.3926,4.332,4.2637,4.2187,4.166,4.1348,4.1191,4.1172,4.1113,4.1055,4.0996,4.0918,4.0838,4.0773,4.079,4.0752,4.0732,4.0693,4.0658,4.062,4.0489,4.0489,4.0489,4.0489,4.0489,4.0489,4.0489,4.0489,4.0489,4.0489,4.0489,4.0457,4.0319,4.0298,4.021,3.9984,3.9814,3.9735,3.9509,3.9314,3.9093,3.8897,3.8726,3.8726,3.8707,3.8707,3.8707,3.8634,3.7973,3.7184,3.617,3.5042,3.41,3.3424,3.3103,3.265,3.2384,3.2384,3.2316,3.2144,3.2039,3.2042,3.1978,3.1899,3.1726,3.1623,3.1526,3.1455,3.1314,3.119,3.0952,3.0749,3.0675,3.0617,3.074,3.074,3.0617,3.0484,3.0342,4.4758,4.4316,4.4324,4.4015,4.368,4.4617,4.5059,4.5102,4.5143,4.534,4.5636,4.5712,4.5967,4.6172,4.6289,4.6289,4.6289,4.6289,4.6289,4.6289,4.6289,4.6289,4.6289,4.6289,4.6289,4.6289,4.6289,4.6289,4.625,4.5976,4.5605,4.5117,4.457,4.4082,4.3828,4.3379,4.3047,4.2519,4.2109,4.1641,4.1269,4.1074,4.1035,4.1016,4.0976,4.0898,4.0879,4.0826,4.0735,4.0735,4.0696,4.0677,4.0658,4.0639,4.0585,4.0508,4.0489,4.0489,4.0489,4.0489,4.0489,4.0489,4.0489,4.0489,4.0489,4.0489,4.0406,4.0319,4.0177,4.0043,3.989,3.9634,3.9529,3.9421,3.9301,3.9128,3.8952,3.8726,3.8707,3.8707,3.8707,3.8707,3.8689,3.8548,3.8261,3.7494,3.6689,3.5511,3.4316,3.3509,3.2771,3.2254,3.1914,3.1842,3.1823,3.1714,3.1612,3.1584,3.1543,3.1507,3.1428,3.1342,3.1247,3.1128,3.0922,3.0734,3.045,3.0264,3.007,3.0081,3.0166,3.0123,3.0038,2.9876,2.9767,4.3482,4.3564,4.3549,4.355,4.3558,4.34,4.3474,4.3644,4.3748,4.4238,4.4941,4.4941,4.5234,4.5976,4.6152,4.6152,4.6211,4.6211,4.6289,4.6289,4.6289,4.6289,4.625,4.6172,4.6035,4.6113,4.5996,4.5605,4.5996,4.5293,4.4512,4.3769,4.3144,4.274,4.251,4.2344,4.2207,4.1894,4.1544,4.1199,4.1006,4.0898,4.0874,4.0863,4.0817,4.0797,4.0757,4.0708,4.062,4.0566,4.0508,4.0508,4.0508,4.0489,4.0489,4.0489,4.0489,4.0489,4.0489,4.0489,4.0489,4.0489,4.0489,4.0489,4.0473,4.0457,4.0339,4.0157,3.9983,3.98,3.9615,3.9481,3.9357,3.9233,3.9102,3.8952,3.8799,3.8707,3.8707,3.8707,3.8707,3.8689,3.867,3.8548,3.818,3.7482,3.6574,3.539,3.4196,3.306,3.2359,3.1691,3.1389,3.1329,3.1291,3.144,3.1376,3.1394,3.135,3.1291,3.119,3.1173,3.1067,3.0885,3.0542,3.0266,3.0004,2.973,2.9422,2.9451,2.9435,2.9406,2.9271,2.9344,2.9296,4.3271,4.2749,4.2749,4.244,4.1936,4.1875,4.2506,4.3591,4.3711,4.3887,4.4082,4.4082,4.4297,4.4473,4.5078,4.5312,4.5605,4.5937,4.623,4.623,4.5996,4.6191,4.6035,4.5644,4.5469,4.5176,4.4896,4.4617,4.4375,4.3963,4.3434,4.2598,4.2241,4.1817,4.1488,4.1274,4.131,4.1288,4.1003,4.0926,4.087,4.0803,4.0778,4.0761,4.0729,4.072,4.0689,4.062,4.0527,4.0508,4.0489,4.0489,4.0489,4.0489,4.0489,4.0489,4.0489,4.0489,4.0489,4.0489,4.0489,4.0489,4.0473,4.0489,4.0457,4.0339,4.0196,3.9963,3.969,3.9467,3.9302,3.9152,3.9073,3.898,3.8915,3.8828,3.8707,3.8707,3.8707,3.8707,3.8707,3.8609,3.859,3.8297,3.7917,3.7295,3.6433,3.5307,3.4226,3.3168,3.2446,3.1772,3.1562,3.1681,3.141,3.1455,3.1297,3.1213,3.1399,3.1467,3.1343,3.1275,3.1016,3.0584,3.0069,2.9745,2.9545,2.9217,2.8779,2.8575,2.8528,2.8543,2.8589,2.8633,2.8546,4.2422,4.1973,4.1914,4.1641,4.125,4.1211,4.1836,4.2637,4.2715,4.2851,4.3183,4.3183,4.3359,4.3828,4.4277,4.4492,4.4551,4.4863,4.5117,4.5078,4.532,4.5117,4.4922,4.4727,4.4433,4.4136,4.3942,4.3762,4.3377,4.2955,4.2438,4.1662,4.1576,4.1274,4.0965,4.0874,4.0797,4.0797,4.0751,4.0766,4.0754,4.0735,4.0696,4.0696,4.0658,4.0639,4.062,4.0527,4.0508,4.0489,4.0489,4.0489,4.0489,4.0489,4.0489,4.0489,4.0489,4.0489,4.0489,4.0489,4.0489,4.046,4.0379,4.0329,4.031,4.0215,3.9939,3.9668,3.9346,3.9043,3.8952,3.883,3.8748,3.8719,3.8719,3.8719,3.8707,3.8707,3.8707,3.8707,3.8627,3.8546,3.835,3.8071,3.7616,3.697,3.6391,3.5591,3.4592,3.3609,3.3032,3.2584,3.2374,3.2307,3.2019,3.189,3.2015,3.2116,3.2343,3.2292,3.1856,3.1474,3.1236,3.0412,2.9438,2.9216,2.9007,2.8504,2.8125,2.7959,2.778,2.7595,2.7739,2.7931,2.7733,4.123,4.123,4.1191,4.125,4.1191,4.1191,4.125,4.1191,4.1367,4.1621,4.2246,4.2324,4.2695,4.3105,4.3476,4.3574,4.3691,4.3906,4.4121,4.3706,4.3958,4.3978,4.387,4.3419,4.3383,4.3303,4.3073,4.2714,4.2798,4.2311,4.1551,4.0793,4.0847,4.0776,4.0718,4.0684,4.0646,4.0588,4.0607,4.0658,4.0658,4.0566,4.0489,4.0508,4.0508,4.0508,4.0508,4.0489,4.0489,4.0489,4.0489,4.0489,4.0489,4.0489,4.0489,4.0489,4.0489,4.0489,4.0469,4.0431,4.0412,4.0339,4.0213,4.0034,3.9932,3.9867,3.9595,3.9383,3.908,3.8915,3.8789,3.8748,3.8732,3.8707,3.8707,3.8707,3.8707,3.8707,3.8707,3.8658,3.8465,3.8332,3.8059,3.7769,3.7194,3.6622,3.6104,3.5559,3.5087,3.4141,3.3617,3.3305,3.3017,3.2882,3.2899,3.2838,3.3046,3.3206,3.3165,3.2807,3.2174,3.1816,3.1484,3.0591,2.9577,2.8854,2.845,2.8303,2.8177,2.7652,2.7343,2.6792,2.6769,2.707,2.6913,4.1191,4.1191,4.1191,4.1191,4.1191,4.1191,4.1191,4.1191,4.1191,4.1308,4.1465,4.1523,4.1621,4.1992,4.2519,4.2656,4.2715,4.3033,4.3458,4.3374,4.3264,4.3079,4.3173,4.2626,4.2441,4.2168,4.1898,4.1577,4.1525,4.1157,4.087,4.062,4.0585,4.0566,4.0566,4.0566,4.0527,4.0489,4.0527,4.0566,4.0546,4.0527,4.0489,4.0489,4.0489,4.0489,4.0489,4.0489,4.0489,4.0489,4.0489,4.0489,4.0489,4.0489,4.0489,4.0489,4.0422,4.0403,4.0354,4.0281,4.0191,4.0095,3.9922,3.9614,3.944,3.9376,3.9275,3.909,3.8933,3.8815,3.8719,3.8689,3.8707,3.8707,3.8707,3.8707,3.8707,3.8707,3.8707,3.8546,3.8332,3.8062,3.7787,3.7327,3.6772,3.6352,3.595,3.5605,3.5543,3.4952,3.43,3.3921,3.3508,3.3389,3.3558,3.3575,3.3668,3.3389,3.3136,3.2837,3.2443,3.1665,3.1,3.0567,2.9837,2.9162,2.8891,2.9154,2.8815,2.7977,2.7103,2.6578,2.5979,2.6064,2.5925,4.1191,4.1191,4.1191,4.1191,4.1172,4.115,4.111,4.1104,4.1042,4.1023,4.1051,4.107,4.111,4.1103,4.1544,4.173,4.1774,4.2089,4.2105,4.2188,4.2363,4.213,4.1923,4.1748,4.1493,4.1193,4.0966,4.0712,4.06,4.0566,4.0546,4.0489,4.0489,4.0489,4.0489,4.0489,4.0489,4.0489,4.0489,4.0489,4.0489,4.0489,4.0489,4.0489,4.0489,4.0489,4.0489,4.0489,4.0489,4.0489,4.0489,4.0389,4.0356,4.0285,4.0212,4.012,4.0063,4.0116,4.0063,3.9983,3.9905,3.9785,3.9561,3.9275,3.9227,3.9147,3.8998,3.8844,3.8815,3.8719,3.8719,3.8707,3.8707,3.8707,3.8707,3.8707,3.8707,3.8707,3.8707,3.8658,3.8318,3.7843,3.7488,3.6986,3.6491,3.6039,3.565,3.5622,3.5639,3.5639,3.5036,3.4587,3.4209,3.4242,3.458,3.437,3.4074,3.3717,3.3238,3.2854,3.2467,3.1334,3.0419,3.0393,3.0157,2.9645,2.9495,2.957,2.9057,2.8158,2.7262,2.6418,2.5809,2.5177,2.5044,4.1191,4.1191,4.1172,4.1152,4.1169,4.1033,4.0979,4.0959,4.0856,4.0818,4.082,4.0907,4.0943,4.0944,4.0873,4.0831,4.0922,4.1221,4.1031,4.0927,4.092,4.1108,4.1031,4.0696,4.0716,4.0696,4.0566,4.0527,4.0508,4.0489,4.0489,4.0489,4.0489,4.0489,4.0489,4.0489,4.0489,4.0489,4.0489,4.0473,4.0492,4.0508,4.0489,4.0489,4.0489,4.0489,4.0489,4.0489,4.0489,4.046,4.0411,4.0252,4.0101,4.0003,3.9903,3.9778,3.9757,3.9735,3.9679,3.9618,3.9554,3.9471,3.9183,3.9032,3.8995,3.8903,3.8775,3.8738,3.8707,3.8707,3.8707,3.8707,3.8707,3.8707,3.8707,3.8707,3.8707,3.8707,3.8707,3.8676,3.8168,3.7667,3.7236,3.669,3.6209,3.5786,3.5639,3.5639,3.5639,3.5639,3.5341,3.5205,3.5036,3.5205,3.5425,3.486,3.43,3.405,3.3549,3.3121,3.2516,3.1483,3.0849,3.0687,3.0419,3.011,2.9692,2.9549,2.8957,2.8196,2.7409,2.65,2.5555,2.497,2.4542,4.1191,4.1191,4.1071,4.1035,4.1009,4.0886,4.0831,4.0843,4.081,4.08,4.0775,4.0752,4.0773,4.0831,4.0819,4.0784,4.0718,4.0723,4.065,4.06,4.0566,4.0566,4.0546,4.0527,4.0508,4.0489,4.0473,4.0489,4.0389,4.0422,4.0473,4.0422,4.0438,4.0473,4.0473,4.0454,4.0396,4.0383,4.0353,4.0336,4.0267,4.0321,4.0473,4.0489,4.0489,4.0489,4.0489,4.0489,4.0489,4.0447,4.0272,4.003,3.981,3.9687,3.9599,3.9524,3.9476,3.9477,3.941,3.928,3.9227,3.9198,3.8977,3.8817,3.8799,3.8781,3.8707,3.8707,3.8707,3.8707,3.8707,3.8707,3.8707,3.8707,3.8707,3.8707,3.8707,3.8676,3.8676,3.8368,3.7913,3.7487,3.7155,3.6566,3.59,3.5639,3.5639,3.5639,3.5639,3.5639,3.5639,3.5594,3.5594,3.5622,3.5526,3.4861,3.4283,3.4119,3.3662,3.2772,3.2114,3.1724,3.1232,3.0867,3.0852,3.0748,3.0324,2.9328,2.8643,2.7913,2.7317,2.6529,2.5627,2.4998,2.4755]},{"header":{"parameterUnit":"m.s-1","parameterCategory":1,"la1":31.0,"la2":29.5877,"lo1":-88.7671,"lo2":-86.6584,"dy":0.0162,"dx":0.0185,"nx":115,"ny":88,"refTime":"2023-09-06T06:00:00:Z","depth":0,"parameterNumber":3,"parameterNumberName":"V-component_of_WINDS"},"data":[0.0,0.0,0.0,0.0,0.0,0.0,0.0,0.0,0.0,0.0,0.0,0.0,0.0,0.0,0.0,0.0,0.0,0.0,0.0,0.0,0.0,0.0,0.0,0.0,0.0,0.0,0.0,0.0,0.0,0.0,0.0,0.0,0.0,0.0,0.0,0.0,0.0,0.0,0.0,0.0,0.0,0.0,0.0,0.0,0.0,0.0,0.0,0.0,0.0,0.0,0.0,0.0,0.0,0.0,0.0,0.0,0.0,0.0,0.0,0.0,0.0,0.0,0.0,0.0,0.0,0.0,0.0,0.0,0.0,0.0,0.0,0.0,0.0,0.0,0.0,0.0,0.0,0.0,0.0,0.0,0.0,0.0,0.0,0.0,0.0,0.0,0.0,0.0,0.0,0.0,0.0,0.0,0.0,0.0,0.0,0.0,0.0,0.0,0.0,0.0,0.0,0.0,0.0,0.0,0.0,0.0,0.0,0.0,0.0,0.0,0.0,0.0,0.0,0.0,0.0,0.0,0.0,0.0,0.0,0.0,0.0,0.0,0.0,0.0,0.0,0.0,0.0,0.0,0.0,0.0,0.0,0.0,0.0,0.0,0.0,0.0,0.0,0.0,0.0,0.0,0.0,0.0,0.0,0.0,0.0,0.0,0.0,0.0,0.0,0.0,0.0,0.0,0.0,0.0,0.0,0.0,0.0,0.0,0.0,0.0,0.0,0.0,0.0,0.0,0.0,0.0,0.0,0.0,0.0,0.0,0.0,0.0,0.0,0.0,0.0,0.0,0.0,0.0,0.0,0.0,0.0,0.0,0.0,0.0,0.0,0.0,0.0,0.0,0.0,0.0,0.0,0.0,0.0,0.0,0.0,0.0,0.0,0.0,0.0,0.0,0.0,0.0,0.0,0.0,0.0,0.0,0.0,0.0,0.0,0.0,0.0,0.0,0.0,0.0,0.0,0.0,0.0,0.0,0.0,0.0,0.0,0.0,0.0,0.0,0.0,0.0,0.0,0.0,0.0,0.0,0.0,0.0,0.0,0.0,0.0,0.0,0.0,0.0,0.0,0.0,0.0,0.0,0.0,0.0,0.0,0.0,0.0,0.0,0.0,0.0,0.0,0.0,0.0,0.0,0.0,0.0,0.0,0.0,0.0,0.0,0.0,0.0,0.0,0.0,0.0,0.0,0.0,0.0,0.0,0.0,0.0,0.0,0.0,0.0,0.0,0.0,0.0,0.0,0.0,0.0,0.0,0.0,0.0,0.0,0.0,0.0,0.0,0.0,0.0,0.0,0.0,0.0,0.0,0.0,0.0,0.0,0.0,0.0,0.0,0.0,0.0,0.0,0.0,0.0,0.0,0.0,0.0,0.0,0.0,0.0,0.0,0.0,0.0,0.0,0.0,0.0,0.0,0.0,0.0,0.0,0.0,0.0,0.0,0.0,0.0,0.0,0.0,0.0,0.0,0.0,0.0,0.0,0.0,0.0,0.0,0.0,0.0,0.0,0.0,0.0,0.0,0.0,0.0,0.0,0.0,0.0,0.0,0.0,0.0,0.0,0.0,0.0,0.0,0.0,0.0,0.0,0.0,0.0,0.0,0.0,0.0,0.0,0.0,0.0,0.0,0.0,0.0,0.0,0.0,0.0,0.0,0.0,0.0,0.0,0.0,0.0,0.0,0.0,0.0,0.0,0.0,0.0,0.0,0.0,0.0,0.0,0.0,0.0,0.0,0.0,0.0,0.0,0.0,0.0,0.0,0.0,0.0,0.0,0.0,0.0,0.0,0.0,0.0,0.0,0.0,0.0,0.0,0.0,0.0,0.0,0.0,0.0,0.0,0.0,0.0,0.0,0.0,0.0,0.0,0.0,0.0,0.0,0.0,0.0,0.0,0.0,0.0,0.0,0.0,0.0,0.0,0.0,0.0,0.0,0.0,0.0,0.0,0.0,0.0,0.0,0.0,0.0,0.0,0.0,0.0,0.0,0.0,0.0,0.0,0.0,0.0,0.0,0.0,0.0,0.0,0.0,0.0,0.0,0.0,0.0,0.0,0.0,0.0,0.0,0.0,0.0,0.0,0.0,0.0,0.0,0.0,0.0,0.0,0.0,0.0,0.0,0.0,0.0,0.0,0.0,0.0,0.0,0.0,0.0,0.0,0.0,0.0,0.0,0.0,0.0,0.0,0.0,0.0,0.0,0.0,0.0,0.0,0.0,0.0,0.0,0.0,0.0,0.0,0.0,0.0,0.0,0.0,0.0,0.0,0.0,0.0,0.0,0.0,0.0,0.0,0.0,0.0,0.0,0.0,0.0,0.0,0.0,0.0,0.0,0.0,0.0,0.0,0.0,0.0,0.0,0.0,0.0,0.0,0.0,0.0,0.0,0.0,0.0,0.0,0.0,0.0,0.0,0.0,0.0,0.0,0.0,0.0,0.0,0.0,0.0,0.0,0.0,0.0,0.0,0.0,0.0,0.0,0.0,0.0,0.0,0.0,0.0,0.0,0.0,0.0,0.0,0.0,0.0,0.0,0.0,0.0,0.0,0.0,0.0,0.0,0.0,0.0,0.0,0.0,0.0,0.0,0.0,0.0,0.0,0.0,0.0,0.0,0.0,0.0,0.0,0.0,0.0,0.0,0.0,0.0,0.0,0.0,0.0,0.0,0.0,0.0,0.0,0.0,0.0,0.0,0.0,0.0,0.0,0.0,0.0,0.0,0.0,0.0,0.0,0.0,0.0,0.0,0.0,0.0,0.0,0.0,0.0,0.0,0.0,0.0,0.0,0.0,0.0,0.0,0.0,0.0,0.0,0.0,0.0,0.0,0.0,0.0,0.0,0.0,0.0,0.0,0.0,0.0,0.0,0.0,0.0,0.0,0.0,0.0,0.0,0.0,0.0,0.0,0.0,0.0,0.0,0.0,0.0,0.0,0.0,0.0,0.0,0.0,0.0,0.0,0.0,0.0,0.0,0.0,0.0,0.0,0.0,0.0,0.0,0.0,0.0,0.0,0.0,0.0,0.0,0.0,0.0,0.0,0.0,0.0,0.0,0.0,0.0,0.0,0.0,0.0,0.0,0.0,0.0,0.0,0.0,0.0,0.0,0.0,0.0,0.0,0.0,0.0,0.0,0.0,0.0,0.0,0.0,0.0,0.0,0.0,0.0,0.0,0.0,0.0,0.0,0.0,0.0,0.0,0.0,0.0,0.0,0.0,0.0,0.0,0.0,0.0,0.0,0.0,0.0,0.0,0.0,0.0,0.0,0.0,0.0,0.0,0.0,0.0,0.0,0.0,0.0,0.0,0.0,0.0,0.0,0.0,0.0,0.0,0.0,0.0,0.0,0.0,0.0,0.0,0.0,0.0,0.0,0.0,0.0,0.0,0.0,0.0,0.0,0.0,0.0,0.0,0.0,0.0,0.0,0.0,0.0,0.0,0.0,0.0,0.0,0.0,0.0,0.0,0.0,0.0,0.0,0.0,0.0,0.0,0.0,0.0,0.0,0.0,0.0,0.0,0.0,0.0,0.0,0.0,0.0,0.0,0.0,0.0,0.0,0.0,0.0,0.0,0.0,0.0,0.0,0.0,0.0,0.0,0.0,0.0,0.0,0.0,0.0,0.0,0.0,0.0,0.0,0.0,0.0,0.0,0.0,0.0,0.0,0.0,0.0,0.0,0.0,0.0,0.0,0.0,0.0,0.0,0.0,0.0,0.0,0.0,0.0,0.0,0.0,0.0,0.0,0.0,0.0,0.0,0.0,0.0,0.0,0.0,0.0,0.0,0.0,0.0,0.0,0.0,0.0,0.0,0.0,0.0,0.0,0.0,0.0,0.0,0.0,0.0,0.0,0.0,0.0,0.0,0.0,0.0,0.0,0.0,0.0,0.0,0.0,0.0,0.0,0.0,0.0,0.0,0.0,0.0,0.0,0.0,0.0,0.0,0.0,0.0,0.0,0.0,0.0,0.0,0.0,0.0,0.0,0.0,0.0,0.0,0.0,0.0,0.0,0.0,0.0,0.0,0.0,0.0,0.0,0.0,0.0,0.0,0.0,0.0,0.0,0.0,0.0,0.0,0.0,0.0,0.0,0.0,0.0,0.0,0.0,0.0,0.0,0.0,0.0,0.0,0.0,0.0,0.0,0.0,0.0,0.0,0.0,0.0,0.0,0.0,0.0,0.0,0.0,0.0,0.0,0.0,0.0,0.0,0.0,0.0,0.0,0.0,0.0,0.0,0.0,0.0,0.0,0.0,0.0,0.0,0.0,0.0,0.0,0.0,0.0,0.0,0.0,0.0,0.0,0.0,0.0,0.0,0.0,0.0,0.0,0.0,0.0,0.0,0.0,0.0,0.0,0.0,0.0,0.0,0.0,0.0,0.0,0.0,0.0,0.0,0.0,0.0,0.0,0.0,0.0,0.0,0.0,0.0,0.0,0.0,0.0,0.0,0.0,0.0,0.0,0.0,0.0,0.0,0.0,0.0,0.0,0.0,0.0,0.0,0.0,0.0,0.0,0.0,0.0,0.0,0.0,0.0,0.0,0.0,0.0,0.0,0.0,0.0,0.0,0.0,0.0,0.0,0.0,0.0,0.0,0.0,0.0,0.0,0.0,0.0,0.0,0.0,0.0,0.0,0.0,0.0,0.0,0.0,0.0,0.0,0.0,0.0,0.0,0.0,0.0,0.0,0.0,0.0,0.0,0.0,0.0,0.0,0.0,0.0,0.0,0.0,0.0,0.0,0.0,0.0,0.0,0.0,0.0,0.0,0.0,0.0,0.0,0.0,0.1978,0.193,0.1325,0.0683,0.0039,0.0,0.0,0.0,0.0,0.0,0.0,0.0,0.0,0.0,0.0,0.0,0.0,0.0,0.0,0.0,0.0,0.0,0.0,0.0,0.0,0.0,0.0,0.0,0.0,0.0,0.0,0.0,0.0,0.0,0.0,0.0,0.0,0.0,0.0,0.0,0.0,0.0,0.0,0.0,0.0,0.0,0.0,0.0,0.0,0.0,0.0,0.0,0.0,0.0,0.0,0.0,0.0,0.0,0.0,0.0,0.0,0.0,0.0,0.0,0.0,0.0,0.0,0.0,0.0,0.0,0.0,0.0,0.0,0.0,0.0,0.0,0.0,0.0,0.0,0.0,0.0,0.0,0.0,0.0,0.0,0.0,0.0,0.0,0.0,0.0,0.0,0.0,0.0,0.0,0.0,0.0,0.0,0.0,0.0,0.0,0.0,0.0,0.0,0.0,0.0,0.0,0.0,0.0,0.0,0.0,0.0,0.0,0.0,0.0,0.0,0.0,0.0,0.2683,0.1665,0.0556,0.0,0.0,0.0,0.0,0.0,0.0,0.0,0.0,0.0,0.0,0.0,0.0,0.0,0.0,0.0,0.0,0.0,0.0,0.0,0.0,0.0,0.0,0.0,0.0,0.0,0.0,0.0,0.0,0.0,0.0,0.0,0.0,0.0,0.0,0.0,0.0,0.0,0.0,0.0,0.0,0.0,0.0,0.0,0.0,0.0,0.0,0.0,0.0,0.0,0.0,0.0,0.0,0.0,0.0,0.0,0.0,0.0,0.0,0.0,0.0,0.0,0.0,0.0,0.0,0.0,0.0,0.0,0.0,0.0,0.0,0.0,0.0,0.0,0.0,0.0,0.0,0.0,0.0,0.0,0.0,0.0,0.0,0.0,0.0,0.0,0.0,0.0,0.0,0.0,0.0,0.0,0.0,0.0,0.0,0.0,0.0,0.0,0.0,0.0,0.0,0.0,0.0,0.0,0.0,0.0,0.0,0.0,0.0,0.0,0.0,0.3602,0.3592,0.3496,0.0,0.1836,0.0,0.0,0.0,0.0,0.0,0.0,0.0,0.0,0.0,0.0,0.0,0.0,0.0,0.0,0.0,0.0,0.0,0.0,0.0,0.0,0.0,0.0,0.0,0.0,0.0,0.0,0.0,0.0,0.0,0.0,0.0,0.0,0.0,0.0,0.0,0.0,0.0,0.0,0.0,0.0,0.0,0.0,0.0,0.0,0.0,0.0,0.0,0.0,0.0,0.0,0.0,0.0,0.0,0.0,0.0,0.0,0.0,0.0,0.0,0.0,0.0,0.0,0.0,0.0,0.0,0.0,0.0,0.0,0.0,0.0,0.0,0.0,0.0,0.0,0.0,0.0,0.0,0.0,0.0,0.0,0.0,0.0,0.0,0.0,0.0,0.0,0.0,0.0,0.0,0.0,0.0,0.0,0.0,0.0,0.0,0.0,0.0,0.0,0.0,0.0,0.0,0.0,0.0,0.0,0.0,0.0,0.0,0.0,0.0,0.0,0.3598,0.3602,0.3595,0.3382,0.0,0.0,0.0,0.0,0.0,0.0,0.0,0.0,0.0,0.0,0.0,0.0,0.0,0.0,0.0,0.0,0.0,0.0,0.0,0.0,0.0,0.0,0.0,0.0,0.0,0.0,0.0,0.0,0.0,0.0,0.0,0.0,0.0,0.0,0.0,0.0,0.0,0.0,0.0,0.0,0.0,0.0,0.0,0.0,0.0,0.0,0.0,0.0,0.0,0.0,0.0,0.0,0.0,0.0,0.0,0.0,0.0,0.0,0.0,0.0,0.0,0.0,0.0,0.0,0.0,0.0,0.0,0.0,0.0,0.0,0.0,0.0,0.0,0.0,0.0,0.0,0.0,0.0,0.0,0.0,0.0,0.0,0.0,0.0,0.0,0.0,0.0,0.0,0.0,0.0,0.0,0.0,0.0,0.0,0.0,0.0,0.0,0.0,0.0,0.0,0.0,0.0,0.0,0.0,0.0,0.0,0.0,0.0,0.0,0.0,0.3135,0.3585,0.3578,0.3578,0.3578,0.3578,0.0,0.0,0.0,0.0,0.0,0.0,0.0,0.0,0.0,0.0,0.0,0.0,0.0,0.0,0.0,0.0,0.0,0.0,0.0,0.0,0.0,0.0,0.0,0.0,0.0,0.0,0.0,0.0,0.0,0.0,0.0,0.0,0.0,0.0,0.0,0.0,0.0,0.0,0.0,0.0,0.0,0.0,0.0,0.0,0.0,0.0,0.0,0.0,0.0,0.0,0.0,0.0,0.0,0.0,0.0,0.0,0.0,0.0,0.0,0.0,0.0,0.0,0.0,0.0,0.0,0.0,0.0,0.0,0.0,0.0,0.0,0.0,0.0,0.0,0.0,0.0,0.0,0.0,0.0,0.0,0.0,0.0,0.0,0.0,0.0,0.0,0.0,0.0,0.0,0.0,0.0,0.0,0.0,0.0,0.0,0.0,0.0,0.0,0.0,0.0,0.0,0.0,0.0,0.0,0.0,0.0,0.0,0.0,0.3503,0.3551,0.3588,0.3578,0.3578,0.3578,0.0,0.0,0.0,0.0,0.0,0.0,0.0,0.0,0.0,0.0,0.0,0.0,0.0,0.0,0.0,0.0,0.0,0.0,0.0,0.0,0.0,0.0,0.0,0.0,0.0,0.0,0.0,0.0,0.0,0.0,0.0,0.0,0.0,0.0,0.0,0.0,0.0,0.0,0.0,0.0,0.0,0.0,0.0,0.0,0.0,0.0,0.0,0.0,0.0,0.0,0.0,0.0,0.0,0.0,0.0,0.0,0.0,0.0,0.0,0.0,0.0,0.0,0.0,0.0,0.0,0.0,0.0,0.0,0.0,0.0,0.0,0.0,0.0,0.0,0.0,0.0,0.0,0.0,0.0,0.0,0.0,0.0,0.0,0.0,0.0,0.0,0.0,0.0,0.0,0.0,0.0,0.0,0.0,0.0,0.0,0.0,0.0,0.0,0.0,0.0,0.0,0.0,0.0,0.0,0.0,0.0,0.0,0.0,0.0,0.3588,0.3585,0.3585,0.3578,0.3578,0.3578,0.0,0.0,0.0,0.0,0.0,0.0,0.0,0.0,0.0,0.0,0.0,0.0,0.0,0.0,0.0,0.0,0.0,0.0,0.0,0.0,0.0,0.0,0.0,0.0,0.0,0.0,0.0,0.0,0.0,0.0,0.0,0.0,0.0,0.0,0.0,0.0,0.0,0.0,0.0,0.0,0.0,0.0,0.0,0.0,0.0,0.0,0.0,0.0,0.0,0.0,0.0,0.0,0.0,0.0,0.0,0.0,0.0,0.0,0.0,0.0,0.0,0.0,0.0,0.0,0.0,0.0,0.0,0.0,0.0,0.0,0.0,0.0,0.0,0.0,0.0,0.0,0.0,0.0,0.0,0.0,0.0,0.0,0.0,0.0,0.0,0.0,0.0,0.0,0.0,0.0,0.0,0.0,0.0,0.0,0.0,0.0,0.0,0.0,0.0,0.0,0.0,0.0,0.0,0.0,0.0,0.0,0.0,0.0,0.0,0.3678,0.0,0.3635,0.3678,0.3632,0.3612,0.0,0.0,0.0,0.0,0.0,0.0,0.0,0.0,0.0,0.0,0.0,0.0,0.0,0.0,0.0,0.0,0.0,0.0,0.0,0.0,0.0,0.0,0.0,0.0,0.0,0.0,0.0,0.0,0.0,0.0,0.0,0.0,0.0,0.0,0.0,0.0,0.0,0.0,0.0,0.0,0.0,0.0,0.0,0.0,0.0,0.0,0.0,0.0,0.0,0.0,0.0,0.0,0.0,0.0,0.0,0.0,0.0,0.0,0.0,0.0,0.0,0.0,0.0,0.0,0.0,0.0,0.0,0.0,0.0,0.0,0.0,0.0,0.0,0.0,0.0,0.0,0.0,0.0,0.0,0.0,0.0,0.0,0.0,0.0,0.0,0.0,0.0,0.0,0.0,0.0,0.0,0.0,0.0,0.0,0.0,0.0,0.0,0.0,0.0,0.0,0.0,0.0,0.0,0.0,0.0,0.0,0.0,0.0,0.389,0.3873,0.363,0.3618,0.383,0.3664,0.3654,0.0,0.0,0.0,0.0,0.0,0.0,0.0,0.0,0.0,0.0,0.0,0.0,0.0,0.0,0.0,0.0,0.0,0.0,0.0,0.0,0.0,0.0,0.0,0.0,0.0,0.0,0.0,0.0,0.0,0.0,0.0,0.0,0.0,0.0,0.0,0.0,0.0,0.0,0.0,0.0,0.0,0.0,0.0,0.0,0.0,0.0,0.0,0.0,0.0,0.0,0.0,0.0,0.0,0.0,0.0,0.0,0.0,0.0,0.0,0.0,0.0,0.0,0.0,0.0,0.0,0.0,0.0,0.0,0.0,0.0,0.0,0.0,0.0,0.0,0.0,0.0,0.0,0.0,0.0,0.0,0.0,0.0,0.0,0.0,0.0,0.0,0.0,0.0,0.0,0.0,0.0,0.0,0.0,0.0,0.0,0.0,0.0,0.0,0.0,0.0,0.0,0.0,0.0,0.0,0.0,0.0,0.0,0.0,0.0,0.2467,0.2365,0.2568,0.3066,0.3421,0.3705,0.0,0.0,0.0,0.0,0.0,0.0,0.0,0.0,0.0,0.0,0.0,0.0,0.0,0.0,0.0,0.0,0.0,0.0,0.0,0.0,0.0,0.0,0.0,0.0,0.0,0.0,0.0,0.0,0.0,0.0,0.0,0.0,0.0,0.0,0.0,0.0,0.0,0.0,0.0,0.0,0.0,0.0,0.0,0.0,0.0,0.0,0.0,0.0,0.0,0.0,0.0,0.0,0.0,0.0,0.0,0.0,0.0,0.0,0.0,0.0,0.0,0.0,0.0,0.0,0.0,0.0,0.0,0.0,0.0,0.0,0.0,0.0,0.0,0.0,0.0,0.0,0.0,0.0,0.0,0.0,0.0,0.0,0.0,0.0,0.0,0.0,0.0,0.0,0.0,0.0,0.0,0.0,0.0,0.0,0.0,0.0,0.0,0.0,0.0,0.0,0.0,0.0,0.0,0.0,0.0,0.0,0.0,0.0,0.0,0.225,0.2786,0.3268,0.3473,0.3797,0.3964,0.406,0.0,0.0,0.0,0.0,0.0,0.0,0.0,0.0,0.0,0.0,0.0,0.0,0.0,0.0,0.0,0.0,0.0,0.0,0.0,0.0,0.0,0.0,0.0,0.0,0.0,0.0,0.0,0.0,0.0,0.0,0.0,0.0,0.0,0.0,0.0,0.0,0.0,0.0,0.0,0.0,0.0,0.0,0.0,0.0,0.0,0.0,0.0,0.0,0.0,0.0,0.0,0.0,0.0,0.0,0.0,0.0,0.0,0.0,0.0,0.0,0.0,0.0,0.0,0.0,0.0,0.0,0.0,0.0,0.0,0.0,0.0,0.0,0.0,0.0,0.0,0.0,0.0,0.0,0.0,0.0,0.0,0.0,0.0,0.0,0.0,0.0,0.0,0.0,0.0,0.0,0.0,0.0,0.0,0.0,0.0,0.0,0.0,0.0,0.0,0.0,0.0,0.0,0.0,0.0,0.0,0.0,0.0,0.0,0.2823,0.4513,0.5174,0.4834,0.4584,0.4399,0.0,0.0,0.0,0.0,0.0,0.0,0.0,0.0,0.0,0.0,0.0,0.0,0.0,0.0,0.0,0.0,0.0,0.0,0.0,0.0,0.0,0.0,0.0,0.0,0.0,0.0,0.0,0.0,0.0,0.0,0.0,0.0,0.0,0.0,0.0,0.0,0.0,0.0,0.0,0.0,0.0,0.0,0.0,0.0,0.0,0.0,0.0,0.0,0.0,0.0,0.0,0.0,0.0,0.0,0.0,0.0,0.0,0.0,0.0,0.0,0.0,0.0,0.0,0.0,0.0,0.0,0.0,0.0,0.0,0.0,0.0,0.0,0.0,0.0,0.0,0.0,0.0,0.0,0.0,0.0,0.0,0.0,0.0,0.0,0.0,0.0,0.0,0.0,0.0,0.0,0.0,0.0,0.0,0.0,0.0,0.0,0.0,0.0,0.0,0.0,0.0,0.0,0.0,0.0,0.0,0.0,0.0,0.0,0.0,0.4508,0.5112,0.5308,0.5005,0.4706,0.4548,0.0,0.0,0.0,0.0,0.0,0.0,0.0,0.0,0.0,0.0,0.0,0.0,0.0,0.0,0.0,0.0,0.0,0.0,0.0,0.0,0.0,0.0,0.0,0.0,0.0,0.0,0.0,0.0,0.0,0.0,0.0,0.0,0.0,0.0,0.0,0.0,0.0,0.0,0.0,0.0,0.0,0.0,0.0,0.0,0.0,0.0,0.0,0.0,0.0,0.0,0.0,0.0,0.0,0.0,0.0,0.0,0.0,0.0,0.0,0.0,0.0,0.0,0.0,0.0,0.0,0.0,0.0,0.0,0.0,0.0,0.0,0.0,0.0,0.0,0.0,0.0,0.0,0.0,0.0,0.0,0.0,0.0,0.0,0.0,0.0,0.0,0.0,0.0,0.0,0.0,0.0,0.0,0.0,0.0,0.0,0.0,0.0,0.0,0.0,0.0,0.0,0.0,0.0,0.0,0.0,0.0,0.0,0.0,0.516,0.5053,0.5265,0.5331,0.5244,0.4972,0.4824,0.0,0.0,0.0,0.0,0.0,0.0,0.0,0.0,0.0,0.0,0.0,0.0,0.0,0.0,0.0,0.0,0.0,0.0,0.0,0.0,0.0,0.0,0.0,0.0,0.0,0.0,0.0,0.0,0.0,0.0,0.0,0.0,0.0,0.0,0.0,0.0,0.0,0.0,0.0,0.0,0.0,0.0,0.0,0.0,0.0,0.0,0.0,0.0,0.0,0.0,0.0,0.0,0.0,0.0,0.0,0.0,0.0,0.0,0.0,0.0,0.0,0.0,0.0,0.0,0.0,0.0,0.0,0.0,0.0,0.0,0.0,0.0,0.0,0.0,0.0,0.0,0.0,0.0,0.0,0.0,0.0,0.0,0.0,0.0,0.0,0.0,0.0,0.0,0.0,0.0,0.0,0.0,0.0,0.0,0.0,0.0,0.0,0.0,0.0,0.0,0.0,0.0,0.0,0.0,0.0,0.0,0.0,0.0,0.4938,0.4942,0.5216,0.5428,0.5418,0.5398,0.5228,0.0,0.0,0.0,0.0,0.0,0.0,0.0,0.0,0.0,0.0,0.0,0.0,0.0,0.0,0.0,0.0,0.0,0.0,0.0,0.0,0.0,0.0,0.0,0.0,0.0,0.0,0.0,0.0,0.0,0.0,0.0,0.0,0.0,0.0,0.0,0.0,0.0,0.0,0.0,0.0,0.0,0.0,0.0,0.0,0.0,0.0,0.0,0.0,0.0,0.0,0.0,0.0,0.0,0.0,0.0,0.0,0.0,0.0,0.0,0.0,0.0,0.0,0.0,0.0,0.0,0.0,0.0,0.0,0.0,0.0,0.0,0.0,0.0,0.0,0.0,0.0,0.0,0.0,0.0,0.0,0.0,0.0,0.0,0.0,0.0,0.0,0.0,0.0,0.0,0.0,0.0,0.0,0.0,0.0,0.0,0.0,0.0,0.0,0.0,0.0,0.0,0.0,0.0,0.0,0.0,0.0,0.0,0.0,0.4914,0.5084,0.5267,0.5428,0.5428,0.5398,0.5282,0.0,0.0,0.0,0.0,0.0,0.0,0.0,0.0,0.0,0.0,0.0,0.0,0.0,0.0,0.0,0.0,0.0,0.0,0.0,0.0,0.0,0.0,0.0,0.0,0.0,0.0,0.0,0.0,0.0,0.0,0.0,0.0,0.0,0.0,0.0,0.0,0.0,0.0,0.0,0.0,0.0,0.0,0.0,0.0,0.0,0.0,0.0,0.0,0.0,0.0,0.0,0.0,0.0,0.0,0.0,0.0,0.0,0.0,0.0,0.0,0.0,0.0,0.0,0.0,0.0,0.0,0.0,0.0,0.0,0.0,0.0,0.0,0.0,0.0,0.0,0.0,0.0,0.0,0.0,0.0,0.0,0.0,0.0,0.0,0.0,0.0,0.0,0.0,0.0,0.0,0.0,0.0,0.0,0.0,0.0,0.0,0.0,0.0,0.0,0.0,0.0,0.0,0.0,0.0,0.0,0.0,0.0,0.0,0.5151,0.523,0.5387,0.5463,0.5521,0.5439,0.5305,0.0,0.0,0.0,0.0,0.0,0.0,0.0,0.0,0.0,0.0,0.0,0.0,0.0,0.0,0.0,0.0,0.0,0.0,0.0,0.0,0.0,0.0,0.0,0.0,0.0,0.0,0.0,0.0,0.0,0.0,0.0,0.0,0.0,0.0,0.0,0.0,0.0,0.0,0.0,0.0,0.0,0.0,0.0,0.0,0.0,0.0,0.0,0.0,0.0,0.0,0.0,0.0,0.0,0.0,0.0,0.0,0.0,0.0,0.0,0.0,0.0,0.0,0.0,0.0,0.0,0.0,0.0,0.0,0.0,0.0,0.0,0.0,0.0,0.0,0.0,0.0,0.0,0.0,0.0,0.0,0.0,0.0,0.0,0.0,0.0,0.0,0.0,0.0,0.0,0.0,0.0,0.0,0.0,0.0,0.0,0.0,0.0,0.0,0.0,0.0,0.0,0.0,0.0,0.0,0.0,0.0,0.0,0.5222,0.5449,0.5449,0.542,0.5484,0.5583,0.545,0.5283,0.4985,0.0,0.0,0.0,0.0,0.0,0.0,0.0,0.0,0.0,0.0,0.0,0.0,0.0,0.0,0.0,0.0,0.0,0.0,0.0,0.0,0.0,0.0,0.0,0.0,0.0,0.0,0.0,0.0,0.0,0.0,0.0,0.0,0.0,0.0,0.0,0.0,0.0,0.0,0.0,0.0,0.0,0.0,0.0,0.0,0.0,0.0,0.0,0.0,0.0,0.0,0.0,0.0,0.0,0.0,0.0,0.0,0.0,0.0,0.0,0.0,0.0,0.0,0.0,0.0,0.0,0.0,0.0,0.0,0.0,0.0,0.0,0.0,0.0,0.0,0.0,0.0,0.0,0.0,0.0,0.0,0.0,0.0,0.0,0.0,0.0,0.0,0.0,0.0,0.0,0.0,0.0,0.0,0.0,0.0,0.0,0.0,0.0,0.0,0.0,0.0,0.0,0.0,0.0,0.0,0.0,0.5057,0.5478,0.5719,0.5549,0.5671,0.5684,0.5589,0.5487,0.5392,0.5312,0.0,0.0,0.0,0.0,0.0,0.0,0.0,0.0,0.0,0.0,0.0,0.0,0.0,0.0,0.0,0.0,0.0,0.0,0.0,0.0,0.0,0.0,0.0,0.0,0.0,0.0,0.0,0.0,0.0,0.0,0.0,0.0,0.0,0.0,0.0,0.0,0.0,0.0,0.0,0.0,0.0,0.0,0.0,0.0,0.0,0.0,0.0,0.0,0.0,0.0,0.0,0.0,0.0,0.0,0.0,0.0,0.0,0.0,0.0,0.0,0.0,0.0,0.0,0.0,0.0,0.0,0.0,0.0,0.0,0.0,0.0,0.0,0.0,0.0,0.0,0.0,0.0,0.0,0.0,0.0,0.0,0.0,0.0,0.0,0.0,0.0,0.0,0.0,0.0,0.0,0.0,0.0,0.0,0.0,0.0,0.0,0.0,0.0,0.0,0.0,0.0,0.0,0.0,0.0,0.0,0.5243,0.561,0.5804,0.5806,0.581,0.5806,0.5813,0.5527,0.5306,0.0,0.0,0.0,0.0,0.0,0.0,0.0,0.0,0.0,0.0,0.0,0.0,0.0,0.0,0.0,0.0,0.0,0.0,0.0,0.0,0.0,0.0,0.0,0.0,0.0,0.0,0.0,0.0,0.0,0.0,0.0,0.0,0.0,0.0,0.0,0.0,0.0,0.0,0.0,0.0,0.0,0.0,0.0,0.0,0.0,0.0,0.0,0.0,0.0,0.0,0.0,0.0,0.0,0.0,0.0,0.0,0.0,0.0,0.0,0.0,0.0,0.0,0.0,0.0,0.0,0.0,0.0,0.0,0.0,0.0,0.0,0.0,0.0,0.0,0.0,0.0,0.0,0.0,0.0,0.0,0.0,0.0,0.0,0.0,0.0,0.0,0.0,0.0,0.0,0.0,0.0,0.0,0.0,0.0,0.0,0.0,0.0,0.0,0.0,0.0,0.0,0.0,0.0,0.0,0.0,0.0,0.5473,0.5731,0.594,0.6013,0.5942,0.5939,0.602,0.5671,0.5375,0.0,0.0,0.0,0.0,0.0,0.0,0.0,0.0,0.0,0.0,0.0,0.0,0.0,0.0,0.0,0.0,0.0,0.0,0.0,0.0,0.0,0.0,0.0,0.0,0.0,0.0,0.0,0.0,0.0,0.0,0.0,0.0,0.0,0.0,0.0,0.0,0.0,0.0,0.0,0.0,0.0,0.0,0.0,0.0,0.0,0.0,0.0,0.0,0.0,0.0,0.0,0.0,0.0,0.0,0.0,0.0,0.0,0.0,0.0,0.0,0.0,0.0,0.0,0.0,0.0,0.0,0.0,0.0,0.0,0.0,0.0,0.0,0.0,0.0,0.0,0.0,0.0,0.0,0.0,0.0,0.0,0.0,0.0,0.0,0.0,0.0,0.0,0.0,0.0,0.0,0.0,0.0,0.0,0.0,0.0,0.0,0.0,0.0,0.0,0.0,0.0,0.0,0.0,0.0,0.0,0.0,0.5566,0.5988,0.6152,0.6034,0.6149,0.6152,0.603,0.5962,0.573,0.0,0.0,0.0,0.0,0.0,0.0,0.0,0.0,0.0,0.0,0.0,0.0,0.0,0.0,0.0,0.0,0.0,0.0,0.0,0.0,0.0,0.0,0.0,0.0,0.0,0.0,0.0,0.0,0.0,0.0,0.0,0.0,0.0,0.0,0.0,0.0,0.0,0.0,0.0,0.0,0.0,0.0,0.0,0.0,0.0,0.0,0.0,0.0,0.0,0.0,0.0,0.0,0.0,0.0,0.0,0.0,0.0,0.0,0.0,0.0,0.0,0.0,0.0,0.0,0.0,0.0,0.0,0.0,0.0,0.0,0.0,0.0,0.0,0.0,0.0,0.0,0.0,0.0,0.0,0.0,0.0,0.0,0.0,0.0,0.0,0.0,0.0,0.0,0.0,0.0,0.0,0.0,0.0,0.0,0.0,0.0,0.0,0.0,0.0,0.0,0.0,0.0,0.0,0.0,0.0,0.5644,0.5718,0.6084,0.6239,0.6162,0.6227,0.623,0.6162,0.6092,0.5895,0.0,0.0,0.0,0.0,0.0,0.0,0.0,0.0,0.0,0.0,0.0,0.0,0.0,0.0,0.0,0.0,0.0,0.0,0.0,0.0,0.0,0.0,0.0,0.0,0.0,0.0,0.0,0.0,0.0,0.0,0.0,0.0,0.0,0.0,0.0,0.0,0.0,0.0,0.0,0.0,0.0,0.0,0.0,0.0,0.0,0.0,0.0,0.0,0.0,0.0,0.0,0.0,0.0,0.0,0.0,0.0,0.0,0.0,0.0,0.0,0.0,0.0,0.0,0.0,0.0,0.0,0.0,0.0,0.0,0.0,0.0,0.0,0.0,0.0,0.0,0.0,0.0,0.0,0.0,0.0,0.0,0.0,0.0,0.0,0.0,0.0,0.0,0.0,0.0,0.0,0.0,0.0,0.0,0.0,0.0,0.0,0.0,0.0,0.0,0.0,0.0,0.0,0.0,0.0,0.0,0.0,0.5806,0.6105,0.6261,0.6261,0.6261,0.6261,0.6254,0.6077,0.0,0.0,0.0,0.0,0.0,0.0,0.0,0.0,0.0,0.0,0.0,0.0,0.0,0.0,0.0,0.0,0.0,0.0,0.0,0.0,0.0,0.0,0.0,0.0,0.0,0.0,0.0,0.0,0.0,0.0,0.0,0.0,0.0,0.0,0.0,0.0,0.0,0.0,0.0,0.0,0.0,0.0,0.0,0.0,0.0,0.0,0.0,0.0,0.0,0.0,0.0,0.0,0.0,0.0,0.0,0.0,0.0,0.0,0.0,0.0,0.0,0.0,0.0,0.0,0.0,0.0,0.0,0.0,0.0,0.0,0.0,0.0,0.0,0.0,0.0,0.0,0.0,0.0,0.0,0.0,0.0,0.0,0.0,0.0,0.0,0.0,0.0,0.0,0.0,0.0,0.0,0.0,0.0,0.0,0.0,0.0,0.0,0.0,0.0,0.0,0.0,0.0,0.0,0.0,0.0,0.0,0.58,0.581,0.6105,0.6261,0.6261,0.6261,0.6261,0.6257,0.6101,0.5945,0.0,0.0,0.0,0.0,0.0,0.0,0.0,0.0,0.0,0.0,0.0,0.0,0.0,0.0,0.0,0.0,0.0,0.0,0.0,0.0,0.0,0.0,0.0,0.0,0.0,0.0,0.0,0.0,0.0,0.0,0.0,0.0,0.0,0.0,0.0,0.0,0.0,0.0,0.0,0.0,0.0,0.0,0.0,0.0,0.0,0.0,0.0,0.0,0.0,0.0,0.0,0.0,0.0,0.0,0.0,0.0,0.0,0.0,0.0,0.0,0.0,0.0,0.0,0.0,0.0,0.0,0.0,0.0,0.0,0.0,0.0,0.0,0.0,0.0,0.0,0.0,0.0,0.0,0.0,0.0,0.0,0.0,0.0,0.0,0.0,0.0,0.0,0.0,0.0,0.0,0.0,0.0,0.0,0.0,0.0,0.0,0.0,0.0,0.0,0.0,0.0,0.0,0.0,0.0,0.0,0.58,0.5806,0.6105,0.6261,0.6261,0.6261,0.6261,0.6261,0.6112,0.6033,0.0,0.0,0.0,0.0,0.0,0.0,0.0,0.0,0.0,0.0,0.0,0.0,0.0,0.0,0.0,0.0,0.0,0.0,0.0,0.0,0.0,0.0,0.0,0.0,0.0,0.0,0.0,0.0,0.0,0.0,0.0,0.0,0.0,0.0,0.0,0.0,0.0,0.0,0.0,0.0,0.0,0.0,0.0,0.0,0.0,0.0,0.0,0.0,0.0,0.0,0.0,0.0,0.0,0.0,0.0,0.0,0.0,0.0,0.0,0.0,0.0,0.0,0.0,0.0,0.0,0.0,0.0,0.0,0.0,0.0,0.0,0.0,0.0,0.0,0.0,0.0,0.0,0.0,0.0,0.0,0.0,0.0,0.0,0.0,0.0,0.0,0.0,0.0,0.0,0.0,0.0,0.0,0.0,0.0,0.0,0.0,0.0,0.0,0.0,0.0,0.0,0.0,0.0,0.0,0.0,0.58,0.5803,0.6105,0.6261,0.6261,0.6261,0.6261,0.6257,0.6156,0.6179,0.0,0.0,0.0,0.0,0.0,0.0,0.0,0.0,0.0,0.0,0.0,0.0,0.0,0.0,0.0,0.0,0.0,0.0,0.0,0.0,0.0,0.0,0.0,0.0,0.0,0.0,0.0,0.0,0.0,0.0,0.0,0.0,0.0,0.0,0.0,0.0,0.0,0.0,0.0,0.0,0.0,0.0,0.0,0.0,0.0,0.0,0.0,0.0,0.0,0.0,-0.0387,-0.167,0.0,0.0,0.0,0.0,0.0,0.0,0.0,0.0,0.0,0.0,0.0,0.0,0.0,0.0,0.0,0.0,0.0,0.0,0.0,0.0,0.0,0.0,0.0,0.0,0.0,0.0,0.0,0.4857,0.0,0.0,0.4901,0.0,0.0,0.0,0.0,0.0,0.0,0.0,0.0,0.0,0.0,0.0,0.0,0.0,0.0,0.0,0.0,0.0,0.0,0.0,0.0,0.0,0.0,0.5728,0.5806,0.6105,0.6261,0.6261,0.6261,0.6261,0.6261,0.6254,0.6259,0.6257,0.0,0.0,0.0,0.0,0.0,0.0,0.0,0.0,0.0,0.0,0.0,0.0,0.0,0.0,0.0,0.0,0.0,0.0,0.0,0.0,0.0,0.0,0.0,0.0,0.0,0.0,0.0,0.0,0.0,0.0,0.0,0.0,0.0,0.0,0.0,0.0,0.0,0.0,0.0,0.0,0.0,0.0,0.0,0.0,0.0,0.0,0.0,0.0,0.0,-0.1413,0.0,0.0,0.0,0.0,0.0,0.0,0.0,0.0,0.0,0.0,0.0,0.0,0.0,0.0,0.0,0.0,0.0,0.0,0.0,0.0,0.0,0.0,0.0,0.0,0.0,0.0,0.0,0.5308,0.5216,0.0,0.0,0.0,0.0,0.0,0.0,0.0,0.0,0.0,0.0,0.0,0.5661,0.5664,0.0,0.0,0.0,0.0,0.0,0.0,0.0,0.0,0.0,0.0,0.0,0.0,0.5728,0.5817,0.6105,0.6261,0.6261,0.6261,0.6261,0.6261,0.6261,0.6266,0.6108,0.0,0.0,0.0,0.0,0.0,0.0,0.0,0.0,0.0,0.0,0.0,0.0,0.0,0.0,0.0,0.0,0.0,0.0,0.0,0.0,0.0,0.0,0.0,0.0,0.0,0.0,0.0,0.0,0.0,0.0,0.0,0.0,0.0,0.0,0.0,0.0,0.0,0.0,0.0,0.0,0.0,0.0,0.0,0.0,0.0,0.0,0.0,0.0,0.0,0.0,0.0,0.0,0.0,0.0,0.0,0.0,0.0,0.0,-0.3765,-0.4265,-0.5088,-0.5483,-0.4697,0.0,0.0,0.0,0.0,0.0,0.0,0.0,0.0,0.0,0.0,0.0,0.0,0.0,0.0,0.5579,0.545,0.5494,0.0,0.0,0.0,0.0,0.0,0.0,0.0,0.0,0.5776,0.5844,0.5881,0.5881,0.5881,0.0,0.5827,0.5708,0.0,0.0,0.0,0.0,0.0,0.0,0.0,0.0,0.5728,0.5817,0.6105,0.6261,0.6261,0.6261,0.6261,0.6261,0.6261,0.6213,0.6112,0.6268,0.6136,0.0,0.0,0.0,0.0,0.0,0.0,0.0,0.0,0.0,0.0,0.0,0.0,0.0,0.0,0.0,0.0,0.0,0.0,0.0,0.0,0.0,0.0,0.0,0.0,0.0,0.0,0.0,0.0,0.0,0.0,0.0,0.0,0.0,0.0,0.0,0.0,0.0,0.0,0.0,0.0,0.0,0.0,0.0,0.0,0.0,0.0,0.0,-0.1858,-0.4216,-0.5391,-0.6074,-0.6233,-0.39,-0.2881,-0.5532,0.0,0.0,-0.5415,-0.5858,-0.614,-0.5715,-0.5236,-0.503,-0.5296,-0.5771,-0.5977,0.0,0.0,0.0,0.0,0.5593,0.0,0.0,0.0,0.581,0.5732,0.0,0.5745,0.0,0.0,0.0,0.0,0.5464,0.5728,0.0,0.0,0.6101,0.6173,0.6044,0.6037,0.6037,0.603,0.5891,0.582,0.5817,0.5817,0.0,0.0,0.0,0.0,0.0,0.0,0.5728,0.582,0.6108,0.6261,0.6261,0.6261,0.6261,0.6261,0.6261,0.6261,0.6254,0.6273,0.619,0.6027,0.5759,0.0,0.0,0.0,0.0,0.0,0.0,0.0,0.0,0.0,0.0,0.0,0.0,0.0,0.0,0.0,0.0,0.0,0.0,0.0,0.0,0.0,0.0,0.0,0.0,0.0,0.0,0.0,0.0,0.0,0.0,0.0,0.0,0.0,0.0,0.0,0.0,0.0,0.0,0.0,0.0,0.0,0.0,0.0,0.0,-0.1633,-0.2979,-0.3254,0.0,0.0,-0.6197,-0.5991,-0.582,-0.6205,-0.6239,-0.6124,-0.5545,-0.5911,-0.6116,-0.5621,-0.5571,-0.5673,-0.5463,-0.5659,-0.5713,0.6197,0.0,0.0,0.0,0.0,0.5742,0.5827,0.5962,0.5966,0.5939,0.5908,0.5945,0.0,0.0,0.0,0.0,0.0,0.0,0.6085,0.5892,0.6057,0.6132,0.6193,0.6196,0.6193,0.6193,0.6152,0.6129,0.6129,0.6129,0.5945,0.5665,0.0,0.0,0.0,0.0,0.5778,0.5969,0.6159,0.6261,0.6261,0.6261,0.6261,0.6261,0.6261,0.6261,0.6257,0.6297,0.6222,0.6034,0.5949,0.0,0.0,0.0,0.0,0.0,0.0,0.0,0.0,0.0,0.0,0.0,0.0,0.0,0.0,0.0,0.0,0.0,0.0,0.0,0.0,0.0,0.0,0.0,0.0,0.0,0.0,0.0,0.0,0.0,0.0,0.0,0.0,0.0,0.0,0.0,0.0,0.0,0.0,0.0,0.0,0.0,0.0,0.0,0.0,-0.0506,-0.188,-0.4896,-0.5667,-0.5976,-0.6268,-0.6242,-0.6208,-0.6287,-0.6322,-0.6225,-0.6115,-0.6155,-0.6222,-0.6077,-0.6077,-0.6081,-0.6077,-0.6077,-0.6148,0.9045,0.7965,0.6678,0.6378,0.666,0.6289,0.6152,0.6295,0.6298,0.6261,0.621,0.6268,0.6179,0.5983,0.5905,0.0,0.0,0.0,0.6384,0.6298,0.6295,0.6346,0.643,0.6437,0.6434,0.6437,0.6437,0.6437,0.6437,0.6373,0.621,0.5939,0.0,0.564,0.5677,0.5817,0.5862,0.603,0.6183,0.6261,0.6261,0.6261,0.6261,0.6261,0.6261,0.6261,0.6261,0.6261,0.6217,0.6125,0.6064,0.5949,0.0,0.0,0.0,0.0,0.0,0.0,0.0,0.0,0.0,0.0,0.0,0.0,0.0,0.0,0.0,0.0,0.0,0.0,0.0,0.0,0.0,0.0,0.0,0.0,0.0,0.0,0.0,0.0,0.0,0.0,0.0,0.0,0.0,0.0,0.0,0.0,0.0,0.0,0.0,0.0,0.0,0.0,0.0,-0.0668,-0.1856,-0.3446,-0.5162,-0.6129,-0.6284,-0.628,-0.6257,-0.6261,-0.6261,-0.6261,-0.6261,-0.6261,-0.6261,-0.6261,-0.6261,-0.6261,-0.6261,-0.6261,-0.6261,1.3231,1.1331,0.8626,0.7807,0.8196,0.7243,0.6845,0.6732,0.6819,0.6733,0.6522,0.6654,0.6559,0.6298,0.5977,0.0,0.5913,0.6491,0.6728,0.6702,0.6702,0.6702,0.6698,0.6698,0.6702,0.6698,0.6702,0.6702,0.6692,0.6559,0.6481,0.6301,0.612,0.5912,0.5778,0.5902,0.6054,0.6067,0.6207,0.6278,0.6278,0.6345,0.6261,0.6261,0.6261,0.6261,0.6261,0.6261,0.6261,0.6254,0.6125,0.6044,0.6023,0.0,0.0,0.0,0.0,0.0,0.0,0.0,0.0,0.0,0.0,0.0,0.0,0.0,0.0,0.0,0.0,0.0,0.0,0.0,0.0,0.0,0.0,0.0,0.0,0.0,0.0,0.0,0.0,0.0,0.0,0.0,0.0,0.0,0.0,0.0,0.0,0.0,0.0,0.0,0.0,0.0,0.0,-0.1876,-0.2905,-0.1625,-0.3742,-0.6173,-0.6251,-0.6257,-0.6261,-0.6261,-0.6261,-0.6261,-0.6261,-0.6261,-0.6261,-0.6261,-0.6261,-0.6261,-0.6261,-0.6261,-0.6261,1.4878,1.411,1.3774,1.1841,0.8939,0.9611,0.8794,0.7118,0.8064,0.7889,0.6824,0.6861,0.677,0.6597,0.6593,0.6528,0.648,0.673,0.6836,0.6957,0.6785,0.6702,0.6702,0.6702,0.6702,0.6702,0.6702,0.6702,0.6698,0.6664,0.6671,0.6635,0.6482,0.6295,0.6159,0.6186,0.6261,0.6366,0.6403,0.6424,0.6417,0.6318,0.6261,0.6261,0.6261,0.6261,0.6261,0.6261,0.6261,0.6261,0.6304,0.6156,0.6034,0.5854,0.0,0.0,0.0,0.0,0.0,0.0,0.0,0.0,0.0,0.0,0.0,0.0,0.0,0.0,0.0,0.0,0.0,0.0,0.0,0.0,0.0,0.0,0.0,0.0,0.0,0.0,0.0,0.0,0.0,0.0,0.0,0.0,0.0,0.0,0.0,0.0,0.0,0.0,0.0,0.0,0.0,-0.3182,-0.524,-0.4859,-0.5643,-0.6271,-0.6261,-0.6261,-0.6261,-0.6261,-0.6261,-0.6261,-0.6261,-0.6261,-0.6261,-0.6261,-0.6261,-0.6261,-0.6261,-0.6261,-0.6261,1.5691,1.5545,1.5783,1.4013,1.1187,1.0631,0.9217,0.7434,0.8151,0.8012,0.7224,0.7227,0.718,0.7102,0.7099,0.7011,0.6919,0.7102,0.7281,0.7285,0.7193,0.7099,0.7099,0.7099,0.7065,0.7,0.6997,0.6966,0.6895,0.6898,0.6854,0.6857,0.6773,0.6695,0.6471,0.6363,0.6302,0.638,0.6441,0.6505,0.6566,0.643,0.6325,0.6264,0.6273,0.6204,0.6057,0.6057,0.6054,0.6057,0.6057,0.6017,0.5932,0.5786,0.5674,0.0,0.0,0.0,0.0,0.0,0.0,0.0,0.0,0.0,0.0,0.0,0.0,0.0,0.0,0.0,0.0,0.0,0.0,0.0,0.0,0.0,0.0,0.0,0.0,0.0,0.0,0.0,0.0,0.0,0.0,0.0,0.0,0.0,0.0,0.0,0.0,0.0,0.0,-0.0786,-0.2435,-0.3929,-0.5266,-0.6051,-0.6278,-0.6268,-0.6261,-0.6261,-0.6261,-0.6261,-0.6261,-0.6261,-0.6261,-0.6261,-0.6261,-0.6261,-0.6261,-0.6261,-0.6261,-0.6261,-0.6261,1.611,1.6306,1.6052,1.5127,1.3788,1.1179,0.9251,0.7939,0.8121,0.7925,0.7624,0.7607,0.7597,0.7597,0.75,0.7308,0.7211,0.7503,0.7695,0.7695,0.7597,0.7597,0.7597,0.7597,0.7529,0.7404,0.74,0.7333,0.7115,0.7111,0.7187,0.7081,0.7149,0.6981,0.6741,0.6441,0.6393,0.6318,0.6441,0.6569,0.6692,0.6532,0.6376,0.6234,0.6256,0.611,0.581,0.5728,0.58,0.58,0.58,0.5806,0.5827,0.5694,0.5633,0.0,0.531,0.0,0.0,0.0,0.0,0.0,0.0,0.0,0.0,0.0,0.0,0.0,0.0,0.0,0.0,0.0,0.0,0.0,0.0,0.0,0.0,0.0,0.0,0.0,0.0,0.0,0.0,0.0,0.0,0.0,0.0,0.0,0.0,0.0,0.0,-0.0786,-0.0549,-0.1883,-0.4886,-0.4631,-0.43,-0.5957,-0.6268,-0.6261,-0.6261,-0.6261,-0.6261,-0.6261,-0.6261,-0.6261,-0.6261,-0.6261,-0.6261,-0.6261,-0.6261,-0.6261,-0.6261,-0.6261,-0.6261,1.6733,1.662,1.6785,1.5802,1.4172,1.3682,1.1873,0.9604,1.0665,0.9807,0.7763,0.7648,0.7597,0.7597,0.7597,0.7503,0.7503,0.7597,0.7698,0.7889,0.7695,0.7597,0.7597,0.7597,0.7584,0.7556,0.756,0.7543,0.7512,0.7512,0.7356,0.7138,0.7111,0.7071,0.7015,0.0,0.0,0.0,0.6644,0.6671,0.6692,0.6437,0.6227,0.6078,0.5969,0.0,0.581,0.5581,0.5581,0.58,0.58,0.0,0.0,0.0,0.0,0.0,0.0,0.0,0.0,0.0,0.0,0.0,0.0,0.0,0.0,0.0,0.0,0.0,0.0,0.0,0.0,0.0,0.0,0.0,0.0,0.0,0.0,0.0,0.0,0.0,0.0,0.0,0.0,0.0,0.0,0.0,0.0,0.0,0.0,-0.2914,-0.4977,-0.4969,-0.345,-0.3446,-0.5924,-0.5902,-0.5643,-0.6278,-0.6268,-0.6261,-0.6261,-0.6261,-0.6261,-0.6261,-0.6261,-0.6261,-0.6261,-0.6261,-0.6261,-0.6261,-0.6261,-0.6261,-0.6261,-0.6261,-0.6261,1.7035,1.6907,1.6874,1.6321,0.0,1.5463,1.4202,1.2092,1.1991,1.0719,0.8886,0.8136,0.7818,0.7818,0.7818,0.7818,0.7818,0.7818,0.7821,0.8018,0.7914,0.7818,0.7818,0.7814,0.7777,0.7706,0.7702,0.7668,0.76,0.7597,0.756,0.7386,0.7312,0.7333,0.7351,0.7197,0.6959,0.6814,0.6729,0.6763,0.6905,0.6702,0.6481,0.6257,0.5943,0.0,0.0,0.0,0.0,0.0,0.0,0.0,0.0,0.5844,0.0,0.5868,0.3878,0.2701,0.2671,0.1038,0.0,0.0,0.0,0.0,0.0,0.0,0.0,0.0,0.0,0.0,0.0,0.0,0.0,0.0,0.0,0.0,0.0,0.0,0.0,0.0,0.0,0.0,0.0,0.0,0.0,0.0,0.0,-0.0786,-0.2833,-0.4894,-0.6254,-0.6234,-0.4467,-0.391,-0.5821,-0.6291,-0.6274,-0.6271,-0.6264,-0.6261,-0.6261,-0.6261,-0.6261,-0.6261,-0.6261,-0.6261,-0.6261,-0.6261,-0.6261,-0.6261,-0.6261,-0.6261,-0.6261,-0.6261,-0.6261,1.7228,1.7208,1.6967,1.6834,1.678,1.678,1.5995,1.4604,1.2742,0.0,0.0,0.8825,0.8233,0.8038,0.8038,0.8038,0.8038,0.8038,0.8038,0.8038,0.8038,0.8038,0.8038,0.8038,0.7974,0.7855,0.7851,0.779,0.7678,0.7678,0.7675,0.7675,0.7651,0.7624,0.759,0.7472,0.7185,0.7017,0.687,0.6897,0.7095,0.6963,0.6756,0.6478,0.609,0.5894,0.5854,0.5888,0.5875,0.5803,0.58,0.5813,0.584,0.5844,0.5871,0.5848,0.4284,0.238,0.0,0.0,0.0,0.0,0.0,0.0,0.0,0.0,0.0,0.0,0.0,0.0,0.0,0.0,0.0,0.0,0.0,0.0,0.0,0.0,0.0,0.0,0.0,0.0,0.0,0.0,-0.0392,0.0,0.0,-0.1255,-0.4807,-0.5924,-0.6315,-0.6139,-0.4935,-0.4455,-0.5799,-0.6278,-0.6271,-0.6261,-0.6261,-0.6261,-0.6261,-0.6261,-0.6261,-0.6261,-0.6261,-0.6261,-0.6261,-0.6261,-0.6261,-0.6261,-0.6261,-0.6261,-0.6261,-0.6261,-0.6261,1.7522,1.7515,1.7475,1.7315,1.7088,1.7088,1.6813,1.6089,1.321,1.117,0.9998,0.9805,0.9118,0.8038,0.8038,0.8038,0.8038,0.8038,0.8038,0.8038,0.8038,0.8038,0.8038,0.8038,0.8028,0.8011,0.8007,0.7997,0.798,0.7974,0.7977,0.7957,0.7848,0.7723,0.7607,0.7289,0.7194,0.7309,0.7149,0.7028,0.6956,0.681,0.6651,0.6478,0.6339,0.6179,0.6003,0.6175,0.6172,0.6022,0.5875,0.5857,0.5989,0.5932,0.6078,0.622,0.5935,0.4135,0.0,0.0,0.0,0.0,0.0,0.0,0.0,0.0,0.0,0.0,0.0,0.0,0.0,0.0,0.0,0.0,0.0,0.0,0.0,0.0,0.0,0.0,-0.3303,-0.5207,-0.4886,-0.3686,-0.2031,0.0,0.0,-0.1092,-0.3517,-0.5174,-0.6139,-0.6295,-0.6116,-0.6028,-0.6193,-0.6268,-0.6264,-0.6261,-0.6261,-0.6261,-0.6261,-0.6261,-0.6261,-0.6261,-0.6261,-0.6261,-0.6261,-0.6261,-0.6261,-0.6261,-0.6261,-0.6261,-0.6261,-0.6261,-0.6261,1.7589,1.7589,1.7589,1.7508,1.7375,1.7215,1.7074,1.6806,1.5276,1.372,1.2319,1.1628,1.0487,0.9122,0.9118,0.8726,0.8038,0.8038,0.8038,0.8038,0.8038,0.8038,0.8038,0.8038,0.8038,0.8038,0.8038,0.8038,0.8038,0.8038,0.8038,0.8035,0.7967,0.7862,0.7726,0.7614,0.7506,0.7377,0.7234,0.7037,0.7044,0.6976,0.6868,0.6725,0.674,0.6596,0.6359,0.6283,0.6287,0.6207,0.6125,0.6081,0.6149,0.6166,0.5656,0.4696,0.5674,0.4411,0.0236,0.0,0.0,0.0,0.0,0.0,0.0,0.0,0.0,0.0,0.0,0.0,0.0,0.0,0.0,0.0,0.0,0.0,0.0,0.0,0.0,0.0,-0.3698,-0.6247,-0.625,-0.5427,-0.4621,-0.3517,-0.3439,-0.3828,-0.4611,-0.564,-0.6281,-0.6274,-0.6268,-0.6264,-0.6268,-0.6264,-0.6261,-0.6261,-0.6261,-0.6261,-0.6261,-0.6261,-0.6261,-0.6261,-0.6261,-0.6261,-0.6261,-0.6261,-0.6261,-0.6261,-0.6261,-0.6261,-0.6261,-0.6261,-0.6261,1.7589,1.7589,1.7589,1.7589,1.7562,1.7341,1.7241,1.7221,1.6994,1.6218,1.4853,1.3479,1.2059,1.0717,1.0573,0.9557,0.8161,0.834,0.8333,0.8038,0.8038,0.8038,0.8038,0.8038,0.8038,0.8038,0.8038,0.8038,0.8038,0.8038,0.8038,0.8038,0.8038,0.7977,0.7868,0.7962,0.7828,0.7485,0.725,0.7141,0.7149,0.7139,0.7085,0.6987,0.7032,0.6993,0.6756,0.6425,0.6258,0.6315,0.6278,0.6261,0.6264,0.6278,0.5569,0.4151,0.4482,0.3461,0.0,0.0,0.0,0.0,0.0,0.0,0.0,0.0,0.0,0.0,0.0,0.0,0.0,0.0,0.0,0.0,0.0,0.0,0.0,-0.1412,-0.1176,-0.1255,-0.401,-0.6318,-0.6315,-0.6298,-0.6126,-0.6045,-0.6288,-0.6285,-0.6274,-0.6271,-0.6268,-0.6264,-0.6261,-0.6261,-0.6261,-0.6261,-0.6261,-0.6261,-0.6261,-0.6261,-0.6261,-0.6261,-0.6261,-0.6261,-0.6261,-0.6261,-0.6261,-0.6261,-0.6261,-0.6261,-0.6261,-0.6261,-0.6261,-0.6261,-0.6261,1.7589,1.7589,1.7589,1.7589,1.7582,1.7549,1.7528,1.7528,1.7508,1.7335,1.6721,1.5232,1.379,1.2618,1.2334,1.0706,0.8345,0.9252,0.9221,0.8141,0.8038,0.8038,0.8038,0.8038,0.8038,0.8038,0.8038,0.8038,0.8038,0.8038,0.8038,0.8038,0.8038,0.8031,0.8014,0.8014,0.7933,0.777,0.7351,0.7152,0.7071,0.7139,0.7044,0.7034,0.7087,0.7093,0.7041,0.6535,0.6301,0.6278,0.6332,0.6268,0.6278,0.6288,0.6224,0.5843,0.2671,0.0314,0.0,0.0,0.0,0.0,0.0,0.0,0.0,0.0,0.0,0.0,0.0,0.0,0.0,0.0,0.0,0.0,0.0,-0.1492,-0.4646,-0.5686,-0.4961,-0.2969,-0.4937,-0.6281,-0.6285,-0.6274,-0.6264,-0.6264,-0.6264,-0.6268,-0.6264,-0.6264,-0.6261,-0.6261,-0.6261,-0.6261,-0.6261,-0.6261,-0.6261,-0.6261,-0.6261,-0.6261,-0.6261,-0.6261,-0.6261,-0.6261,-0.6261,-0.6261,-0.6261,-0.6261,-0.6261,-0.6261,-0.6261,-0.6261,-0.6261,-0.6261,-0.6261,1.7589,1.7589,1.7589,1.7589,1.7589,1.7589,1.7589,1.7589,1.7589,1.7515,1.7402,1.6743,1.5566,1.4027,1.3825,1.2532,1.0446,1.1116,1.1047,1.0237,0.9557,0.9217,0.9118,0.8333,0.8038,0.8038,0.8038,0.8038,0.8038,0.8038,0.8038,0.8038,0.8038,0.8038,0.8038,0.8038,0.7963,0.7814,0.7657,0.7483,0.7302,0.7187,0.7139,0.7136,0.7085,0.7101,0.7107,0.6891,0.6615,0.6358,0.6398,0.641,0.6327,0.627,0.6322,0.6087,0.2358,0.0,0.0,0.0,0.0,0.0,0.0,0.0,0.0,0.0,0.0,0.0,0.0,0.0,0.0,-0.2199,-0.2829,0.0,0.0,-0.1718,-0.5749,-0.6302,-0.5895,-0.5176,-0.5724,-0.6281,-0.6278,-0.6268,-0.6261,-0.6261,-0.6261,-0.6261,-0.6261,-0.6261,-0.6261,-0.6261,-0.6261,-0.6261,-0.6261,-0.6261,-0.6261,-0.6261,-0.6261,-0.6261,-0.6261,-0.6261,-0.6261,-0.6261,-0.6261,-0.6261,-0.6261,-0.6261,-0.6261,-0.6261,-0.6261,-0.6261,-0.6261,-0.6261,-0.6261,1.7589,1.7589,1.7589,1.7589,1.7589,1.7589,1.7589,1.7589,1.7589,1.7589,1.7589,1.7589,1.6918,1.571,1.5515,1.4651,1.3497,1.318,1.3095,1.2999,1.152,1.0518,1.0082,0.9187,0.8375,0.8045,0.8038,0.8038,0.8038,0.8038,0.8038,0.8038,0.8038,0.8038,0.8038,0.8038,0.7987,0.7882,0.7938,0.7787,0.7451,0.7285,0.7183,0.7146,0.7139,0.7092,0.7083,0.7128,0.6881,0.6512,0.6555,0.6468,0.6344,0.6271,0.5808,0.4494,0.1728,0.0,0.0,0.0,0.0,0.0,0.0,0.0,0.0,0.0,0.0,0.0,-0.1021,0.0,-0.0471,-0.3777,-0.4726,-0.2115,-0.1716,-0.3119,-0.5811,-0.6281,-0.6281,-0.6285,-0.6197,-0.6271,-0.6274,-0.6264,-0.6261,-0.6261,-0.6261,-0.6261,-0.6261,-0.6261,-0.6261,-0.6261,-0.6261,-0.6261,-0.6261,-0.6261,-0.6261,-0.6261,-0.6261,-0.6261,-0.6261,-0.6261,-0.6261,-0.6261,-0.6261,-0.6261,-0.6261,-0.6261,-0.6261,-0.6261,-0.6261,-0.6261,-0.6261,-0.6261,-0.6261,1.7589,1.7589,1.7589,1.7589,1.7589,1.7589,1.7589,1.7589,1.7589,1.7589,1.7589,1.7589,1.7562,1.7384,1.7021,1.7098,1.6944,1.5426,1.5245,1.5909,1.3658,1.1846,1.047,1.0255,0.9469,0.8065,0.8041,0.8038,0.8038,0.8038,0.8038,0.8038,0.8038,0.8038,0.8038,0.8038,0.8035,0.8004,0.7993,0.7842,0.759,0.7441,0.7292,0.7166,0.7143,0.7132,0.7115,0.7094,0.7104,0.7093,0.6797,0.6499,0.6218,0.6124,0.435,0.1025,0.0,0.0,0.0,0.0,0.0,0.0,0.0,0.0,0.0,0.0,0.0,0.0,-0.3618,-0.4093,-0.141,-0.4008,-0.6155,-0.5736,-0.5736,-0.5964,-0.6197,-0.6278,-0.6271,-0.6264,-0.6264,-0.6261,-0.6264,-0.6261,-0.6261,-0.6261,-0.6261,-0.6261,-0.6261,-0.6261,-0.6261,-0.6261,-0.6261,-0.6261,-0.6261,-0.6261,-0.6261,-0.6261,-0.6261,-0.6261,-0.6261,-0.6261,-0.6261,-0.6261,-0.6261,-0.6261,-0.6261,-0.6261,-0.6261,-0.6261,-0.6261,-0.6261,-0.6261,-0.6261,-0.6261,1.7589,1.7589,1.7589,1.7589,1.7589,1.7589,1.7589,1.7589,1.7589,1.7589,1.7589,1.7589,1.7589,1.7575,1.7475,1.7455,1.7468,1.6723,1.6727,1.6896,1.4145,1.2352,1.1661,1.0035,0.8849,0.8282,0.8085,0.8038,0.8038,0.8038,0.8038,0.8038,0.8038,0.8038,0.8038,0.8038,0.8038,0.8035,0.798,0.7885,0.7733,0.759,0.7444,0.7292,0.719,0.7139,0.7139,0.7092,0.7071,0.7088,0.6966,0.548,0.2704,0.2228,0.1691,0.0,0.0,0.0,0.0,0.0,0.0,0.0,0.0,0.0,0.0,0.0,-0.1099,-0.3618,-0.5126,-0.528,-0.4784,-0.5497,-0.6291,-0.6285,-0.6274,-0.6271,-0.6268,-0.6268,-0.6264,-0.6261,-0.6261,-0.6261,-0.6261,-0.6261,-0.6261,-0.6261,-0.6261,-0.6261,-0.6261,-0.6261,-0.6261,-0.6261,-0.6261,-0.6261,-0.6261,-0.6261,-0.6261,-0.6261,-0.6261,-0.6261,-0.6261,-0.6261,-0.6261,-0.6261,-0.6261,-0.6261,-0.6261,-0.6261,-0.6261,-0.6261,-0.6261,-0.6261,-0.6261,-0.6261,-0.6261,1.7589,1.7589,1.7589,1.7589,1.7589,1.7589,1.7589,1.7589,1.7589,1.7589,1.7589,1.7589,1.7589,1.7589,1.7589,1.7609,1.751,1.6964,1.6444,1.6014,1.3832,1.2566,1.1756,1.0103,0.887,0.8361,0.8113,0.8038,0.8038,0.8038,0.8038,0.8038,0.8038,0.8038,0.8038,0.8038,0.8038,0.8038,0.8038,0.7963,0.7814,0.7672,0.7526,0.7377,0.7221,0.7139,0.7139,0.7146,0.7071,0.7074,0.7102,0.4908,0.0,0.0,0.0,0.0,0.0,0.0,0.0,0.0,0.0,0.0,0.0,0.0,0.0,-0.1178,-0.3461,-0.5608,-0.6318,-0.6302,-0.6285,-0.6274,-0.6271,-0.6271,-0.6264,-0.6261,-0.6261,-0.6261,-0.6261,-0.6261,-0.6261,-0.6261,-0.6261,-0.6261,-0.6261,-0.6261,-0.6261,-0.6261,-0.6261,-0.6261,-0.6261,-0.6261,-0.6261,-0.6261,-0.6261,-0.6261,-0.6261,-0.6261,-0.6261,-0.6261,-0.6261,-0.6261,-0.6261,-0.6261,-0.6261,-0.6261,-0.6261,-0.6261,-0.6261,-0.6261,-0.6261,-0.6261,-0.6261,-0.6261,-0.6261,1.7589,1.7589,1.7589,1.7589,1.7589,1.7589,1.7589,1.7589,1.7589,1.7589,1.7589,1.7589,1.7589,1.7589,1.7371,1.7543,1.7297,1.5879,1.4393,1.3306,1.3106,1.2364,1.1035,1.0572,0.965,0.8371,0.8113,0.8041,0.8038,0.8038,0.8038,0.8038,0.8038,0.8038,0.8038,0.8038,0.8038,0.8038,0.8038,0.7967,0.7814,0.7678,0.7536,0.739,0.7231,0.7143,0.7143,0.7074,0.7084,0.7091,0.7111,0.4807,0.0,0.0,0.0,0.0,0.0,0.0,0.0,0.0,0.0,0.0,0.0,0.0,0.0,-0.3484,-0.5972,-0.6215,-0.6349,-0.6308,-0.6315,-0.6315,-0.6291,-0.6261,-0.6261,-0.6261,-0.6261,-0.6261,-0.6261,-0.6261,-0.6261,-0.6261,-0.6261,-0.6261,-0.6261,-0.6261,-0.6261,-0.6261,-0.6261,-0.6261,-0.6261,-0.6261,-0.6261,-0.6261,-0.6261,-0.6261,-0.6261,-0.6261,-0.6261,-0.6261,-0.6261,-0.6261,-0.6261,-0.6261,-0.6261,-0.6261,-0.6261,-0.6261,-0.6261,-0.6261,-0.6261,-0.6261,-0.6261,-0.6261,-0.6261,1.7589,1.7589,1.7589,1.7589,1.7589,1.7589,1.7589,1.7589,1.7589,1.7589,1.7589,1.7589,1.7589,1.7364,1.6605,1.6612,1.7231,1.4104,1.1693,1.0654,1.1272,1.1511,1.0895,0.9927,0.8973,0.8388,0.8116,0.8038,0.8038,0.8038,0.8038,0.8038,0.8038,0.8038,0.8038,0.8038,0.8038,0.8038,0.8038,0.8011,0.7946,0.7726,0.7573,0.7509,0.7292,0.7074,0.7078,0.7081,0.7091,0.7005,0.7121,0.4905,0.0,0.0,0.0,0.0,0.0,0.0,0.0,0.0,0.0,0.0,0.0,0.0,0.0,-0.4087,-0.6447,-0.6532,-0.66,-0.658,-0.6569,-0.6566,-0.6474,-0.6281,-0.6261,-0.6274,-0.6271,-0.6268,-0.6261,-0.6261,-0.6261,-0.6261,-0.6261,-0.6261,-0.6261,-0.6261,-0.6261,-0.6261,-0.6261,-0.6261,-0.6261,-0.6261,-0.6261,-0.6261,-0.6261,-0.6261,-0.6261,-0.6261,-0.6261,-0.6261,-0.6261,-0.6261,-0.6261,-0.6261,-0.6261,-0.6261,-0.6261,-0.6261,-0.6261,-0.6261,-0.6261,-0.6261,-0.6261,-0.6261,-0.6261,1.7589,1.7589,1.7589,1.7589,1.7589,1.7589,1.7589,1.7589,1.7589,1.7589,1.7589,1.7589,1.7589,1.7259,1.6068,1.5606,1.5617,1.2559,1.03,0.9149,0.9753,1.0241,1.0202,0.9144,0.8543,0.8343,0.814,0.8038,0.8038,0.8038,0.8038,0.8038,0.8038,0.8038,0.8038,0.8038,0.8038,0.8038,0.8038,0.8038,0.7991,0.7804,0.7651,0.7577,0.738,0.678,0.6002,0.6548,0.6281,0.4839,0.4491,0.2854,0.0,0.0,0.0,0.0,0.0,0.0,0.0,0.0,0.0,0.0,0.0,0.0,0.0,-0.3178,-0.4708,-0.6579,-0.6816,-0.6719,-0.6698,-0.6695,-0.661,-0.6454,-0.6351,-0.6317,-0.628,-0.6335,-0.6305,-0.6285,-0.6261,-0.6261,-0.6261,-0.6261,-0.6261,-0.6261,-0.6261,-0.6261,-0.6261,-0.6261,-0.6261,-0.6261,-0.6261,-0.6261,-0.6261,-0.6261,-0.6261,-0.6261,-0.6261,-0.6261,-0.6261,-0.6261,-0.6261,-0.6261,-0.6261,-0.6261,-0.6261,-0.6261,-0.6261,-0.6261,-0.6261,-0.6261,-0.6261,-0.6261,-0.6261,1.7589,1.7589,1.7589,1.7589,1.7589,1.7589,1.7589,1.7589,1.7589,1.7589,1.7589,1.7589,1.7477,1.7147,1.5743,1.4578,1.3275,1.166,1.0127,0.9137,0.9044,0.9154,0.912,0.8752,0.8492,0.8425,0.8177,0.8045,0.8038,0.8038,0.8038,0.8038,0.8038,0.8038,0.8038,0.8038,0.8038,0.8038,0.8038,0.8038,0.8031,0.7882,0.7736,0.7604,0.7369,0.6394,0.5112,0.5476,0.431,0.0806,0.0,0.0,0.0,0.0,0.0,0.0,0.0,0.0,0.0,0.0,0.0,0.0,0.0,0.0,0.0,-0.11,-0.2971,-0.6048,-0.6716,-0.6776,-0.6763,-0.6759,-0.6746,-0.6729,-0.6592,-0.6433,-0.6341,-0.6471,-0.6403,-0.6312,-0.6274,-0.6261,-0.6261,-0.6261,-0.6261,-0.6261,-0.6261,-0.6261,-0.6261,-0.6261,-0.6261,-0.6261,-0.6261,-0.6261,-0.6261,-0.6261,-0.6261,-0.6261,-0.6261,-0.6261,-0.6261,-0.6261,-0.6261,-0.6261,-0.6261,-0.6261,-0.6261,-0.6261,-0.6261,-0.6261,-0.6261,-0.6261,-0.6338,-0.6338,-0.6416,1.7589,1.7589,1.7589,1.7589,1.7589,1.7589,1.7589,1.7589,1.7589,1.7589,1.7582,1.7589,1.6935,1.5843,1.4449,1.3624,1.2796,1.07,0.9375,0.8937,0.8937,0.8937,0.8879,0.8628,0.8482,0.8438,0.8187,0.8038,0.8038,0.8038,0.8038,0.8038,0.8038,0.8038,0.8038,0.8038,0.8038,0.8038,0.8038,0.8038,0.8018,0.7896,0.775,0.7617,0.7396,0.6797,0.5765,0.3321,0.1527,0.0,0.0,0.0,0.0,0.0,0.0,0.0,0.0,0.0,0.0,0.0,0.0,0.0,0.0,0.0,0.0,-0.1657,-0.3157,-0.4837,-0.5889,-0.7021,-0.7021,-0.701,-0.701,-0.6997,-0.6848,-0.6874,-0.6808,-0.662,-0.6451,-0.6334,-0.6325,-0.6281,-0.6261,-0.6261,-0.6261,-0.6261,-0.6261,-0.6261,-0.6261,-0.6261,-0.6261,-0.6261,-0.6261,-0.6261,-0.6261,-0.6261,-0.6261,-0.6261,-0.6261,-0.6261,-0.6261,-0.6261,-0.6261,-0.6261,-0.6261,-0.6261,-0.6261,-0.6261,-0.6261,-0.6261,-0.6254,-0.6328,-0.6335,-0.6416,-0.6648,1.7589,1.7589,1.7589,1.7589,1.7589,1.7589,1.7589,1.7589,1.7589,1.7259,1.6817,1.6717,1.5855,1.4449,1.3048,1.2782,1.285,1.0276,0.8937,0.8937,0.8937,0.8937,0.8862,0.8628,0.8482,0.8448,0.818,0.8055,0.8038,0.8038,0.8038,0.8038,0.8038,0.8038,0.8038,0.8038,0.8038,0.8038,0.8038,0.8041,0.7942,0.797,0.7914,0.7773,0.746,0.679,0.416,0.1347,0.0,0.0,0.0,0.0,0.0,0.0,0.0,0.0,0.0,0.0,0.0,0.0,0.0,0.0,0.0,0.0,0.0,-0.2939,-0.502,-0.5453,-0.6438,-0.6969,-0.7143,-0.7139,-0.7139,-0.7109,-0.7073,-0.7123,-0.707,-0.6812,-0.6603,-0.6418,-0.6321,-0.6318,-0.6352,-0.6261,-0.6261,-0.6261,-0.6261,-0.6261,-0.6261,-0.6261,-0.6261,-0.6261,-0.6261,-0.6261,-0.6261,-0.6261,-0.6261,-0.6261,-0.649,-0.649,-0.6254,-0.6254,-0.6261,-0.6261,-0.6261,-0.6261,-0.6261,-0.6261,-0.6261,-0.6257,-0.6325,-0.6553,-0.6788,-0.7825,-0.7902,1.7589,1.7589,1.7589,1.7477,1.7364,1.7575,1.7259,1.7147,1.7153,1.6499,1.5417,1.5198,1.4341,1.3048,1.1864,1.1691,1.2517,0.9941,0.9161,0.8937,0.8937,0.893,0.8852,0.8615,0.8492,0.8435,0.8184,0.8062,0.8038,0.8038,0.8038,0.8038,0.8038,0.8038,0.8038,0.8038,0.8038,0.8038,0.8045,0.7955,0.7762,0.7531,0.7309,0.7787,0.633,0.4453,0.0,0.0,0.0,0.0,0.0,0.0,0.0,0.0,0.0,0.0,0.0,0.0,0.0,0.0,0.0,0.0,0.0,0.0,0.0,-0.3587,-0.6112,-0.6643,-0.7088,-0.7071,-0.7143,-0.7139,-0.7139,-0.7136,-0.7122,-0.7071,-0.7073,-0.6939,-0.6726,-0.6377,-0.6491,-0.6403,-0.6312,-0.6261,-0.6261,-0.6261,-0.6261,-0.6261,-0.6261,-0.6261,-0.6261,-0.6261,-0.6261,-0.6261,-0.6261,-0.6261,-0.6261,-0.6335,-0.6718,-0.6714,-0.6318,-0.6321,-0.6254,-0.6261,-0.6261,-0.6261,-0.6338,-0.6338,-0.6567,-0.6707,-0.6923,-0.7306,-0.7851,-0.9698,-1.0433,1.7589,1.7589,1.7589,1.6935,1.6174,1.7041,1.6287,1.4449,1.5417,1.5097,1.4019,1.3696,1.2945,1.1542,1.1105,1.0684,1.0162,0.9272,0.8937,0.8937,0.8937,0.8862,0.8754,0.8557,0.8486,0.8401,0.8177,0.8045,0.8038,0.8038,0.8038,0.8038,0.8038,0.8038,0.8038,0.8038,0.8038,0.8041,0.7955,0.7969,0.7566,0.6237,0.6044,0.7009,0.4087,0.0,0.0,0.0,0.0,0.0,0.0,0.0,0.0,0.0,0.0,0.0,0.0,0.0,0.0,0.0,0.0,0.0,0.0,0.0,0.0,-0.2773,-0.5285,-0.6542,-0.7074,-0.7149,-0.7143,-0.7139,-0.7139,-0.7139,-0.7139,-0.7129,-0.7085,-0.6997,-0.677,-0.6695,-0.6549,-0.65,-0.6288,-0.6342,-0.6338,-0.6261,-0.6261,-0.6261,-0.6261,-0.6261,-0.6261,-0.6261,-0.6261,-0.6261,-0.6261,-0.6261,-0.6261,-0.649,-0.6868,-0.7897,-0.75,-0.6773,-0.6938,-0.6718,-0.6261,-0.6412,-0.6707,-0.7334,-0.7795,-0.7698,-0.7677,-0.8286,-0.9226,-1.1262,-1.2155,1.7147,1.6493,1.5901,1.5157,1.455,1.5204,1.4663,1.3588,1.4019,1.3588,1.2507,1.2295,1.1433,1.0135,1.0021,0.9588,0.9047,0.8937,0.8937,0.892,0.8872,0.8788,0.8679,0.8499,0.8377,0.8343,0.8153,0.8048,0.8038,0.8038,0.8038,0.8038,0.8038,0.8038,0.8038,0.8038,0.7949,0.7955,0.7965,0.7979,0.7685,0.6765,0.4455,0.43,0.0,0.0,0.0,0.0,0.0,0.0,0.0,0.0,0.0,0.0,0.0,0.0,0.0,0.0,0.0,0.0,0.0,0.0,0.0,0.0,0.0,-0.3038,-0.5549,-0.6719,-0.7068,-0.7139,-0.7139,-0.7139,-0.7139,-0.7139,-0.7139,-0.7139,-0.7126,-0.7068,-0.6973,-0.6824,-0.6681,-0.6536,-0.642,-0.6325,-0.6342,-0.6261,-0.6261,-0.6261,-0.6261,-0.6261,-0.6261,-0.6261,-0.6261,-0.6261,-0.6261,-0.6261,-0.6261,-0.6563,-0.7099,-0.8693,-0.975,-0.8755,-0.7855,-0.771,-0.7642,-0.7302,-0.7677,-0.8309,-0.8865,-0.8689,-0.8822,-0.9422,-1.0196,-1.1484,-1.2032,1.6823,1.5506,1.355,1.2827,1.3254,1.3372,1.3048,1.2512,1.2837,1.2077,1.1,1.0781,1.0135,0.9154,0.9047,0.8937,0.8937,0.8933,0.893,0.8752,0.8781,0.8682,0.8574,0.8401,0.8262,0.8225,0.8106,0.8045,0.8038,0.8038,0.8038,0.8038,0.8038,0.8041,0.8045,0.8045,0.7955,0.7972,0.7982,0.7995,0.7488,0.6759,0.3837,0.0,0.0,0.0,0.0,0.0,0.0,0.0,0.0,0.0,0.0,0.0,0.0,0.0,0.0,0.0,0.0,0.0,0.0,0.0,0.0,0.0,0.0,-0.4476,-0.6364,-0.6986,-0.7153,-0.7139,-0.7139,-0.7139,-0.7139,-0.7139,-0.7139,-0.7139,-0.7139,-0.7139,-0.7058,-0.7022,-0.6888,-0.6671,-0.6505,-0.6376,-0.6315,-0.6264,-0.6261,-0.6257,-0.6254,-0.6335,-0.6335,-0.6257,-0.6261,-0.6261,-0.6261,-0.6868,-0.6791,-0.6934,-0.7391,-0.9372,-1.117,-1.068,-0.9674,-0.9397,-0.9241,-0.8983,-0.8974,-0.9609,-0.9852,-0.9755,-1.004,-1.0703,-1.1236,-1.1774,-1.1922,1.747,1.6797,1.1709,1.1005,1.3141,1.3264,1.1864,1.0025,1.0996,1.0676,0.9482,0.9265,0.9265,0.8937,0.8937,0.8937,0.8923,0.891,0.8746,0.8652,0.8572,0.8591,0.8391,0.8299,0.8194,0.8099,0.8045,0.8041,0.8038,0.8038,0.8038,0.8038,0.8038,0.7945,0.7962,0.7969,0.7766,0.7782,0.7384,0.7092,0.6467,0.3971,0.0,0.0,0.0,0.0,0.0,0.0,0.0,0.0,0.0,0.0,0.0,0.0,0.0,0.0,0.0,0.0,0.0,0.0,0.0,0.0,0.0,0.0,-0.4663,-0.6373,-0.6996,-0.7068,-0.7146,-0.7139,-0.7139,-0.7139,-0.7139,-0.7139,-0.7139,-0.7139,-0.7139,-0.7129,-0.7095,-0.7066,-0.6977,-0.679,-0.6603,-0.6437,-0.6349,-0.6281,-0.6321,-0.6314,-0.6304,-0.6395,-0.656,-0.6409,-0.6261,-0.6261,-0.6261,-0.7096,-0.7548,-0.76,-0.8362,-1.0154,-1.1583,-1.1913,-1.1651,-1.0992,-1.0726,-1.0651,-1.0802,-1.0935,-1.0905,-1.0726,-1.1316,-1.1909,-1.1996,-1.2077,-1.2131,1.6236,1.4116,1.1981,1.1033,1.0988,1.1,1.0241,0.9154,0.9588,0.9588,0.9044,0.8937,0.8937,0.8937,0.8937,0.8903,0.8948,0.8821,0.873,0.8505,0.8509,0.8428,0.8255,0.8197,0.8116,0.8055,0.8038,0.8038,0.8038,0.8038,0.8038,0.8038,0.8038,0.7949,0.7556,0.6539,0.6959,0.7077,0.5555,0.0,0.0,0.0,0.0,0.0,0.0,0.0,0.0,0.0,0.0,0.0,0.0,0.0,0.0,0.0,0.0,0.0,0.0,0.0,0.0,0.0,0.0,0.0,0.0,0.0,-0.5563,-0.7005,-0.7081,-0.7149,-0.7139,-0.7139,-0.7139,-0.7139,-0.7139,-0.7139,-0.7139,-0.7139,-0.7139,-0.7139,-0.7183,-0.7201,-0.7039,-0.6919,-0.6661,-0.6512,-0.6311,-0.6308,-0.6321,-0.6531,-0.6751,-0.7234,-0.7723,-0.7076,-0.708,-0.7561,-0.7557,-0.7931,-0.8295,-0.8344,-0.91,-1.0968,-1.1825,-1.2103,-1.2257,-1.1974,-1.1945,-1.174,-1.1783,-1.1726,-1.1713,-1.1781,-1.207,-1.2358,-1.2298,-1.2298,-1.2492,1.4515,1.1655,1.2137,1.124,0.9439,0.9003,0.8869,0.8855,0.8838,0.8828,0.8849,0.8838,0.8832,0.8842,0.8821,0.8882,0.8883,0.8776,0.8577,0.834,0.8347,0.8269,0.8191,0.8119,0.8041,0.8045,0.7949,0.8045,0.8041,0.7945,0.8045,0.7949,0.7949,0.7962,0.7572,0.645,0.6361,0.4336,0.0,0.0,0.0,0.0,0.0,0.0,0.0,0.0,0.0,0.0,0.0,0.0,0.0,0.0,0.0,0.0,0.0,0.0,0.0,0.0,0.0,0.0,0.0,0.0,0.0,-0.3669,-0.5644,-0.7084,-0.7071,-0.7146,-0.7139,-0.7139,-0.7139,-0.7139,-0.7139,-0.7139,-0.7139,-0.7139,-0.7139,-0.7231,-0.7676,-0.761,-0.7361,-0.7417,-0.7424,-0.6566,-0.6441,-0.7352,-0.7431,-0.8885,-0.9108,-0.9499,-0.9585,-0.8358,-0.8116,-0.8917,-0.9155,-0.914,-0.919,-0.893,-0.9927,-1.1564,-1.2035,-1.2257,-1.2345,-1.2419,-1.2257,-1.2123,-1.2311,-1.268,-1.2914,-1.2987,-1.2886,-1.2931,-1.3041,-1.3107,-1.3237,1.2685,1.2822,1.0389,0.9884,1.0333,0.9266,0.8662,0.8557,0.856,0.8533,0.8577,0.8554,0.8564,0.8567,0.8564,0.8646,0.873,0.8611,0.8431,0.8193,0.8255,0.8187,0.8092,0.8058,0.8045,0.7949,0.7962,0.7955,0.7746,0.7753,0.7969,0.7969,0.7769,0.7992,0.7905,0.729,0.5256,0.1817,0.0,0.0,0.0,0.0,0.0,0.0,0.0,0.0,0.0,0.0,0.0,0.0,0.0,0.0,0.0,0.0,0.0,0.0,0.0,-0.1796,-0.4405,-0.2871,-0.1522,-0.3132,-0.4565,-0.6278,-0.6903,-0.7071,-0.7146,-0.7143,-0.7139,-0.7139,-0.7139,-0.7139,-0.7139,-0.7139,-0.7139,-0.7139,-0.7139,-0.7669,-0.8116,-0.8999,-0.9087,-0.8901,-0.8759,-0.7585,-0.6729,-0.7729,-0.888,-1.0188,-1.1087,-1.1226,-1.1133,-0.9884,-0.9557,-1.0288,-1.0363,-1.0426,-1.0254,-0.983,-1.0754,-1.1929,-1.2164,-1.2325,-1.2546,-1.2546,-1.2452,-1.2666,-1.3032,-1.3411,-1.3973,-1.4095,-1.389,-1.3958,-1.4032,-1.404,-1.4007,1.0241,1.0465,0.9065,0.8924,0.9417,0.8789,0.8543,0.8492,0.8482,0.8482,0.8482,0.8482,0.8482,0.8469,0.8482,0.8543,0.8591,0.8467,0.8279,0.8069,0.8042,0.8116,0.7979,0.7959,0.7959,0.7762,0.7769,0.6851,0.6745,0.7359,0.7982,0.7775,0.6653,0.6665,0.7199,0.7922,0.4752,0.0,0.0,0.0,0.0,0.0,0.0,0.0,0.0,0.0,0.0,0.0,0.0,0.0,0.0,0.0,0.0,0.0,0.0,0.0,0.0,-0.5131,-0.6403,-0.4851,-0.475,-0.5104,-0.6456,-0.6903,-0.7071,-0.7149,-0.7139,-0.7139,-0.7139,-0.7139,-0.7139,-0.7139,-0.7139,-0.7139,-0.7136,-0.7136,-0.7309,-0.8105,-0.8723,-0.9786,-1.0753,-1.054,-1.0339,-0.9633,-0.8828,-0.9051,-1.0044,-1.117,-1.1784,-1.1913,-1.1738,-1.1329,-1.1335,-1.1745,-1.1645,-1.1545,-1.1477,-1.1218,-1.1218,-1.2157,-1.2231,-1.2385,-1.276,-1.2959,-1.2997,-1.3288,-1.3738,-1.4312,-1.4889,-1.4968,-1.4879,-1.4956,-1.4969,-1.4869,-1.4901,0.8408,0.8381,0.8344,0.8357,0.8428,0.8428,0.8401,0.837,0.836,0.8364,0.837,0.836,0.8364,0.837,0.8347,0.8296,0.833,0.8221,0.8157,0.8082,0.7952,0.7969,0.7666,0.7566,0.6851,0.7065,0.7788,0.7074,0.6564,0.6874,0.8009,0.7792,0.4433,0.4133,0.5256,0.526,0.0,0.0,0.0,0.0,0.0,0.0,0.0,0.0,0.0,0.0,0.0,0.0,0.0,0.0,0.0,0.0,0.0,0.0,-0.3506,-0.5858,-0.64,-0.6576,-0.7029,-0.6659,-0.7108,-0.7094,-0.7084,-0.7071,-0.7146,-0.7139,-0.7139,-0.7139,-0.7139,-0.7139,-0.7139,-0.7139,-0.7139,-0.7136,-0.7126,-0.7126,-0.7386,-0.8436,-0.985,-1.1451,-1.2146,-1.2272,-1.198,-1.1803,-1.132,-1.0869,-1.1402,-1.2177,-1.2267,-1.2325,-1.2157,-1.1848,-1.2009,-1.2257,-1.217,-1.215,-1.2231,-1.2372,-1.2372,-1.2291,-1.2285,-1.282,-1.336,-1.3462,-1.3708,-1.4268,-1.5013,-1.5413,-1.58,-1.5822,-1.586,-1.5826,-1.573,-1.5703,-1.586,0.8201,0.8092,0.8364,0.8397,0.8286,0.8286,0.8204,0.8113,0.8089,0.8096,0.8116,0.8089,0.8113,0.8099,0.813,0.8119,0.8096,0.7989,0.7472,0.7475,0.7989,0.7782,0.7375,0.635,0.4726,0.4628,0.5756,0.6785,0.7302,0.6284,0.7412,0.7305,0.2924,0.111,0.0,0.0,0.0,0.0,0.0,0.0,0.0,0.0,0.0,0.0,0.0,0.0,0.0,0.0,0.0,0.0,0.0,0.0,0.0,-0.3868,-0.6132,-0.6761,-0.7115,-0.7104,-0.7098,-0.7094,-0.7081,-0.7153,-0.7146,-0.7146,-0.7143,-0.7139,-0.7139,-0.7139,-0.7139,-0.7139,-0.7139,-0.7139,-0.7139,-0.7132,-0.739,-0.8097,-0.8432,-0.9187,-1.0692,-1.2759,-1.3455,-1.3222,-1.3288,-1.2928,-1.2831,-1.2437,-1.1569,-1.2329,-1.2302,-1.2311,-1.2311,-1.2231,-1.2298,-1.2378,-1.2305,-1.2365,-1.2579,-1.2572,-1.2572,-1.2412,-1.2318,-1.3011,-1.408,-1.4745,-1.5062,-1.5675,-1.6219,-1.6605,-1.6851,-1.6839,-1.6775,-1.6757,-1.6895,-1.6991,-1.7148,0.8092,0.8052,0.8163,0.8177,0.813,0.813,0.8096,0.8045,0.8038,0.7949,0.7959,0.7959,0.7965,0.7969,0.7969,0.7975,0.7675,0.6039,0.4924,0.4216,0.452,0.6356,0.6667,0.6266,0.5046,0.0,0.0,0.537,0.7633,0.517,0.3337,0.202,0.0,0.0,0.0,0.0,0.0,0.0,0.0,0.0,0.0,0.0,0.0,0.0,0.0,0.0,0.0,0.0,0.0,0.0,0.0,0.0,-0.3325,-0.5947,-0.6943,-0.7111,-0.7094,-0.7084,-0.7074,-0.7078,-0.7074,-0.7146,-0.7139,-0.7139,-0.7139,-0.7139,-0.7139,-0.7139,-0.7139,-0.7139,-0.7139,-0.7139,-0.7139,-0.7129,-0.7562,-0.844,-0.9845,-1.0687,-1.137,-1.337,-1.3783,-1.3737,-1.3822,-1.3984,-1.3937,-1.3811,-1.2981,-1.2385,-1.2587,-1.268,-1.276,-1.2886,-1.3018,-1.2872,-1.2799,-1.2858,-1.2917,-1.283,-1.275,-1.3128,-1.3266,-1.3917,-1.4911,-1.5664,-1.6167,-1.6349,-1.6826,-1.7548,-1.7773,-1.751,-1.7569,-1.7716,-1.793,-1.8008,-1.8008,0.8045,0.7949,0.7952,0.7949,0.8038,0.8038,0.8045,0.7949,0.7952,0.7962,0.7875,0.7359,0.6851,0.6756,0.6756,0.7478,0.7381,0.6155,0.3217,0.211,0.2313,0.393,0.5052,0.4853,0.0,0.0,0.0,0.2527,0.4762,0.1617,0.0,0.0,0.0,0.0,0.0,0.0,0.0,0.0,0.0,0.0,0.0,0.0,0.0,0.0,0.0,0.0,0.0,0.0,0.0,0.0,0.0,0.0,-0.494,-0.6662,-0.7019,-0.7094,-0.7078,-0.7156,-0.7149,-0.7149,-0.7068,-0.7143,-0.7139,-0.7139,-0.7139,-0.7139,-0.7139,-0.7139,-0.7139,-0.7139,-0.7139,-0.7139,-0.7126,-0.7112,-0.7149,-0.8103,-1.1251,-1.2851,-1.3089,-1.3887,-1.3939,-1.3997,-1.3997,-1.4062,-1.4069,-1.3858,-1.3039,-1.2872,-1.3726,-1.3696,-1.3659,-1.3775,-1.3947,-1.3665,-1.3375,-1.3723,-1.3901,-1.2906,-1.315,-1.4378,-1.4832,-1.5401,-1.6,-1.6799,-1.7112,-1.6945,-1.7229,-1.7813,-1.7969,-1.794,-1.8008,-1.8008,-1.8008,-1.8008,-1.8008,0.7952,0.7972,0.7862,0.7846,0.8018,0.8038,0.7952,0.7969,0.7666,0.7775,0.7682,0.5839,0.4321,0.4221,0.4123,0.5039,0.6475,0.6578,0.4442,0.1008,0.0,0.0,0.0,0.0,0.0,0.0,0.0,0.0,0.0,0.0,0.0,0.0,0.0,0.0,0.0,0.0,0.0,0.0,0.0,0.0,0.0,0.0,0.0,0.0,0.0,0.0,0.0,0.0,-0.5211,-0.5384,-0.4117,-0.4204,-0.4652,-0.6367,-0.6999,-0.7084,-0.7153,-0.7143,-0.7139,-0.7139,-0.7139,-0.7139,-0.7139,-0.7139,-0.7139,-0.7139,-0.7139,-0.7139,-0.7316,-0.7228,-0.7139,-0.7221,-0.7372,-0.7341,-0.7375,-0.9134,-1.2386,-1.3835,-1.3965,-1.4037,-1.4017,-1.4088,-1.4088,-1.4105,-1.4111,-1.3762,-1.2902,-1.3292,-1.4324,-1.5065,-1.4969,-1.4569,-1.4736,-1.4665,-1.4514,-1.4879,-1.4735,-1.3712,-1.3704,-1.5105,-1.607,-1.6578,-1.7209,-1.7877,-1.7781,-1.7472,-1.7687,-1.8018,-1.8202,-1.8395,-1.8076,-1.8008,-1.8008,-1.8114,-1.821,0.8021,0.7845,0.6134,0.6385,0.7821,0.7997,0.7979,0.7675,0.6345,0.635,0.7598,0.6879,0.4336,0.2418,0.0,0.0,0.0,0.2726,0.0707,0.0,0.0,0.0,0.0,0.0,0.0,0.0,0.0,0.0,0.0,0.0,0.0,0.0,0.0,0.0,0.0,0.0,0.0,0.0,0.0,0.0,0.0,0.0,0.0,0.0,0.0,0.0,0.0,0.0,-0.6834,-0.7098,-0.5733,-0.5727,-0.5725,-0.6992,-0.7078,-0.7071,-0.7139,-0.7139,-0.7139,-0.7139,-0.7139,-0.7139,-0.7139,-0.7139,-0.7139,-0.7139,-0.7139,-0.7316,-0.7837,-0.7742,-0.7362,-0.8317,-0.8554,-0.8265,-0.894,-1.1552,-1.394,-1.3965,-1.4095,-1.4095,-1.4088,-1.4088,-1.4088,-1.4062,-1.4103,-1.4367,-1.3794,-1.3892,-1.4739,-1.6122,-1.6685,-1.5749,-1.5446,-1.5446,-1.5587,-1.5939,-1.5887,-1.5027,-1.5253,-1.6253,-1.7047,-1.7439,-1.7655,-1.7978,-1.7988,-1.8008,-1.8414,-1.8751,-1.8798,-1.8854,-1.8654,-1.8654,-1.8854,-1.8772,-1.8594,0.7189,0.7814,0.6131,0.5795,0.6625,0.6569,0.7036,0.7143,0.4347,0.3668,0.4897,0.5107,0.3416,0.0,0.0,0.0,0.0,0.0,0.0,0.0,0.0,0.0,0.0,0.0,0.0,0.0,0.0,0.0,0.0,0.0,0.0,0.0,0.0,0.0,0.0,0.0,0.0,0.0,0.0,0.0,0.0,0.0,0.0,0.0,0.0,0.0,0.0,-0.5013,-0.7091,-0.7091,-0.7084,-0.7081,-0.7078,-0.7074,-0.7156,-0.7143,-0.7139,-0.7139,-0.7139,-0.7139,-0.7139,-0.7139,-0.7139,-0.7139,-0.7139,-0.7139,-0.7489,-0.7837,-0.854,-0.8603,-0.857,-0.9607,-0.9947,-0.9737,-1.0439,-1.2997,-1.3985,-1.4095,-1.4088,-1.4088,-1.4088,-1.4088,-1.4082,-1.4126,-1.4115,-1.4487,-1.4823,-1.5165,-1.5458,-1.6616,-1.7701,-1.6969,-1.6437,-1.6576,-1.6655,-1.6862,-1.672,-1.6267,-1.6684,-1.7285,-1.751,-1.7823,-1.7949,-1.8154,-1.858,-1.8926,-1.9306,-1.956,-1.9715,-1.9628,-1.9497,-1.9562,-1.9694,-1.9868,-1.989,0.5339,0.7583,0.7777,0.6024,0.4098,0.3892,0.5242,0.7108,0.2293,0.0,0.0,0.0,0.0,0.0,0.0,0.0,0.0,0.0,0.0,0.0,0.0,0.0,0.0,0.0,0.0,0.0,0.0,0.0,0.0,0.0,0.0,0.0,0.0,-0.2801,-0.3532,0.0,0.0,0.0,-0.3817,-0.5333,-0.5307,-0.4569,-0.3846,-0.3306,-0.2586,-0.339,-0.5095,-0.6903,-0.7071,-0.7153,-0.7143,-0.7143,-0.7143,-0.7139,-0.7139,-0.7139,-0.7139,-0.7139,-0.7139,-0.7139,-0.7139,-0.7139,-0.7139,-0.7139,-0.7228,-0.7316,-0.7841,-0.8536,-0.9231,-0.9831,-1.0245,-1.1042,-1.1752,-1.1621,-1.1582,-1.2845,-1.3835,-1.4088,-1.4088,-1.4088,-1.4088,-1.4082,-1.4075,-1.4126,-1.4275,-1.5049,-1.5808,-1.7261,-1.7424,-1.7027,-1.7845,-1.7839,-1.7579,-1.7725,-1.7794,-1.7608,-1.7482,-1.7045,-1.7288,-1.7794,-1.8008,-1.7998,-1.8027,-1.8375,-1.9271,-1.9843,-2.0238,-2.0433,-2.0602,-2.0526,-2.0515,-2.059,-2.0782,-2.1713,-2.1876,0.1606,0.2334,0.2334,0.1853,0.119,0.0,0.167,0.1903,0.0,0.0,0.0,0.0,0.0,0.0,0.0,0.0,0.0,0.0,0.0,0.0,0.0,0.0,0.0,0.0,0.0,0.0,-0.2746,-0.41,0.0,-0.2304,-0.1422,0.0,-0.3696,-0.4949,-0.491,-0.4885,-0.3796,-0.3612,-0.5763,-0.6665,-0.7115,-0.6189,-0.5822,-0.5366,-0.5001,-0.5813,-0.6536,-0.7071,-0.7146,-0.7143,-0.7139,-0.7139,-0.7139,-0.7139,-0.7139,-0.7139,-0.7139,-0.7139,-0.7139,-0.7139,-0.7139,-0.7139,-0.7228,-0.7139,-0.7316,-0.7841,-0.8544,-0.9318,-1.0265,-1.0945,-1.1455,-1.2157,-1.279,-1.2948,-1.2832,-1.3275,-1.4088,-1.4088,-1.4088,-1.4088,-1.4088,-1.4243,-1.4237,-1.4129,-1.4365,-1.5353,-1.67,-1.838,-1.9069,-1.848,-1.8171,-1.8251,-1.8223,-1.8291,-1.8135,-1.7978,-1.7979,-1.793,-1.8037,-1.8076,-1.8096,-1.8057,-1.7997,-1.8834,-2.0282,-2.0924,-2.1172,-2.1325,-2.1491,-2.1729,-2.1791,-2.1803,-2.1937,-2.2674,-2.3219,0.0,0.0,0.0,0.0,0.0,0.0,0.0,0.0,0.0,0.0,0.0,0.0,0.0,0.0,0.0,0.0,0.0,0.0,0.0,0.0,-0.1682,0.0,0.0,-0.1855,0.0,-0.2699,-0.3748,-0.4793,-0.523,-0.4799,-0.39,-0.4931,-0.6678,-0.6076,-0.5757,-0.6109,-0.6097,-0.5824,-0.6272,-0.6913,-0.7094,-0.7091,-0.7084,-0.7084,-0.7078,-0.7074,-0.7071,-0.7146,-0.7143,-0.7139,-0.7139,-0.7139,-0.7139,-0.7139,-0.7139,-0.7139,-0.7139,-0.7139,-0.7139,-0.7139,-0.7139,-0.7408,-0.794,-0.8572,-0.8476,-0.8823,-0.9589,-1.0351,-1.1375,-1.231,-1.2656,-1.3087,-1.3626,-1.3997,-1.3997,-1.3997,-1.4088,-1.4088,-1.4088,-1.4088,-1.425,-1.4412,-1.4434,-1.4234,-1.4817,-1.6267,-1.7749,-1.9425,-1.9771,-1.9209,-1.8879,-1.8718,-1.8691,-1.8652,-1.8486,-1.8319,-1.8298,-1.8356,-1.8392,-1.8363,-1.83,-1.8912,-1.9708,-2.061,-2.1684,-2.2016,-2.2258,-2.227,-2.2372,-2.2641,-2.2798,-2.2747,-2.2664,-2.2922,-2.3374,0.0,0.0,0.0,0.0,0.0,0.0,0.0,0.0,0.0,0.0,0.0,0.0,0.0,0.0,0.0,0.0,0.0,0.0,0.0,-0.0668,-0.3556,-0.5302,-0.5387,-0.5043,-0.4082,-0.3884,-0.4242,-0.5339,-0.4971,-0.5101,-0.5932,-0.7101,-0.7019,-0.6732,-0.6723,-0.6808,-0.6802,-0.6792,-0.6795,-0.7078,-0.7078,-0.7153,-0.7139,-0.7143,-0.7143,-0.7143,-0.7143,-0.7139,-0.7139,-0.7139,-0.7139,-0.7139,-0.7139,-0.7139,-0.7139,-0.7139,-0.7139,-0.7139,-0.7136,-0.7129,-0.7126,-0.7841,-0.9192,-1.026,-1.042,-1.0125,-1.0702,-1.1386,-1.2322,-1.3021,-1.3451,-1.3626,-1.3906,-1.4088,-1.4088,-1.4088,-1.4088,-1.4088,-1.4088,-1.4166,-1.4573,-1.481,-1.5184,-1.5068,-1.5597,-1.7174,-1.8795,-2.0324,-2.036,-1.9811,-1.9507,-1.9228,-1.9062,-1.8984,-1.8994,-1.8864,-1.8697,-1.8692,-1.8764,-2.0104,-2.0994,-2.1359,-2.1638,-2.2226,-2.2798,-2.3055,-2.3244,-2.3331,-2.3331,-2.3409,-2.356,-2.3599,-2.3683,-2.3844,-2.4021,0.0,0.0,0.0,0.0,0.0,0.0,0.0,0.0,0.0,0.0,0.0,0.0,0.0,0.0,0.0,0.0,0.0,-0.3103,-0.5047,-0.4368,-0.5504,-0.615,-0.6838,-0.6276,-0.6059,-0.6302,-0.6262,-0.6028,-0.6113,-0.6703,-0.7115,-0.7071,-0.7156,-0.7153,-0.7153,-0.7153,-0.7146,-0.7139,-0.7146,-0.7153,-0.7149,-0.7146,-0.7139,-0.7139,-0.7139,-0.7139,-0.7139,-0.7139,-0.7139,-0.7139,-0.7139,-0.7139,-0.7139,-0.7139,-0.7139,-0.7139,-0.7401,-0.7397,-0.7115,-0.7193,-0.7358,-0.8066,-0.9492,-1.1359,-1.2152,-1.1757,-1.1821,-1.2419,-1.3027,-1.3555,-1.3997,-1.4082,-1.4088,-1.4088,-1.4088,-1.4088,-1.4088,-1.4088,-1.4088,-1.4412,-1.481,-1.5282,-1.5749,-1.623,-1.6758,-1.7828,-1.9418,-2.0557,-2.0624,-2.0281,-2.0003,-1.9683,-1.9346,-1.9277,-1.9375,-1.958,-1.9536,-1.9277,-1.9324,-2.1121,-2.3464,-2.3861,-2.3895,-2.3561,-2.3733,-2.4039,-2.4243,-2.4355,-2.4394,-2.432,-2.419,-2.4247,-2.5197,-2.5613,-2.5476,0.0,0.0,0.0,0.0,0.0,-0.2247,-0.3145,-0.2964,-0.2061,-0.1612,-0.1882,-0.2602,-0.3145,-0.2694,-0.2177,-0.0819,-0.1368,-0.4982,-0.6199,-0.6305,-0.6048,-0.6296,-0.6734,-0.708,-0.6944,-0.7078,-0.7131,-0.6996,-0.7068,-0.7153,-0.7149,-0.7139,-0.7139,-0.7139,-0.7139,-0.7139,-0.7139,-0.7139,-0.7139,-0.7139,-0.7139,-0.7139,-0.7139,-0.7139,-0.7139,-0.7139,-0.7139,-0.7139,-0.7139,-0.7139,-0.7139,-0.7577,-0.7753,-0.8013,-0.8273,-0.8619,-0.8698,-0.8162,-0.7516,-0.741,-0.8119,-0.9643,-1.0971,-1.3236,-1.3316,-1.3003,-1.2954,-1.347,-1.3555,-1.3997,-1.3997,-1.4088,-1.4088,-1.4088,-1.4088,-1.4088,-1.4088,-1.4088,-1.4088,-1.4166,-1.4901,-1.5869,-1.63,-1.6758,-1.7405,-1.8961,-2.0479,-2.0566,-2.0576,-2.0576,-2.033,-2.0171,-1.985,-1.987,-2.0066,-2.0347,-2.0575,-2.0259,-2.007,-2.216,-2.4354,-2.5487,-2.6095,-2.5278,-2.4859,-2.4985,-2.5191,-2.5255,-2.537,-2.5354,-2.5091,-2.4851,-2.6035,-2.7236,-2.7092,0.0,0.0,0.0,0.0,-0.1348,-0.4766,-0.6582,-0.6579,-0.4926,-0.402,-0.42,-0.6022,-0.7035,-0.6302,-0.5109,-0.2945,-0.2772,-0.561,-0.6866,-0.7125,-0.6939,-0.6879,-0.6866,-0.7084,-0.7088,-0.7084,-0.7153,-0.7146,-0.7143,-0.7139,-0.7139,-0.7139,-0.7139,-0.7139,-0.7139,-0.7139,-0.7139,-0.7139,-0.7139,-0.7228,-0.7231,-0.7143,-0.7139,-0.7139,-0.7139,-0.7139,-0.7139,-0.7139,-0.7139,-0.7408,-0.7672,-0.8372,-0.8798,-0.9144,-0.9488,-0.9918,-1.0005,-0.9265,-0.8344,-0.806,-1.0322,-1.2445,-1.3683,-1.411,-1.4097,-1.4064,-1.4017,-1.4004,-1.4088,-1.4088,-1.4088,-1.4088,-1.4088,-1.4088,-1.4088,-1.4088,-1.4088,-1.4088,-1.4088,-1.4173,-1.5228,-1.6281,-1.6774,-1.7304,-1.8549,-2.0041,-2.0576,-2.0576,-2.0576,-2.0576,-2.0507,-2.0428,-2.033,-2.0428,-2.0556,-2.105,-2.1329,-2.1797,-2.1996,-2.3625,-2.5063,-2.5952,-2.6464,-2.6442,-2.6095,-2.5945,-2.6039,-2.6142,-2.6188,-2.6524,-2.6584,-2.6616,-2.7524,-2.8473,-2.8483,0.0,0.0,-0.4045,-0.5676,-0.5581,-0.4839,-0.5285,-0.6926,-0.6646,-0.6462,-0.6367,-0.6637,-0.7098,-0.7108,-0.6831,-0.5641,-0.509,-0.6815,-0.6894,-0.7068,-0.7153,-0.7153,-0.7149,-0.7146,-0.7143,-0.7139,-0.7228,-0.7139,-0.7577,-0.7401,-0.7228,-0.7401,-0.7312,-0.7228,-0.7228,-0.7224,-0.7214,-0.7394,-0.7661,-0.7749,-0.8101,-0.7929,-0.7228,-0.7139,-0.7139,-0.7139,-0.7139,-0.7139,-0.7139,-0.7588,-0.8836,-0.9795,-1.0111,-1.0356,-1.0611,-1.0961,-1.1133,-1.0763,-1.01,-0.9976,-1.218,-1.3401,-1.409,-1.4128,-1.4122,-1.4115,-1.4088,-1.4088,-1.4088,-1.4088,-1.4088,-1.4088,-1.4088,-1.4088,-1.4088,-1.4088,-1.4088,-1.4173,-1.4173,-1.4824,-1.5801,-1.669,-1.7326,-1.8231,-1.9593,-2.0576,-2.0576,-2.0576,-2.0576,-2.0576,-2.0576,-2.0654,-2.0654,-2.0566,-2.0615,-2.1573,-2.2158,-2.2798,-2.357,-2.4696,-2.5545,-2.6151,-2.6557,-2.695,-2.6938,-2.6729,-2.6828,-2.7229,-2.7781,-2.8158,-2.8412,-2.8699,-2.9351,-2.966,-2.9633]}]]